[[{"header":{"parameterUnit":"m.s-1","parameterCategory":1,"la1":30.6,"la2":29.2853,"lo1":-89.7004,"lo2":-87.6739,"dy":0.0162,"dx":0.0183,"nx":112,"ny":82,"refTime":"2023-03-04T06:00:00:Z","depth":0,"parameterNumber":2,"parameterNumberName":"U-component_of_WINDS"},"data":[0.0,0.0,0.0,0.0,0.0,0.0,0.0,0.0,0.0,0.0,0.0,0.0,0.0,0.0,0.0,0.0,0.0,0.0,0.0,0.0,0.0,0.0,0.0,0.0,0.0,0.0,0.0,0.0,0.0,0.0,0.0,0.0,0.0,0.0,0.0,0.0,0.0,0.0,0.0,0.0,0.0,0.0,0.0,0.0,0.0,0.0,0.0,0.0,0.0,0.0,0.0,0.0,0.0,0.0,0.0,0.0,0.0,0.0,0.0,0.0,0.0,0.0,0.0,0.0,0.0,0.0,0.0,0.0,0.0,0.0,0.0,0.0,0.0,0.0,0.0,0.0,0.0,0.0,0.0,0.0,0.0,0.0,0.0,0.0,0.0,0.0,0.0,0.0,0.0,0.0,-2.6069,-2.7032,-2.9001,-2.9987,-2.9285,-2.8962,-2.8492,-2.7736,0.0,0.0,0.0,0.0,0.0,0.0,0.0,0.0,0.0,0.0,0.0,0.0,0.0,0.0,0.0,0.0,0.0,0.0,0.0,0.0,0.0,0.0,0.0,0.0,0.0,0.0,0.0,0.0,0.0,0.0,0.0,0.0,0.0,0.0,0.0,0.0,0.0,0.0,0.0,0.0,0.0,0.0,0.0,0.0,0.0,0.0,0.0,0.0,0.0,0.0,0.0,0.0,0.0,0.0,0.0,0.0,0.0,0.0,0.0,0.0,0.0,0.0,0.0,0.0,0.0,0.0,0.0,0.0,0.0,0.0,0.0,0.0,0.0,0.0,0.0,0.0,0.0,0.0,0.0,0.0,0.0,0.0,0.0,0.0,0.0,0.0,0.0,0.0,0.0,0.0,0.0,0.0,0.0,0.0,0.0,0.0,0.0,0.0,0.0,0.0,0.0,0.0,0.0,0.0,-2.5473,-2.6807,-2.8304,-2.9177,-2.9053,-2.8309,-2.7868,-2.7736,0.0,0.0,0.0,0.0,0.0,0.0,0.0,0.0,0.0,0.0,0.0,0.0,0.0,0.0,0.0,0.0,0.0,0.0,0.0,0.0,0.0,0.0,0.0,0.0,0.0,0.0,0.0,0.0,0.0,0.0,0.0,0.0,0.0,0.0,0.0,0.0,0.0,0.0,0.0,0.0,0.0,0.0,0.0,0.0,0.0,0.0,0.0,0.0,0.0,0.0,0.0,0.0,0.0,0.0,0.0,0.0,0.0,0.0,0.0,0.0,0.0,0.0,0.0,0.0,0.0,0.0,0.0,0.0,0.0,0.0,0.0,0.0,0.0,0.0,0.0,0.0,0.0,0.0,0.0,0.0,0.0,0.0,0.0,0.0,0.0,0.0,0.0,0.0,0.0,0.0,0.0,0.0,0.0,0.0,0.0,0.0,0.0,0.0,0.0,0.0,0.0,0.0,0.0,-2.6518,-2.7165,-2.7314,-2.8774,-2.9317,-2.8363,-2.792,-2.7484,-2.7095,-2.6714,0.0,0.0,0.0,0.0,0.0,0.0,0.0,0.0,0.0,0.0,0.0,0.0,0.0,0.0,0.0,0.0,0.0,0.0,0.0,0.0,0.0,0.0,0.0,0.0,0.0,0.0,0.0,0.0,0.0,0.0,0.0,0.0,0.0,0.0,0.0,0.0,0.0,0.0,0.0,0.0,0.0,0.0,0.0,0.0,0.0,0.0,0.0,0.0,0.0,0.0,0.0,0.0,0.0,0.0,0.0,0.0,0.0,0.0,0.0,0.0,0.0,0.0,0.0,0.0,0.0,0.0,0.0,0.0,0.0,0.0,0.0,0.0,0.0,0.0,0.0,0.0,0.0,0.0,0.0,0.0,0.0,0.0,0.0,0.0,0.0,0.0,0.0,0.0,0.0,0.0,0.0,0.0,0.0,0.0,0.0,0.0,0.0,0.0,0.0,0.0,0.0,0.0,-2.7604,-2.8182,-2.7484,-2.862,-2.8876,-2.755,-2.7417,-2.7098,-2.6332,-2.6319,0.0,0.0,0.0,0.0,0.0,0.0,0.0,0.0,0.0,0.0,0.0,0.0,0.0,0.0,0.0,0.0,0.0,0.0,0.0,0.0,0.0,0.0,0.0,0.0,0.0,0.0,0.0,0.0,0.0,0.0,0.0,0.0,0.0,0.0,0.0,0.0,0.0,0.0,0.0,0.0,0.0,0.0,0.0,0.0,0.0,0.0,0.0,0.0,0.0,0.0,0.0,0.0,0.0,0.0,0.0,0.0,0.0,0.0,0.0,0.0,0.0,0.0,0.0,0.0,0.0,0.0,0.0,0.0,0.0,0.0,0.0,0.0,0.0,0.0,0.0,0.0,0.0,0.0,0.0,0.0,0.0,0.0,0.0,0.0,0.0,0.0,0.0,0.0,0.0,0.0,0.0,0.0,0.0,0.0,0.0,0.0,0.0,0.0,0.0,0.0,0.0,0.0,-2.6589,-2.6658,-2.6589,-2.6714,-2.6714,-2.6589,-2.6589,-2.6294,-2.5686,-2.5649,0.0,0.0,0.0,0.0,0.0,0.0,0.0,0.0,0.0,0.0,0.0,0.0,0.0,0.0,0.0,0.0,0.0,0.0,0.0,0.0,0.0,0.0,0.0,0.0,0.0,0.0,0.0,0.0,0.0,0.0,0.0,0.0,0.0,0.0,0.0,0.0,0.0,0.0,0.0,0.0,0.0,0.0,0.0,0.0,0.0,0.0,0.0,0.0,0.0,0.0,0.0,0.0,0.0,0.0,0.0,0.0,0.0,0.0,0.0,0.0,0.0,0.0,0.0,0.0,0.0,0.0,0.0,0.0,0.0,0.0,0.0,0.0,0.0,0.0,0.0,0.0,0.0,0.0,0.0,0.0,0.0,0.0,0.0,0.0,0.0,0.0,0.0,0.0,0.0,0.0,0.0,0.0,0.0,0.0,0.0,0.0,0.0,0.0,0.0,0.0,0.0,0.0,-2.6905,-2.704,0.0,-2.6973,-2.704,-2.6521,-2.6533,-2.6214,-2.5636,0.0,0.0,0.0,0.0,0.0,0.0,0.0,0.0,0.0,0.0,0.0,0.0,0.0,0.0,0.0,0.0,0.0,0.0,0.0,0.0,0.0,0.0,0.0,0.0,0.0,0.0,0.0,0.0,0.0,0.0,0.0,0.0,0.0,0.0,0.0,0.0,0.0,0.0,0.0,0.0,0.0,0.0,0.0,0.0,0.0,0.0,0.0,0.0,0.0,0.0,0.0,0.0,0.0,0.0,0.0,0.0,0.0,0.0,0.0,0.0,0.0,0.0,0.0,0.0,0.0,0.0,0.0,0.0,0.0,0.0,0.0,0.0,0.0,0.0,0.0,0.0,0.0,0.0,0.0,0.0,0.0,0.0,0.0,0.0,0.0,0.0,0.0,0.0,0.0,0.0,0.0,0.0,0.0,0.0,0.0,0.0,0.0,0.0,0.0,0.0,0.0,0.0,-2.6189,-2.6857,-2.7095,0.0,-2.6973,-2.7095,-2.6521,-2.6533,-2.6138,-2.5398,0.0,0.0,0.0,0.0,0.0,0.0,0.0,0.0,0.0,0.0,0.0,0.0,0.0,0.0,0.0,0.0,0.0,0.0,0.0,0.0,0.0,0.0,0.0,0.0,0.0,0.0,0.0,0.0,0.0,0.0,0.0,0.0,0.0,0.0,0.0,0.0,0.0,0.0,0.0,0.0,0.0,0.0,0.0,0.0,0.0,0.0,0.0,0.0,0.0,0.0,0.0,0.0,0.0,0.0,0.0,0.0,0.0,0.0,0.0,0.0,0.0,0.0,0.0,0.0,0.0,0.0,0.0,0.0,0.0,0.0,0.0,0.0,0.0,0.0,0.0,0.0,0.0,0.0,0.0,0.0,0.0,0.0,0.0,0.0,0.0,0.0,0.0,0.0,0.0,0.0,0.0,0.0,0.0,0.0,0.0,0.0,0.0,0.0,0.0,0.0,0.0,0.0,-2.5598,-2.6101,-2.6533,-2.6533,-2.6533,-2.6533,-2.6533,-2.6533,-2.5988,0.0,0.0,0.0,0.0,0.0,0.0,0.0,0.0,0.0,0.0,0.0,0.0,0.0,0.0,0.0,0.0,0.0,0.0,0.0,0.0,0.0,0.0,0.0,0.0,0.0,0.0,0.0,0.0,0.0,0.0,0.0,0.0,0.0,0.0,0.0,0.0,0.0,0.0,0.0,0.0,0.0,0.0,0.0,0.0,0.0,0.0,0.0,0.0,0.0,0.0,0.0,0.0,0.0,0.0,0.0,0.0,0.0,0.0,0.0,0.0,0.0,0.0,0.0,0.0,0.0,0.0,0.0,0.0,0.0,0.0,0.0,0.0,0.0,0.0,0.0,0.0,0.0,0.0,0.0,0.0,0.0,0.0,0.0,0.0,0.0,0.0,0.0,0.0,0.0,0.0,0.0,0.0,0.0,0.0,0.0,0.0,0.0,0.0,0.0,0.0,0.0,0.0,0.0,-2.5598,-2.6101,-2.6533,-2.6533,-2.6533,-2.6533,-2.6533,-2.6533,-2.5988,-2.4895,0.0,0.0,0.0,0.0,0.0,0.0,0.0,0.0,0.0,0.0,0.0,0.0,0.0,0.0,0.0,0.0,0.0,0.0,0.0,0.0,0.0,0.0,0.0,0.0,0.0,0.0,0.0,0.0,0.0,0.0,0.0,0.0,0.0,0.0,0.0,0.0,0.0,0.0,0.0,0.0,0.0,0.0,0.0,0.0,0.0,0.0,0.0,0.0,0.0,0.0,0.0,0.0,0.0,0.0,0.0,0.0,0.0,0.0,0.0,0.0,0.0,0.0,0.0,0.0,0.0,0.0,0.0,0.0,0.0,0.0,0.0,0.0,0.0,0.0,0.0,0.0,0.0,0.0,0.0,0.0,0.0,0.0,0.0,0.0,0.0,0.0,0.0,0.0,0.0,0.0,0.0,0.0,0.0,0.0,0.0,0.0,0.0,0.0,0.0,0.0,0.0,0.0,-2.5285,-2.5975,-2.6533,-2.6533,-2.6533,-2.6533,-2.6533,-2.6533,-2.594,-2.4644,0.0,0.0,0.0,0.0,0.0,0.0,0.0,0.0,0.0,0.0,0.0,0.0,0.0,0.0,0.0,0.0,0.0,0.0,0.0,0.0,0.0,0.0,0.0,0.0,0.0,0.0,0.0,0.0,0.0,0.0,0.0,0.0,0.0,0.0,0.0,0.0,0.0,0.0,0.0,0.0,0.0,0.0,0.0,0.0,0.0,0.0,0.0,0.0,0.0,0.0,0.0,0.0,0.0,0.0,0.0,0.0,0.0,0.0,0.0,0.0,0.0,0.0,0.0,0.0,0.0,0.0,0.0,0.0,0.0,0.0,0.0,0.0,0.0,0.0,0.0,0.0,0.0,0.0,0.0,0.0,0.0,0.0,0.0,0.0,0.0,0.0,0.0,0.0,0.0,0.0,0.0,0.0,0.0,0.0,0.0,0.0,0.0,0.0,0.0,0.0,0.0,0.0,-2.482,-2.5787,-2.6533,-2.6533,-2.6533,-2.6533,-2.6533,-2.6533,-2.5859,-2.4267,0.0,0.0,0.0,0.0,0.0,0.0,0.0,0.0,0.0,0.0,0.0,0.0,0.0,0.0,0.0,0.0,0.0,0.0,0.0,0.0,0.0,0.0,0.0,0.0,0.0,0.0,0.0,0.0,0.0,0.0,0.0,0.0,0.0,0.0,0.0,0.0,0.0,0.0,0.0,0.0,0.0,0.0,0.0,0.0,0.0,0.0,0.0,0.0,0.0,0.0,0.0,0.0,0.0,0.0,0.0,0.0,0.0,0.0,0.0,0.0,-3.5622,0.0,0.0,0.0,0.0,0.0,0.0,0.0,0.0,0.0,0.0,0.0,0.0,0.0,0.0,0.0,0.0,0.0,0.0,0.0,0.0,0.0,0.0,0.0,0.0,0.0,0.0,0.0,0.0,0.0,0.0,0.0,0.0,0.0,0.0,0.0,0.0,0.0,0.0,0.0,0.0,0.0,-2.482,-2.5787,-2.6533,-2.6533,-2.6533,-2.6533,-2.6533,-2.6533,-2.5859,-2.4267,-2.327,0.0,0.0,0.0,0.0,0.0,0.0,0.0,0.0,0.0,0.0,0.0,0.0,0.0,0.0,0.0,0.0,0.0,0.0,0.0,0.0,0.0,0.0,0.0,0.0,0.0,0.0,0.0,0.0,0.0,0.0,0.0,0.0,0.0,0.0,0.0,0.0,0.0,0.0,0.0,0.0,0.0,0.0,0.0,0.0,0.0,0.0,0.0,0.0,0.0,0.0,0.0,0.0,0.0,0.0,0.0,0.0,0.0,0.0,0.0,0.0,-3.5622,0.0,0.0,0.0,0.0,0.0,0.0,0.0,0.0,0.0,0.0,0.0,0.0,0.0,0.0,0.0,0.0,0.0,0.0,0.0,0.0,0.0,0.0,0.0,0.0,0.0,0.0,0.0,0.0,0.0,0.0,0.0,0.0,0.0,0.0,0.0,0.0,0.0,0.0,0.0,0.0,-2.482,-2.5787,-2.6533,-2.6533,-2.6533,-2.6533,-2.6533,-2.6094,-2.525,-2.3954,-2.2778,0.0,0.0,0.0,0.0,0.0,0.0,0.0,0.0,0.0,0.0,0.0,0.0,0.0,0.0,0.0,0.0,0.0,0.0,0.0,0.0,0.0,0.0,0.0,0.0,0.0,0.0,0.0,0.0,0.0,0.0,0.0,0.0,0.0,0.0,0.0,0.0,0.0,0.0,0.0,0.0,0.0,0.0,0.0,0.0,0.0,0.0,0.0,0.0,0.0,0.0,0.0,0.0,0.0,-3.5502,-3.5404,-3.5561,-3.5564,-3.5622,-3.5622,-3.5622,-3.5622,-3.5622,-3.5622,0.0,0.0,0.0,0.0,0.0,0.0,0.0,0.0,0.0,0.0,0.0,0.0,0.0,0.0,0.0,0.0,0.0,0.0,0.0,0.0,0.0,0.0,0.0,0.0,-2.6533,-2.6533,0.0,0.0,0.0,0.0,0.0,0.0,0.0,0.0,0.0,0.0,0.0,0.0,-2.4946,-2.5837,-2.6533,-2.6533,-2.6533,-2.6533,-2.6533,-2.5594,-2.4564,-2.3588,-2.2271,-2.1182,0.0,0.0,0.0,0.0,0.0,0.0,0.0,0.0,0.0,0.0,0.0,0.0,0.0,0.0,0.0,0.0,0.0,0.0,0.0,0.0,0.0,0.0,0.0,0.0,0.0,0.0,0.0,0.0,0.0,0.0,0.0,0.0,-3.3807,-3.3807,0.0,0.0,0.0,0.0,0.0,0.0,0.0,0.0,0.0,0.0,0.0,0.0,0.0,-3.544,-3.6285,-3.6227,-3.6527,-3.7204,-3.6274,-3.6191,-3.6917,-3.6002,-3.5622,-3.5622,-3.5622,0.0,-3.5622,-3.5622,0.0,0.0,0.0,0.0,0.0,0.0,0.0,0.0,0.0,0.0,0.0,0.0,0.0,0.0,0.0,0.0,0.0,0.0,0.0,0.0,0.0,0.0,-2.6533,-2.6533,-2.6533,-2.6533,0.0,-2.6533,-2.6382,-2.5799,-2.5598,0.0,0.0,0.0,0.0,0.0,0.0,0.0,-2.5435,-2.6063,-2.6533,-2.6533,-2.6533,-2.6533,-2.6533,-2.5594,-2.4564,-2.3588,-2.2499,-2.1347,-2.0085,-2.0254,0.0,0.0,0.0,0.0,0.0,0.0,0.0,0.0,0.0,0.0,0.0,0.0,0.0,0.0,0.0,0.0,0.0,0.0,0.0,0.0,0.0,0.0,0.0,0.0,0.0,0.0,0.0,0.0,0.0,-3.3421,-3.3353,-3.3938,-3.4018,-3.4093,0.0,0.0,0.0,0.0,0.0,0.0,0.0,0.0,0.0,-3.4321,-3.4752,-3.5174,-3.5569,-3.6064,-3.6468,-3.6817,-3.6522,-3.6381,-3.6481,-3.6167,-3.5898,-3.5622,-3.5622,-3.5622,-3.5622,-3.5622,-3.5622,-3.5577,0.0,0.0,0.0,0.0,-3.2461,-3.1482,-3.1482,-3.1228,0.0,-3.0956,0.0,0.0,0.0,0.0,0.0,0.0,0.0,0.0,0.0,0.0,-2.6533,-2.6533,-2.6533,-2.6533,-2.6533,-2.6533,-2.6445,0.0,-2.5824,-2.536,-2.4594,0.0,0.0,0.0,0.0,-2.5335,-2.5573,-2.6101,-2.6533,-2.6533,-2.6533,-2.6245,-2.5734,-2.4707,-2.3745,-2.2702,-2.1745,-2.0921,-2.0283,-2.0225,-2.0137,0.0,0.0,0.0,0.0,0.0,0.0,0.0,0.0,0.0,0.0,0.0,0.0,0.0,0.0,0.0,0.0,0.0,0.0,0.0,0.0,0.0,0.0,0.0,0.0,0.0,0.0,0.0,0.0,-3.3386,-3.3346,-3.4213,-3.4195,-3.4218,0.0,0.0,0.0,0.0,0.0,0.0,-3.3788,-3.4009,-3.4119,-3.4119,-3.4908,-3.5349,-3.5349,-3.6174,-3.6597,-3.6615,-3.688,-3.6736,-3.6231,-3.6342,-3.6097,-3.5622,-3.5622,-3.5622,-3.5622,-3.5622,-3.5622,-3.5577,-3.5407,-3.4657,-3.3582,-3.3391,-3.2555,-3.1482,-3.1482,-3.1195,-3.0776,-3.0776,0.0,-2.9687,-2.936,0.0,0.0,0.0,0.0,-2.6533,-2.6533,-2.6533,-2.6533,-2.6533,-2.6533,-2.6533,-2.6533,-2.6533,-2.6533,0.0,-2.6113,-2.5649,-2.5109,0.0,0.0,0.0,0.0,-2.5649,-2.5799,-2.6189,-2.6533,-2.6533,-2.6245,-2.5804,-2.5075,-2.3818,-2.2776,-2.2027,-2.1155,-2.0566,-2.0566,-2.0254,-2.0185,-2.0391,0.0,0.0,0.0,0.0,0.0,0.0,0.0,0.0,0.0,0.0,0.0,0.0,0.0,0.0,0.0,0.0,0.0,0.0,0.0,0.0,0.0,0.0,0.0,0.0,0.0,0.0,0.0,0.0,0.0,-3.4614,-3.4184,0.0,0.0,0.0,0.0,-3.3842,-3.4043,-3.4068,-3.3815,-3.4523,-3.4935,-3.4935,-3.5789,-3.6229,-3.6229,-3.7037,-3.7452,-3.7422,-3.7697,-3.7596,-3.712,-3.6626,-3.6097,-3.5622,-3.5622,-3.5622,-3.5622,-3.5622,-3.5622,-3.5532,-3.4894,-3.4235,-3.3547,-3.2895,-3.216,-3.1482,-3.1482,-3.1452,-3.1422,-3.1422,-3.0896,-3.0107,-2.9261,-2.84,0.0,0.0,-2.6521,-2.6533,-2.6533,-2.6533,-2.6533,-2.6533,-2.6533,-2.6533,-2.6533,-2.6533,-2.6533,0.0,-2.6508,-2.6239,-2.5649,0.0,-2.5548,-2.5523,-2.5561,-2.5799,-2.6352,-2.6508,-2.6533,-2.6533,-2.5664,-2.5075,-2.5004,-2.322,-2.2027,-2.2027,-2.1155,-2.0566,-2.0566,-2.0547,-2.0352,-1.9951,-1.9922,0.0,0.0,0.0,0.0,0.0,0.0,0.0,0.0,0.0,0.0,0.0,0.0,0.0,0.0,0.0,0.0,0.0,0.0,0.0,0.0,0.0,0.0,0.0,0.0,0.0,0.0,0.0,0.0,-3.4597,-3.4655,0.0,-3.5015,-3.4888,-3.4675,-3.4398,-3.4787,-3.4909,-3.4578,-3.5385,-3.5844,-3.5844,-3.6633,-3.7055,-3.7055,-3.7863,-3.8267,-3.8267,-3.8368,-3.7998,-3.7173,-3.6981,-3.644,-3.5622,-3.5622,-3.5622,-3.5622,-3.5622,-3.5622,-3.5577,-3.5362,-3.4544,-3.3582,-3.3339,-3.2516,-3.1482,-3.1482,-3.124,-3.0806,-3.0402,-3.0369,-3.025,-2.9457,-2.8886,-2.8363,-2.7484,-2.6905,-2.6533,-2.6533,-2.6533,-2.6533,-2.6533,-2.6533,-2.6533,-2.6533,-2.6533,-2.6533,-2.6533,-2.6533,-2.6276,-2.5699,-2.59,-2.6025,-2.5649,-2.5912,-2.6226,-2.6496,-2.6533,-2.6233,-2.5594,-2.5229,-2.4492,-2.3147,-2.2403,-2.1735,-2.1155,-2.0789,-2.0566,-2.0566,-2.0566,-2.0498,-2.0332,-2.0332,-2.0059,0.0,0.0,0.0,0.0,0.0,0.0,0.0,0.0,0.0,0.0,0.0,0.0,0.0,0.0,0.0,0.0,0.0,0.0,0.0,0.0,0.0,0.0,0.0,0.0,0.0,0.0,-3.4033,-3.4868,-3.4963,-3.5166,-3.5718,-3.5608,-3.5531,-3.5546,-3.5841,-3.5901,-3.5578,-3.6297,-3.6688,-3.6688,-3.7477,-3.79,-3.79,-3.8432,-3.8707,-3.8707,-3.8707,-3.8313,-3.758,-3.758,-3.6986,-3.6011,-3.6011,-3.5859,-3.5622,-3.5622,-3.5622,-3.5622,-3.5622,-3.4752,-3.3582,-3.3582,-3.2718,-3.1482,-3.1482,-3.124,-3.0791,-3.0372,-3.0507,-3.0609,-2.9516,-2.9119,-2.8748,-2.7604,-2.6905,-2.6533,-2.6533,-2.6533,-2.6533,-2.6533,-2.6533,-2.6533,-2.6533,-2.6533,-2.6533,-2.6533,-2.6533,-2.6339,-2.595,-2.6214,-2.6183,-2.5326,-2.5654,-2.5812,-2.5338,-2.539,-2.5217,-2.4564,-2.4192,-2.3441,-2.2103,-2.159,-2.106,-2.0634,-2.043,-2.041,-2.0557,-2.042,-2.0342,-2.0342,-2.0342,-1.9907,-1.8965,0.0,0.0,0.0,0.0,0.0,0.0,0.0,0.0,0.0,0.0,0.0,0.0,0.0,0.0,0.0,0.0,0.0,0.0,0.0,0.0,0.0,0.0,0.0,-3.5051,-3.5105,-3.5226,-3.5484,-3.5072,-3.5192,-3.6249,-3.6342,-3.6577,-3.7177,-3.7171,-3.7036,-3.6764,-3.7248,-3.7544,-3.7544,-3.8285,-3.8707,-3.8707,-3.8707,-3.8707,-3.8707,-3.8707,-3.8552,-3.8284,-3.8267,-3.7718,-3.6785,-3.6785,-3.6315,-3.5622,-3.5622,-3.5622,-3.5622,-3.5622,-3.4752,-3.3582,-3.3582,-3.2718,-3.1482,-3.1482,-3.1482,-3.1482,-3.1482,-3.1467,-3.1161,-2.9504,-2.9002,-2.862,-2.6973,-2.6533,-2.6533,-2.6533,-2.6533,-2.6533,-2.6533,-2.6533,-2.6533,-2.6533,-2.6533,-2.6533,-2.6533,-2.6533,-2.6533,-2.6533,-2.6533,-2.5977,-2.4554,-2.473,0.0,-2.31,-2.3234,-2.3514,-2.343,-2.2531,-2.1931,-2.1941,-2.0657,-2.0098,-2.0537,-2.0166,-2.0127,-2.0547,-2.0156,-1.9932,-1.9932,-1.9932,-1.9393,-1.8303,0.0,0.0,0.0,0.0,0.0,0.0,0.0,0.0,0.0,0.0,0.0,0.0,0.0,0.0,0.0,0.0,0.0,0.0,0.0,0.0,0.0,0.0,-3.5239,-3.5122,-3.5105,-3.5331,-3.599,-3.6135,-3.6508,-3.7437,-3.7529,-3.7526,-3.749,-3.8004,-3.8102,-3.7604,-3.8255,-3.8561,-3.8358,-3.8579,-3.8707,-3.8707,-3.8707,-3.8707,-3.8707,-3.8707,-3.846,-3.8008,-3.766,-3.7119,-3.6509,-3.6106,-3.5808,-3.5622,-3.5622,-3.5622,-3.5622,-3.5622,-3.4752,-3.3582,-3.3582,-3.2718,-3.1482,-3.1482,-3.1482,-3.1482,-3.1482,-3.1087,-3.045,-2.9317,-2.8556,-2.7868,-2.6782,-2.6533,-2.6533,-2.6533,-2.6533,-2.6533,-2.6533,-2.6533,-2.6533,-2.6533,-2.6533,-2.6533,-2.6533,-2.6533,-2.6533,-2.6533,-2.6533,-2.6114,-2.4943,-2.4909,0.0,-2.3492,-2.3436,-2.3088,-2.2091,-2.1765,-2.1248,-2.0522,-2.0121,-2.0098,-2.0537,-2.0449,-2.0439,-2.0557,-2.0449,-2.0391,-2.0391,-2.0391,-1.982,0.0,0.0,0.0,0.0,0.0,0.0,0.0,0.0,0.0,0.0,0.0,0.0,0.0,0.0,0.0,0.0,0.0,0.0,0.0,0.0,0.0,0.0,-3.4603,-3.5561,-3.5729,-3.5771,-3.5943,-3.6419,-3.6934,-3.7584,-3.845,-3.8546,-3.8616,-3.8791,-3.9127,-3.9119,-3.8646,-3.8917,-3.8971,-3.8707,-3.8707,-3.8707,-3.8707,-3.8707,-3.8707,-3.8707,-3.8707,-3.8597,-3.8346,-3.7877,-3.7356,-3.6842,-3.6348,-3.5926,-3.5622,-3.5622,-3.5622,0.0,0.0,0.0,0.0,0.0,-3.2201,-3.1482,-3.1482,-3.1482,-3.1482,-3.1482,-3.097,-3.0133,-2.9254,-2.8363,-2.755,-2.6714,-2.6533,-2.6533,-2.6533,-2.6533,-2.6533,-2.6533,-2.6533,-2.6458,-2.6151,-2.6101,-2.6038,-2.5812,-2.595,0.0,-2.561,-2.6083,-2.5938,-2.4343,-2.4281,-2.3822,-2.221,-2.2147,-2.1943,-2.1169,-2.1063,-2.0848,-2.0262,-2.0019,0.0,0.0,0.0,-2.0293,-2.0293,-2.0293,0.0,0.0,0.0,-2.0087,-1.9111,0.0,0.0,0.0,-1.75,-1.7621,0.0,0.0,0.0,0.0,0.0,0.0,0.0,0.0,0.0,0.0,0.0,0.0,0.0,0.0,0.0,0.0,-3.5007,-3.5892,-3.6603,-3.6873,-3.6988,-3.6988,-3.768,-3.8488,-3.9354,-3.9431,-3.9719,-4.045,-4.0286,-3.9983,-3.9668,0.0,0.0,0.0,0.0,-3.8707,-3.8707,-3.8707,-3.8707,-3.8707,-3.8707,-3.8798,-3.894,-3.8429,-3.794,-3.7446,-3.6921,-3.6265,-3.5622,-3.5622,-3.5622,-3.5577,-3.5424,-3.4657,-3.3427,-3.1992,-3.1482,-3.1482,-3.1482,0.0,0.0,-3.1482,-3.0896,-3.0011,-2.9254,-2.8298,-2.7417,-2.6714,-2.6533,-2.6533,-2.6533,-2.6533,-2.6508,-2.6377,-2.6433,-2.6214,-2.5636,-2.5511,-2.5372,-2.4908,-2.5197,-2.5232,-2.4273,-2.5343,-2.5563,-2.3157,-2.31,-2.255,-2.0256,-2.0322,-2.0547,-2.0498,0.0,0.0,-2.0498,-2.0137,-2.0098,-2.0537,-2.0205,-1.999,-1.999,-1.999,-1.999,-1.999,-2.0469,-2.0404,-1.9688,-2.04,-2.0254,-1.9356,-1.8537,-1.8407,0.0,0.0,0.0,0.0,0.0,0.0,0.0,0.0,0.0,0.0,0.0,0.0,0.0,0.0,0.0,-3.4115,-3.5488,-3.6526,-3.668,-3.7911,-3.8796,-3.8796,-3.895,-3.9373,-4.0181,-4.0258,-4.0315,-4.0489,-4.0457,-4.0302,-4.0022,-3.9709,-3.9358,-3.9036,-3.8815,-3.8707,-3.8707,-3.8707,-3.8707,-3.8707,0.0,0.0,-3.8734,-3.7828,-3.7365,-3.721,-3.6233,-3.5757,-3.5622,-3.5622,-3.5622,-3.547,-3.4399,-3.3836,-3.3427,-3.1992,-3.1482,-3.1482,-3.1482,-3.1482,-3.1482,-3.1482,-3.0464,-2.9192,-2.9066,-2.792,0.0,-2.6521,-2.6533,-2.6533,-2.6533,-2.6533,-2.6408,-2.5875,-2.5762,-2.5611,-2.5084,-2.4971,-2.4946,-2.4845,-2.4895,-2.4685,-2.3802,-2.4594,-2.4601,-2.2509,-2.2275,-2.1855,-2.0594,-2.0508,-2.043,-2.0078,-2.0039,-2.0039,-2.0039,-1.9961,-2.0098,-2.0537,-2.0488,-2.0439,-2.0439,-2.0439,-2.0439,-2.0439,-2.1221,-2.1066,-1.9919,-2.0797,-2.1096,-2.0909,-2.0669,-1.9608,0.0,0.0,0.0,0.0,0.0,0.0,0.0,0.0,0.0,0.0,0.0,-3.2409,0.0,0.0,-3.4314,-3.5282,-3.6161,-3.7007,-3.7873,-3.8738,-3.9296,-3.9296,-3.9662,-4.0046,-4.045,-4.0489,-4.0489,-4.0489,-4.0489,-4.0372,-4.012,-3.9775,-3.9457,-3.9125,-3.8844,-3.8707,-3.8707,-3.8707,-3.8707,-3.8707,-3.8707,-3.8707,-3.8676,-3.7667,-3.719,-3.7135,-3.6054,-3.5622,-3.5622,-3.5622,-3.5622,-3.547,-3.4137,-3.3582,-3.3427,-3.1992,-3.1482,-3.1482,-3.1482,-3.1482,-3.1482,-3.1482,-3.0389,-2.9002,-2.9002,-2.7868,-2.6533,-2.6533,-2.6533,-2.6533,-2.6533,-2.6251,-2.595,-2.5661,-2.5398,-2.5059,-2.4531,-2.4406,-2.4318,-2.4029,-2.3864,-2.3458,-2.2492,-2.2651,-2.2661,-2.1808,-2.188,-2.1659,-2.0712,-2.0566,-2.0478,-2.0264,-2.0244,-2.0244,-2.0244,-2.0244,-2.0332,-2.0557,-2.0566,-2.0566,-2.0566,-2.0566,-2.0566,-2.0566,-2.0828,-2.0643,-2.0027,-2.0289,-2.0666,-2.1293,-2.0666,-1.9761,0.0,0.0,0.0,0.0,0.0,0.0,0.0,0.0,-3.1651,-3.2311,-3.2768,-3.3287,-3.4002,-3.4309,-3.4949,-3.6469,-3.6853,-3.7507,-3.9084,-3.9431,-3.9527,-3.9527,-4.0104,-4.0489,-4.0489,-4.0489,-4.0489,-4.0489,-4.0489,-4.0425,-4.0177,-3.9819,-3.9481,-3.9231,-3.8855,-3.8707,-3.8707,-3.8707,-3.8707,-3.8707,-3.8707,-3.8707,-3.8676,-3.7667,-3.719,-3.7135,-3.6054,-3.5622,-3.5622,-3.5622,-3.5622,-3.547,-3.4137,-3.3582,-3.3427,-3.1992,-3.1482,-3.1482,-3.1482,-3.1482,-3.1482,-3.1482,-3.0464,-2.9192,-2.9066,-2.792,-2.6714,-2.6521,-2.6533,-2.6533,-2.6533,-2.6025,-2.5573,-2.5473,-2.5046,-2.4506,-2.3954,-2.3704,-2.343,-2.2971,-2.2537,-2.1969,-2.0975,-2.0705,-2.0705,-2.0938,-2.1321,-2.1318,-2.0584,-2.0508,-2.0566,-2.0566,-2.0566,-2.0566,-2.0566,-2.0566,-2.0566,-2.0566,-2.0566,-2.0566,-2.0566,-2.0566,-2.0489,-2.0323,-2.0136,-1.9858,-1.9689,-1.958,-2.0034,-2.0935,-1.967,-1.9314,-2.8497,-2.9264,-3.0428,-3.136,-3.16,-3.2062,0.0,0.0,-3.345,-3.4505,-3.4785,-3.4923,-3.5244,-3.5339,-3.5661,-3.6546,-3.7353,-3.818,-3.9161,-3.9912,-4.0354,-4.0354,-4.045,-4.0489,-4.0489,-4.0489,-4.0489,-4.0489,-4.0489,-4.0489,-4.0457,-3.9905,-3.9576,-3.9552,-3.8998,-3.8707,-3.8707,-3.8707,-3.8707,-3.8707,-3.8707,-3.8707,-3.8676,-3.7667,-3.719,-3.7135,-3.6054,-3.5622,-3.5622,-3.5622,-3.5622,-3.547,-3.4137,-3.3582,-3.3427,-3.1992,-3.1482,-3.1482,-3.1482,-3.1482,-3.1482,-3.1482,-3.0896,-3.0011,-2.9254,-2.8298,-2.7417,-2.6714,-2.6533,-2.6533,-2.6533,-2.6025,-2.5473,-2.5021,-2.4494,-2.3941,-2.3364,-2.2665,-2.2135,-2.2075,-2.1411,-2.054,-1.9637,-1.975,-1.9864,-1.9568,-1.9856,-2.0131,-1.998,-2.0322,-2.0566,-2.0566,-2.0566,-2.0566,-2.0566,-2.0566,-2.0566,-2.0566,-2.0566,-2.0566,-2.0566,-2.0566,-2.0157,-1.9204,-1.9723,-1.9519,-1.8587,-1.9231,-1.9588,-1.967,-1.8503,-1.8503,-3.0753,-3.0974,-3.1399,0.0,-3.2838,-3.3177,-3.3999,-3.4025,-3.4085,-3.4914,-3.5223,-3.5369,-3.5479,-3.5892,-3.6469,0.0,-3.818,-3.9046,-3.9873,-4.0277,-4.0489,-4.0489,-4.0489,-4.0489,-4.0489,-4.0489,-4.0489,-4.0489,-4.0489,-4.0489,-4.0489,-4.0101,-3.9797,-3.9599,-3.9189,-3.8855,-3.8707,-3.8707,-3.8707,-3.8707,-3.8707,-3.8707,-3.8676,-3.7667,-3.6865,-3.6232,-3.5766,-3.5622,-3.5622,-3.5622,-3.5622,-3.547,-3.4137,-3.3582,-3.3427,-3.1992,-3.1482,-3.1482,-3.1482,-3.1482,-3.1482,-3.1482,-3.0584,-2.9504,-2.9129,-2.8051,-2.6905,-2.6589,-2.6533,-2.6533,-2.6533,-2.5799,-2.5096,-2.487,-2.4142,-2.3427,-2.3128,-2.2823,-2.2445,-2.2002,-2.1175,-2.0333,-1.9431,-1.9008,-1.8724,-1.8586,-1.9121,-1.9551,-1.9551,-1.9922,-2.0283,-2.0537,-2.0566,-2.0566,-2.0566,-2.0566,-2.0566,-2.0566,-2.0566,-2.0566,-2.0566,-2.0566,-2.0079,-1.9036,-1.8841,-1.8286,-1.7375,-1.7153,-1.7574,-1.8411,-1.7217,-1.7217,-3.1875,0.0,0.0,-3.3166,-3.384,-3.418,-3.4244,-3.4423,-3.4677,-3.5124,-3.5369,-3.5493,-3.5493,-3.6161,-3.6988,-3.7853,-3.8719,-3.9565,-4.0392,-4.0489,-4.0489,-4.0489,-4.0489,-4.0489,-4.0489,-4.0489,-4.0489,-4.0489,-4.0489,-4.0489,-4.0489,-4.0251,-4.0002,-3.9754,-3.9314,-3.9027,-3.8833,-3.875,-3.8707,-3.8707,-3.8707,-3.8707,-3.8676,-3.7667,-3.6586,-3.5622,-3.5622,-3.5622,-3.5622,-3.5622,-3.5622,-3.547,-3.4137,-3.3582,-3.3427,-3.1992,-3.1482,-3.1482,-3.1482,-3.1482,-3.1482,-3.1482,-3.0524,-2.9317,-2.9066,-2.7986,-2.6782,-2.6589,-2.6533,-2.6533,-2.6533,-2.5636,-2.482,-2.482,-2.3966,-2.3078,-2.3078,-2.275,-2.2249,-2.1678,-2.0655,-1.9694,-1.9044,-1.8395,-1.8008,-1.8008,-1.8535,-1.8975,-1.9092,-1.958,-2.0029,-2.0352,-2.0498,-2.0566,-2.0566,-2.0566,-2.0566,-2.0566,-2.0566,-2.0489,-2.0157,-2.0157,-1.9511,-1.8141,-1.7606,-1.6955,-1.6168,-1.5602,-1.6003,-1.7131,-1.6204,-1.6292,0.0,0.0,-3.139,-3.3306,-3.4433,-3.5128,-3.5397,-3.5455,-3.5455,-3.5474,-3.5493,-3.5493,-3.5493,-3.6161,-3.6988,-3.7853,-3.8719,-3.9565,-4.0392,-4.0489,-4.0489,-4.0489,-4.0489,-4.0489,0.0,-4.0489,-4.0489,-4.0489,-4.0489,-4.0489,-4.0489,-4.0251,-4.0101,-4.0081,-3.9438,-3.9099,-3.9099,-3.8815,-3.8707,-3.8707,-3.8707,-3.8707,-3.8676,-3.7667,-3.6586,-3.5622,-3.5622,-3.5622,-3.5622,-3.5622,-3.5622,-3.547,-3.4137,-3.3582,-3.3427,-3.1992,-3.1482,-3.1482,-3.1482,-3.1482,-3.1482,-3.1482,-3.097,-3.0072,-2.9254,-2.8363,-2.7484,-2.6714,-2.6533,-2.6533,-2.6533,-2.5636,-2.482,-2.482,-2.3966,-2.3078,-2.3078,-2.1803,-2.0655,-2.0655,-1.9233,-1.8076,-1.8008,-1.8008,-1.8008,-1.8008,-1.8037,-1.8193,-1.8603,-1.9394,-1.9922,-1.9932,-2.0312,-2.0566,-2.0566,-2.0566,-2.0566,-2.0566,-2.0566,-2.0157,-1.9116,-1.9045,-1.806,-1.5861,-1.6017,-1.5756,-1.5053,-1.5257,-1.5545,-1.5832,-1.5825,-1.5825,0.0,0.0,-3.3128,-3.4347,-3.5018,-3.5378,-3.5474,-3.5493,-3.5493,-3.5493,-3.5045,-3.4641,-3.4641,-3.5776,-3.6796,-3.7084,-3.8796,-4.0207,-4.0584,-4.0636,-4.0636,-4.0682,-4.0672,0.0,0.0,0.0,0.0,-4.0489,-4.0489,-4.0489,-4.0489,-4.0406,-4.0267,-4.0101,-3.9668,-3.9314,-3.908,-3.8844,-3.8707,-3.8707,-3.835,-3.7998,-3.7667,-3.6999,-3.6291,-3.5622,-3.5622,-3.5622,-3.5622,-3.5622,-3.5362,-3.4847,-3.3937,-3.3339,-3.2841,-3.1838,-3.1482,-3.1482,-3.1482,-3.1482,-3.1409,-3.0896,-3.0133,-2.9254,-2.8427,-2.7537,-2.685,-2.6589,-2.6533,-2.6533,-2.6533,-2.5636,-2.482,-2.482,-2.3966,-2.2944,-2.2445,-2.1877,-2.1101,-1.9944,-1.9243,-1.8654,-1.8076,-1.8008,-1.8008,-1.8008,-1.8008,-1.8164,-1.8584,-1.8887,-1.9287,-1.9853,-2.0049,-2.0254,-2.0537,-2.0566,-2.0566,-2.0566,-1.9923,-1.9362,-1.9036,-1.831,-1.7172,-1.5703,-1.5808,-1.5447,-1.4669,-1.4963,-1.5257,-1.5545,-1.5738,-1.5832,0.0,-3.2772,-3.3757,-3.4952,-3.5359,-3.5493,-3.5493,-3.5493,-3.5493,-3.5493,-3.4814,-3.4199,-3.4199,-3.5565,-3.6598,-3.6357,-3.8452,-4.0146,-4.0283,-4.0537,-4.0869,-4.1221,-4.1228,-4.1188,0.0,0.0,0.0,-4.0504,-4.0489,-4.0489,-4.0489,-4.0489,-4.0406,-4.025,-3.9821,-3.9505,-3.9264,-3.8884,-3.8707,-3.8707,-3.815,-3.7649,-3.7173,-3.6643,-3.6097,-3.5622,-3.5622,-3.5622,-3.5622,-3.5622,-3.5207,-3.4528,-3.3836,-3.3182,-3.2492,-3.1796,-3.1482,-3.1482,-3.1482,-3.1482,-3.1409,-3.0896,-2.995,-2.8876,-2.8298,-2.7417,-2.6533,-2.6533,-2.6533,-2.6533,-2.6533,-2.5636,-2.482,-2.482,-2.3966,-2.2944,-2.2445,-2.1877,-2.1101,-2.0009,-1.9243,-1.8654,-1.8076,-1.8008,-1.8008,-1.8008,-1.8008,-1.8105,-1.8379,-1.8545,-1.8848,-1.9394,-1.9736,-2.0029,-2.0312,-2.0478,-2.0566,-2.0566,-1.9923,-1.9204,-1.839,-1.7666,-1.6609,-1.5137,-1.5137,-1.4881,-1.4522,-1.471,-1.501,-1.5398,-1.5585,-1.5732,-3.3268,-3.3537,-3.3306,-3.5007,-3.543,-3.5449,-3.5474,-3.5493,-3.5488,-3.5449,-3.4737,-3.4122,0.0,0.0,-3.6408,-3.5715,-3.7777,-3.9517,-3.9649,-4.0354,-4.1179,0.0,0.0,0.0,0.0,0.0,0.0,-4.0519,0.0,-4.0489,-4.0489,-4.0489,-4.0489,-4.0489,-3.9925,-3.9622,-3.9599,-3.8998,-3.8707,-3.8707,-3.815,-3.7649,-3.7173,-3.6643,-3.6097,-3.5622,-3.5622,-3.5622,-3.5622,-3.5622,-3.5191,-3.4479,-3.3836,-3.3198,-3.2437,-3.1739,-3.1482,-3.1482,-3.1482,-3.1482,-3.1482,-3.1409,-3.0329,-2.9002,-2.8876,-2.7736,-2.6533,-2.6533,-2.6533,-2.6533,-2.6533,-2.5636,-2.482,-2.482,-2.3966,-2.3078,-2.3005,-2.1729,-2.059,-2.0462,-1.911,-1.8008,-1.8008,-1.8008,-1.8008,-1.8008,-1.8008,-1.8008,-1.8008,-1.8359,-1.8613,-1.8562,-1.9365,-1.9863,-1.9912,-2.0293,-2.0459,-2.0489,-2.0401,-1.9432,-1.7334,-1.718,-1.6206,-1.4173,-1.4088,-1.4222,-1.4496,-1.4509,-1.4816,-1.5378,-1.5391,-1.5551,-3.2211,-3.2702,-3.3231,-3.4257,-3.4526,-3.4699,-3.5353,-3.5493,-3.5334,-3.4661,-3.3833,-3.3045,0.0,0.0,0.0,-3.556,-3.824,0.0,-4.0485,-4.1331,0.0,-4.2292,0.0,-4.2968,-4.2305,-4.1907,0.0,0.0,-4.0559,-4.0489,-4.0489,-4.0489,-4.0489,-4.0489,-4.0157,-3.984,-3.9599,-3.8998,-3.8707,-3.8707,-3.815,-3.7649,-3.7173,-3.6643,-3.6097,-3.5622,-3.5622,-3.5622,-3.5622,-3.5622,-3.4911,-3.3836,-3.3684,-3.2864,-3.1739,-3.1582,-3.1482,-3.1482,-3.1482,-3.1482,-3.1278,-3.0011,-2.938,-2.8748,-2.755,-2.685,-2.6533,-2.6533,-2.6533,-2.6533,-2.6533,-2.5636,-2.482,-2.482,-2.3966,-2.2763,-2.1479,-2.091,-2.0204,-1.8921,-1.8269,-1.8008,-1.8008,-1.8008,-1.8008,-1.8008,-1.8008,-1.8008,-1.8008,-1.8105,-1.8291,-1.8603,-1.8838,-1.9219,-1.9863,-1.9316,-1.9031,-1.9423,-1.7891,-1.6675,-1.6108,-1.5304,-1.4657,-1.4088,-1.4088,-1.4122,-1.4202,-1.4416,-1.471,-1.5077,-1.5297,-1.5551,-3.2355,-3.2724,-3.3114,-3.3569,-3.3947,-3.4218,-3.4334,-3.4661,-3.468,-3.3814,-3.2968,0.0,-3.1775,0.0,0.0,0.0,0.0,0.0,-4.0318,-4.1484,-4.2493,0.0,-4.3707,0.0,-4.2995,-4.2403,-4.1684,0.0,-4.059,-4.0489,-4.0489,-4.0489,-4.0489,-4.0489,-4.0232,-3.988,-3.9408,-3.8913,-3.8707,-3.8707,-3.815,-3.7649,-3.7173,-3.6643,-3.6097,-3.5622,0.0,-3.5622,-3.5622,-3.5622,-3.4816,-3.3582,-3.3582,-3.2718,-3.1482,-3.1482,-3.1482,-3.1482,-3.1482,-3.1482,-3.1278,-3.0011,-2.9317,-2.8748,-2.7417,-2.6782,-2.6533,-2.6533,-2.6533,-2.6471,-2.6151,-2.5448,-2.4757,-2.4519,-2.3455,-2.2322,-2.1365,-2.059,-1.9628,-1.8269,-1.8008,-1.8008,-1.8008,-1.8008,-1.8008,-1.8008,-1.8008,-1.8008,-1.8008,-1.8008,-1.8105,-1.833,-1.8455,-1.8906,-1.958,-1.8805,-1.8533,-1.893,-1.7334,-1.6191,-1.5696,-1.5137,-1.4573,-1.4088,-1.4088,-1.4088,-1.4088,-1.4249,-1.4482,-1.4776,-1.507,-1.5357,-3.3084,-3.2995,-3.2703,-3.2811,-3.3437,-3.3833,-3.3064,-3.3564,-3.391,-3.2949,0.0,-3.166,-3.1545,-3.3519,-3.5014,-3.4543,0.0,-3.9533,-3.9804,-4.1318,-4.2676,-4.3437,-4.4297,-4.4492,-4.3613,-4.2661,-4.1743,-4.0879,-4.0604,-4.0489,-4.0489,-4.0489,-4.0489,-4.0489,-4.0195,-3.9735,-3.916,-3.8873,-3.8707,-3.8707,-3.8216,-3.7773,-3.7303,-3.6764,-3.6207,-3.5694,-3.5622,0.0,-3.5622,-3.5622,-3.4864,-3.3735,-3.3633,-3.2826,-3.164,-3.1539,-3.1482,-3.1482,-3.1482,-3.1482,-3.1351,-3.045,-2.9628,-2.8812,-2.7868,-2.704,-2.6533,-2.6533,-2.6533,-2.6327,-2.5749,-2.5209,-2.4682,-2.413,-2.2984,-2.2002,-2.1939,-2.0526,-1.9044,-1.8134,-1.8008,-1.8008,-1.8008,-1.8008,-1.8008,-1.8008,-1.8008,-1.8008,-1.8008,-1.8008,-1.8008,-1.8008,-1.833,-1.866,-1.9015,-1.8357,-1.8133,-1.8453,-1.7471,-1.6445,-1.5538,-1.5462,-1.5054,-1.4088,-1.4088,-1.4088,-1.4088,-1.4088,-1.4235,-1.4529,-1.4783,-1.5084,-3.3262,-3.2189,-3.1169,-3.1842,-3.2566,-3.3083,-3.2929,-3.3564,0.0,0.0,-3.1795,-3.1487,-3.0756,-3.2158,-3.3843,-3.5079,0.0,0.0,0.0,0.0,-4.2461,0.0,0.0,0.0,0.0,0.0,0.0,0.0,0.0,-4.0489,-4.0489,-4.0489,-4.0489,-4.0489,-3.9964,-3.9622,-3.951,-3.897,-3.8707,-3.8707,-3.8627,-3.8267,-3.7755,-3.7285,-3.6764,-3.6224,-3.5783,0.0,-3.5622,-3.5622,-3.5161,-3.4382,-3.3836,-3.313,-3.2327,-3.1739,-3.1482,-3.1482,-3.1482,-3.1482,-3.1219,-2.969,-2.9129,-2.8684,-2.7162,-2.6589,-2.6533,-2.6533,-2.6533,-2.6327,-2.5749,-2.5209,-2.4682,-2.413,-2.3429,-2.2689,-2.2063,-2.0526,-1.9044,-1.8134,-1.8008,-1.8008,-1.8008,-1.8008,-1.8008,-1.8008,-1.8008,-1.8008,-1.8008,-1.8008,-1.8008,-1.8008,-1.8076,-1.7935,-1.7622,-1.6879,-1.6252,-1.5991,-1.5165,-1.458,-1.4412,-1.4412,-1.4328,-1.4088,-1.4088,-1.4088,-1.4088,-1.4088,-1.4235,-1.4522,-1.4569,-1.4883,-3.2969,-3.2023,-3.1261,-3.1195,-3.2028,-3.2679,-3.1795,0.0,0.0,0.0,-3.1025,-3.091,-3.0475,-3.1796,0.0,-3.467,0.0,0.0,0.0,0.0,0.0,0.0,0.0,0.0,0.0,0.0,0.0,0.0,0.0,-4.0554,-4.0504,-4.0489,-4.0489,-4.0489,-3.9905,-3.9599,-3.9599,-3.8998,-3.8707,-3.8707,-3.8707,-3.8415,-3.7859,-3.7396,-3.6921,-3.6374,-3.581,0.0,-3.5622,-3.5622,-3.5207,-3.4528,-3.3836,-3.3182,-3.2492,-3.1796,-3.1482,-3.1482,-3.1482,-3.1482,-3.1219,-2.9566,-2.9002,-2.8684,-2.704,-2.6533,-2.6533,-2.6533,-2.6533,-2.6332,-2.541,-2.5008,-2.4607,-2.3753,-2.3021,-2.2125,-2.0846,-1.9879,-1.9044,-1.8134,-1.8008,-1.8008,-1.8008,-1.8008,-1.8008,-1.8008,-1.8008,-1.8008,-1.8008,-1.8008,-1.8008,-1.8008,-1.7579,-1.7246,-1.7225,-1.603,-1.5242,-1.5275,-1.4566,-1.4088,-1.4088,-1.4088,-1.4088,-1.4088,-1.4088,-1.4088,-1.4088,-1.4088,-1.4162,-1.4302,-1.4449,-1.4756,-3.3047,-3.2332,-3.1747,-3.1053,-3.1903,-3.2468,-3.0794,-3.1698,0.0,0.0,-3.0398,-3.0398,-3.0398,0.0,-3.2814,0.0,-3.6057,0.0,0.0,0.0,0.0,0.0,0.0,0.0,0.0,0.0,0.0,0.0,0.0,0.0,-4.0504,-4.0489,-4.0489,-4.0489,-3.9905,-3.9599,-3.9599,-3.8998,-3.8707,-3.8707,-3.8707,-3.8465,-3.8065,-3.7487,-3.696,-3.6539,-3.5898,0.0,0.0,-3.5622,-3.5299,-3.4736,-3.3937,-3.3287,-3.2695,-3.1853,-3.1482,-3.1482,-3.1482,-3.1482,-3.1219,-2.9566,-2.9002,-2.8684,-2.704,-2.6533,-2.6496,-2.6314,-2.6276,-2.6025,-2.4933,-2.4644,-2.4393,-2.3315,-2.2506,-2.1491,-1.9879,-1.9431,-1.9044,-1.8134,-1.8008,-1.8008,-1.8008,-1.8008,-1.8008,-1.8008,-1.8008,-1.8008,-1.8008,-1.8008,-1.8008,-1.8008,-1.7354,-1.6842,-1.6804,-1.5549,-1.4832,-1.4859,-1.4303,-1.4021,-1.4082,-1.4088,-1.4088,-1.4088,-1.4088,-1.4088,-1.4088,-1.4088,-1.4088,-1.4095,-1.4322,-1.4583,-3.4297,-3.3216,-3.1868,-3.1806,-3.2338,-3.2468,-3.0794,0.0,0.0,-3.0756,-3.0398,-3.0398,-3.0398,-3.0577,-3.1516,-3.3907,0.0,-3.6036,0.0,0.0,0.0,0.0,0.0,0.0,0.0,0.0,0.0,0.0,0.0,0.0,-4.0504,-4.0489,-4.0489,-4.0489,-3.9905,-3.9599,-3.9599,-3.8998,-3.8707,-3.8707,-3.8707,-3.8658,-3.8578,-3.765,-3.7173,-3.7058,-3.6037,0.0,0.0,-3.5622,-3.556,-3.5362,-3.4087,-3.3531,-3.3323,-3.1992,-3.1482,-3.1482,-3.1482,-3.1482,-3.1219,-2.9566,-2.9002,-2.8684,-2.704,-2.6533,-2.642,-2.5824,-2.5674,-2.5423,-2.4356,-2.4067,-2.3916,-2.3288,-2.2506,-2.1628,-2.0719,-1.9879,-1.9044,-1.8134,-1.8008,-1.8008,-1.8008,-1.8008,-1.8008,-1.8008,-1.8008,-1.8008,-1.8008,-1.8008,-1.8008,-1.8008,-1.794,-1.7176,-1.5497,-1.547,-1.4865,-1.3457,-1.352,-1.3808,-1.4075,-1.4088,-1.4088,-1.4088,-1.4088,-1.4088,-1.4088,-1.4088,-1.4088,-1.4088,-1.4115,-1.4282,-3.4609,-3.409,-3.3336,-3.2811,-3.2783,-3.2602,-3.1448,0.0,-3.1833,-3.0648,-3.0398,-3.0398,-3.0398,-3.0417,-3.1139,-3.3285,0.0,0.0,0.0,0.0,0.0,0.0,0.0,0.0,0.0,0.0,0.0,0.0,0.0,0.0,-4.0489,-4.0489,-4.0489,-4.0489,-3.9905,-3.9599,-3.9599,-3.8998,-3.8707,-3.8707,-3.8707,-3.8707,-3.8676,-3.7667,-3.719,-3.7135,-3.6054,0.0,0.0,-3.5622,-3.5622,-3.547,-3.4137,-3.3582,-3.3427,-3.1992,-3.127,-3.0911,-3.0911,-3.0672,-3.0119,-2.8468,-2.7925,-2.7673,-2.6345,-2.5724,-2.5423,-2.5197,-2.5134,-2.4958,-2.4192,-2.374,-2.3292,-2.2567,-2.2137,-2.1491,-2.0139,-1.9562,-1.9044,-1.8134,-1.8008,-1.8008,-1.8008,-1.8008,-1.8008,-1.8008,-1.8008,-1.8008,-1.8008,-1.8008,-1.8008,-1.8008,-1.7501,-1.6645,-1.5305,-1.4919,-1.4305,-1.3272,-1.3487,-1.3774,-1.4075,-1.4088,-1.4088,-1.4088,-1.4088,-1.4088,-1.4088,-1.4088,-1.4088,-1.4088,-1.4088,-1.4242,-3.4629,-3.4605,-3.4357,-3.3732,-3.3229,-3.2699,0.0,0.0,-3.1448,-3.0571,-3.0398,-3.0398,-3.0398,-3.0398,-3.1021,0.0,0.0,-3.4736,-3.6923,0.0,0.0,0.0,0.0,0.0,0.0,0.0,0.0,0.0,0.0,0.0,-4.0489,-4.0489,-4.0489,-4.0489,-3.9905,-3.9599,-3.9599,-3.8998,-3.8707,-3.8707,-3.8707,-3.8579,-3.831,-3.7309,-3.6732,-3.6427,-3.5427,0.0,0.0,-3.4962,-3.4962,-3.4813,-3.3502,-3.2958,-3.2806,-3.1454,-3.0657,-3.0223,-3.0223,-2.9953,-2.9347,-2.7968,-2.7259,-2.6763,-2.5728,-2.5165,-2.4795,-2.4619,-2.4456,-2.423,-2.3841,-2.3439,-2.2884,-2.2075,-2.169,-2.1112,-1.9628,-1.911,-1.8721,-1.8144,-1.8008,-1.8008,-1.8008,-1.8008,-1.8008,-1.8008,-1.8008,-1.8008,-1.8008,-1.8008,-1.8008,-1.8008,-1.7139,-1.621,-1.5305,-1.446,-1.3838,-1.3265,-1.34,-1.3687,-1.4075,-1.4088,-1.4088,-1.4088,-1.4088,-1.4088,-1.4088,-1.4088,-1.4088,-1.4088,-1.4088,-1.4195,-3.4453,-3.4599,-3.4504,-3.449,-3.3684,-3.2699,0.0,0.0,-3.1448,-3.0571,-3.0398,-3.0398,-3.0398,-3.0398,-3.1021,-3.2889,-3.3212,0.0,-3.675,0.0,0.0,0.0,0.0,0.0,0.0,0.0,0.0,0.0,0.0,0.0,-4.0489,-4.0489,-4.0489,-4.0489,-3.9905,-3.9599,-3.9599,-3.8998,-3.8707,-3.8707,-3.8707,-3.8285,-3.7496,-3.6466,-3.5598,0.0,0.0,0.0,0.0,-3.3423,-3.3423,-3.3296,-3.2022,-3.1502,-3.1357,-3.0068,-2.9594,-2.9594,-2.9594,-2.9594,-2.9456,-2.8566,-2.7442,-2.6252,-2.5402,-2.4983,-2.4707,-2.4167,-2.359,-2.309,-2.3078,-2.3078,-2.2884,-2.2075,-2.1239,-2.0398,-1.9497,-1.8586,-1.8008,-1.8008,-1.8008,-1.8008,-1.8008,-1.8008,-1.8008,-1.8008,-1.8008,-1.8008,-1.8008,-1.8008,-1.8008,-1.8008,-1.7139,-1.621,-1.5305,-1.4243,-1.3525,-1.3252,-1.3213,-1.3474,-1.4062,-1.4088,-1.4088,-1.4088,-1.4088,-1.4088,-1.4088,-1.4088,-1.4088,-1.4088,-1.4088,-1.4088,-3.3438,-3.3615,-3.3533,-3.3533,-3.2801,-3.2006,-3.1756,0.0,-3.0737,-3.0456,-3.0398,-3.0398,-3.0398,-3.0398,-3.1021,-3.2889,-3.3192,0.0,0.0,0.0,0.0,0.0,0.0,0.0,0.0,0.0,0.0,0.0,0.0,0.0,-4.0489,-4.0489,-4.0489,-4.0489,-4.0139,-3.9819,-3.9599,-3.8656,-3.8052,-3.7863,-3.7312,-3.6927,-3.667,-3.5959,-3.5328,0.0,0.0,0.0,0.0,-3.3406,-3.3406,-3.3262,-3.2006,-3.1518,-3.1341,-3.0053,-2.9295,-2.8906,-2.8906,-2.8607,-2.8085,-2.7316,-2.6466,-2.5575,-2.4789,-2.4107,-2.3566,-2.3464,-2.3276,-2.3078,-2.3078,-2.3078,-2.2763,-2.1353,-2.0782,-2.0204,-1.8721,-1.8202,-1.8008,-1.8008,-1.8008,-1.8008,-1.8008,-1.8008,-1.8008,-1.8008,-1.8008,-1.8008,-1.8008,-1.8008,-1.8008,-1.8008,-1.6585,-1.5517,-1.5234,-1.4314,-1.3498,-1.2943,-1.3093,-1.3387,-1.3768,-1.3981,-1.4088,-1.4088,-1.4088,-1.4088,-1.4088,-1.4088,-1.4088,-1.4088,-1.4088,-1.4088,0.0,-3.2905,-3.3093,-3.3093,-3.2383,0.0,0.0,0.0,-3.0398,-3.0398,-3.0398,-3.0398,-3.0398,-3.0398,-3.102,-3.2858,-3.3187,0.0,0.0,0.0,0.0,0.0,0.0,0.0,0.0,0.0,0.0,0.0,0.0,0.0,-4.0489,-4.0489,-4.0354,-4.0046,-4.0079,-3.9791,-3.9169,-3.8309,-3.7617,-3.7037,-3.6541,-3.6138,-3.5779,-3.532,-3.464,0.0,0.0,0.0,0.0,-3.2577,-3.2577,-3.2478,-3.145,-3.0919,-3.0592,-2.9531,-2.877,-2.8203,-2.8203,-2.7934,-2.7509,-2.7034,-2.6215,-2.5231,-2.4163,-2.3484,-2.3078,-2.3078,-2.3078,-2.3078,-2.3078,-2.3078,-2.2763,-2.1428,-2.0846,-2.0204,-1.8787,-1.8202,-1.8008,-1.8008,-1.8008,-1.8008,-1.8008,-1.8008,-1.8008,-1.8008,-1.8008,-1.8008,-1.8008,-1.8008,-1.8008,-1.8008,-1.6655,-1.5587,-1.5234,-1.3954,-1.3086,-1.2802,-1.2926,-1.322,-1.3546,-1.3821,-1.3975,-1.4082,-1.4088,-1.4088,-1.4088,-1.4088,-1.4088,-1.4088,-1.4088,-1.4088,0.0,0.0,0.0,0.0,0.0,0.0,0.0,0.0,0.0,0.0,0.0,-3.0398,-3.0398,-3.0436,-3.1064,-3.2822,-3.3211,0.0,0.0,0.0,0.0,0.0,0.0,0.0,0.0,0.0,0.0,0.0,0.0,0.0,-4.0412,-4.0412,-4.0027,-3.9219,-3.9695,-3.9431,-3.832,-3.7941,-3.7254,-3.6211,-3.6156,-3.5697,-3.4899,-3.4516,-3.3683,0.0,0.0,0.0,0.0,-3.119,-3.119,-3.1151,-3.0518,-2.9935,-2.9316,-2.8732,-2.814,-2.7625,-2.7625,-2.7625,-2.7575,-2.7524,-2.6534,-2.5119,-2.3649,-2.3138,-2.3078,-2.3078,-2.3078,-2.3078,-2.3078,-2.3078,-2.2884,-2.2075,-2.1227,-2.0333,-1.9497,-1.8586,-1.8008,-1.8008,-1.8008,-1.8008,-1.8008,-1.8008,-1.8008,-1.8008,-1.8008,-1.8008,-1.8008,-1.8008,-1.8008,-1.8008,-1.7139,-1.621,-1.5305,-1.3448,-1.2493,-1.2775,-1.2808,-1.2999,-1.3554,-1.3539,-1.3774,-1.4048,-1.4075,-1.4088,-1.4088,-1.4088,-1.4088,-1.4088,-1.4088,-1.4088,-3.0692,0.0,-3.1025,-3.1025,-3.0876,-3.0717,0.0,0.0,0.0,0.0,0.0,0.0,0.0,0.0,-3.1777,-3.2919,-3.3709,-3.4854,-3.674,0.0,0.0,0.0,0.0,0.0,0.0,0.0,0.0,0.0,0.0,-4.0219,-3.9604,-3.9565,-3.9181,-3.8334,-3.8424,-3.8132,-3.7414,-3.6726,-3.6011,-3.5312,-3.4688,-3.4284,-3.4082,-3.3982,-3.3406,0.0,0.0,0.0,-3.119,-3.119,-3.119,-3.1151,-3.0518,-2.9935,-2.9316,-2.8732,-2.814,-2.7625,-2.7625,-2.7625,-2.7524,-2.693,-2.6162,-2.5231,-2.4279,-2.3603,-2.3078,-2.3078,-2.3078,-2.3078,-2.3078,-2.3078,-2.2884,-2.2075,-2.1227,-2.0333,-1.9497,-1.8586,-1.8008,-1.8008,-1.8008,-1.8008,-1.8008,-1.8008,-1.8008,-1.8008,-1.8008,-1.8008,-1.8008,-1.8008,-1.8008,-1.8008,-1.7139,-1.621,-1.5305,-1.4099,-1.3127,-1.2472,-1.2694,-1.2889,-1.2953,-1.34,-1.3674,-1.3748,-1.3975,-1.4088,-1.4088,-1.4088,-1.4088,-1.4088,-1.4088,-1.4088,-3.0398,-3.0398,-3.0398,-3.0398,-3.0398,-3.0398,0.0,0.0,0.0,0.0,0.0,0.0,0.0,0.0,0.0,0.0,-3.4514,0.0,0.0,0.0,0.0,0.0,0.0,0.0,0.0,0.0,0.0,0.0,0.0,-3.9585,-3.8738,-3.87,-3.8296,-3.743,-3.7411,-3.7132,-3.6564,-3.6111,-3.5413,-3.4449,-3.4009,-3.3807,-3.3807,-3.3807,-3.3447,0.0,0.0,0.0,-3.147,-3.1291,-3.119,-3.1151,-3.0838,-3.0335,-2.9717,-2.9134,-2.8543,-2.7944,-2.771,-2.7625,-2.7458,-2.6721,-2.6014,-2.5231,-2.4509,-2.3721,-2.3078,-2.3078,-2.3078,-2.3078,-2.3078,-2.3078,-2.3005,-2.2567,-2.1803,-2.0974,-2.0074,-1.9233,-1.8462,-1.8076,-1.8008,-1.8008,-1.8008,-1.8008,-1.8008,-1.8008,-1.8008,-1.8008,-1.8008,-1.8008,-1.8008,-1.8008,-1.7569,-1.6853,-1.593,-1.495,-1.381,-1.2372,-1.2452,-1.2681,-1.2815,-1.306,-1.336,-1.3634,-1.3935,-1.4088,-1.4088,-1.4088,-1.4088,-1.4088,-1.4088,-1.4088,-3.0398,-3.0494,-3.0571,-3.0417,-3.0398,-3.0398,0.0,0.0,0.0,0.0,0.0,0.0,0.0,0.0,0.0,0.0,0.0,0.0,0.0,0.0,0.0,0.0,0.0,0.0,0.0,0.0,0.0,0.0,0.0,-3.8719,-3.7853,-3.7796,-3.7411,-3.6546,-3.6526,-3.6269,-3.5776,-3.5735,-3.5098,-3.385,-3.3815,-3.3807,-3.3807,-3.3807,-3.3578,-3.3184,0.0,0.0,-3.1789,-3.1389,-3.119,-3.119,-3.119,-3.0838,-3.0208,-2.9629,-2.9012,-2.8415,-2.781,-2.7625,-2.7509,-2.6878,-2.6176,-2.5453,-2.4681,-2.3884,-2.3258,-2.3138,-2.3078,-2.3078,-2.3078,-2.3078,-2.3078,-2.3078,-2.2506,-2.169,-2.0974,-2.0009,-1.911,-1.8327,-1.8076,-1.8008,-1.8008,-1.8008,-1.8008,-1.8008,-1.8008,-1.8008,-1.8008,-1.8008,-1.8008,-1.8008,-1.8008,-1.7647,-1.6706,-1.572,-1.445,-1.2666,-1.2378,-1.2438,-1.2808,-1.2822,-1.3006,-1.3567,-1.3868,-1.4021,-1.4021,-1.4068,-1.4088,-1.4088,-1.4088,-1.4088,-3.0398,-3.0948,-3.1314,-3.0571,-3.0398,-3.0398,-3.0398,0.0,0.0,0.0,0.0,0.0,0.0,0.0,0.0,0.0,0.0,0.0,0.0,0.0,0.0,0.0,0.0,0.0,0.0,0.0,0.0,0.0,0.0,-3.7815,-3.6949,-3.6911,-3.6526,-3.5718,-3.568,-3.5546,-3.5224,-3.5002,-3.462,-3.4147,-3.3902,-3.3807,-3.3807,-3.3807,-3.3578,-3.3184,0.0,-3.223,-3.1789,-3.1389,-3.119,-3.119,-3.119,-3.0838,-3.0208,-2.9629,-2.9012,-2.8415,-2.781,-2.7625,-2.7575,-2.7458,-2.693,-2.6176,-2.5453,-2.4724,-2.3943,-2.3305,-2.3078,-2.3078,-2.3078,-2.3078,-2.3078,-2.3078,-2.2506,-2.1877,-2.1753,-2.0462,-1.9243,-1.911,-1.8529,-1.8008,-1.8008,-1.8008,-1.8008,-1.8008,-1.8008,-1.8008,-1.8008,-1.8008,-1.8008,-1.8008,-1.8008,-1.7647,-1.6706,-1.572,-1.4736,-1.3528,-1.2732,-1.2438,-1.2808,-1.2822,-1.2913,-1.3267,-1.3561,-1.3707,-1.3714,-1.3968,-1.4088,-1.4088,-1.4088,-1.4088,-3.0398,-3.0698,-3.1006,-3.1083,-3.1429,-3.1756,-3.1756,0.0,0.0,0.0,0.0,0.0,0.0,0.0,0.0,0.0,0.0,0.0,0.0,0.0,0.0,0.0,0.0,0.0,0.0,0.0,0.0,0.0,0.0,0.0,-3.6103,-3.6065,-3.5892,-3.5512,-3.5493,-3.5446,-3.532,-3.4908,-3.4529,-3.42,-3.4093,-3.3935,-3.3807,-3.3807,-3.3707,-3.3494,0.0,-3.2384,-3.2144,-3.1449,-3.119,-3.119,-3.119,-3.1015,-3.0658,-2.9761,-2.9012,-2.8415,-2.781,-2.7625,-2.7625,-2.7625,-2.7086,-2.6457,-2.6122,-2.5175,-2.4234,-2.3826,-2.3424,-2.3078,-2.3078,-2.3078,-2.3078,-2.3078,-2.2823,-2.2445,-2.2002,-2.1302,-2.0398,-1.9497,-1.8977,-1.8529,-1.8076,-1.8008,-1.8008,-1.8008,-1.8008,-1.8008,-1.8008,-1.8008,-1.8008,-1.8008,-1.8008,-1.7862,-1.7354,-1.6498,-1.5084,-1.3091,-1.2519,-1.2365,-1.2498,-1.2735,-1.2889,-1.2959,-1.3253,-1.3487,-1.3559,-1.3781,-1.3928,-1.4088,-1.4088,-1.4088,-3.0299,-3.0465,-3.0842,-3.1744,0.0,-3.2718,-3.3103,0.0,0.0,0.0,0.0,0.0,0.0,0.0,0.0,0.0,0.0,0.0,0.0,0.0,0.0,0.0,0.0,0.0,0.0,0.0,0.0,0.0,0.0,0.0,-3.5532,-3.5493,-3.5493,-3.5493,-3.5493,-3.5493,-3.5493,-3.5016,-3.4634,-3.4334,-3.4171,-3.4012,-3.3807,-3.3807,-3.3807,-3.3762,-3.2996,-3.2616,-3.2451,-3.1657,-3.1291,-3.119,-3.119,-3.1095,-3.0878,-2.9935,-2.9134,-2.8415,-2.7944,-2.771,-2.7625,-2.7625,-2.7203,-2.6721,-2.6563,-2.5728,-2.4738,-2.4408,-2.3826,-2.3365,-2.3138,-2.3078,-2.3078,-2.3078,-2.3078,-2.2944,-2.2322,-2.2002,-2.1428,-1.9879,-1.9431,-1.9044,-1.8144,-1.8008,-1.8008,-1.8008,-1.8008,-1.8008,-1.8008,-1.8008,-1.8008,-1.8008,-1.8008,-1.7794,-1.7373,-1.6715,-1.5147,-1.2445,-1.2305,-1.2305,-1.2305,-1.2518,-1.2721,-1.2721,-1.2946,-1.3213,-1.3434,-1.3507,-1.3694,-1.3981,-1.3981,-1.4021,-2.9969,-3.0619,-3.1499,-3.2545,0.0,0.0,-3.3737,-3.4103,0.0,0.0,0.0,0.0,0.0,0.0,0.0,0.0,0.0,0.0,0.0,0.0,0.0,0.0,0.0,0.0,0.0,0.0,0.0,0.0,0.0,0.0,-3.5493,-3.5493,-3.5493,-3.5493,-3.5493,-3.5493,-3.5493,-3.5207,-3.4944,-3.4653,-3.4087,-3.3815,-3.3807,-3.3807,-3.3807,-3.378,-3.3332,-3.2921,-3.2451,-3.1968,-3.1545,-3.119,-3.119,-3.0878,-3.0335,-3.0251,-2.9496,-2.8511,-2.8463,-2.8042,-2.7625,-2.7625,-2.756,-2.7408,-2.6721,-2.6457,-2.6068,-2.4681,-2.4234,-2.406,-2.3305,-2.3078,-2.3078,-2.3078,-2.3078,-2.3065,-2.3017,-2.2445,-2.1616,-2.0719,-1.9814,-1.9044,-1.8144,-1.8008,-1.8008,-1.8008,-1.8008,-1.8008,-1.8008,-1.8008,-1.8008,-1.8008,-1.8008,-1.7295,-1.5517,-1.5376,-1.445,-1.2445,-1.2305,-1.2305,-1.2305,-1.2325,-1.2338,-1.2338,-1.2625,-1.2869,-1.2889,-1.31,-1.3394,-1.3674,-1.3674,-1.3821,-3.1295,-3.2074,-3.2947,-3.3349,0.0,0.0,0.0,0.0,0.0,0.0,0.0,0.0,0.0,0.0,0.0,0.0,0.0,0.0,0.0,0.0,0.0,0.0,0.0,0.0,0.0,0.0,0.0,0.0,0.0,0.0,-3.5493,-3.5493,-3.5493,-3.5493,-3.5493,-3.5493,-3.5493,-3.507,-3.4793,-3.4694,-3.426,-3.3961,-3.3807,-3.3807,-3.3807,-3.378,-3.3361,-3.2952,-3.2451,-3.1986,-3.1565,-3.119,-3.119,-3.1055,-3.0797,-3.0435,-3.0038,-2.9496,-2.8779,-2.8319,-2.8091,-2.771,-2.7625,-2.7575,-2.7255,-2.6878,-2.6283,-2.5287,-2.4624,-2.4118,-2.3305,-2.3078,-2.3078,-2.3078,-2.3078,-2.3078,-2.3078,-2.2445,-2.1628,-2.0782,-1.989,-1.9044,-1.8144,-1.8008,-1.8008,-1.8008,-1.8008,-1.8008,-1.8008,-1.8008,-1.8008,-1.8008,-1.8008,-1.7725,-1.701,-1.5877,-1.4879,-1.4163,-1.2945,-1.2305,-1.2305,-1.2305,-1.2305,-1.2305,-1.2412,-1.2559,-1.2822,-1.2866,-1.308,-1.3373,-1.3373,-1.3527,-3.2364,-3.3015,-3.3804,0.0,0.0,0.0,0.0,0.0,0.0,0.0,0.0,0.0,0.0,0.0,0.0,0.0,0.0,0.0,0.0,0.0,0.0,0.0,0.0,0.0,0.0,0.0,0.0,0.0,0.0,0.0,0.0,-3.5493,-3.5493,-3.5493,-3.5493,-3.5493,-3.5493,-3.5034,-3.4774,-3.4713,-3.4357,-3.4068,-3.3807,-3.3807,-3.3807,-3.3762,-3.3522,-3.3136,-3.2681,-3.2196,-3.1714,-3.119,-3.119,-3.119,-3.1151,-3.074,-3.0477,-3.0166,-2.9134,-2.8654,-2.8415,-2.781,-2.7625,-2.7625,-2.7625,-2.7255,-2.6654,-2.5673,-2.5063,-2.4394,-2.3365,-2.3078,-2.3078,-2.3078,-2.3078,-2.3078,-2.3078,-2.2689,-2.1939,-2.0846,-2.0139,-1.9365,-1.8202,-1.8008,-1.8008,-1.8008,-1.8008,-1.8008,-1.8008,-1.8008,-1.8008,-1.8008,-1.8008,-1.7862,-1.7579,-1.6367,-1.5376,-1.4736,-1.3448,-1.2592,-1.2298,-1.2305,-1.2305,-1.2305,-1.2305,-1.2405,-1.2605,-1.2605,-1.2766,-1.3066,-1.3066,-1.3273,-3.2943,-3.3219,0.0,0.0,0.0,0.0,0.0,0.0,0.0,0.0,0.0,0.0,0.0,0.0,0.0,0.0,0.0,0.0,0.0,0.0,0.0,0.0,0.0,0.0,0.0,0.0,0.0,0.0,0.0,0.0,0.0,-3.5493,-3.5493,-3.5493,-3.5493,-3.5493,-3.5493,-3.5223,-3.4963,-3.4694,-3.4357,-3.4068,-3.3807,-3.3807,-3.3807,-3.3807,-3.3807,-3.3578,-3.3154,-3.2681,-3.1986,-3.119,-3.119,-3.119,-3.119,-3.119,-3.0838,-3.0208,-2.9629,-2.9012,-2.8415,-2.781,-2.7625,-2.7625,-2.7625,-2.7625,-2.7291,-2.5837,-2.5398,-2.5063,-2.3471,-2.3078,-2.3078,-2.3078,-2.3078,-2.3078,-2.3078,-2.3065,-2.2628,-2.091,-2.059,-2.0009,-1.8269,-1.8008,-1.8008,-1.8008,-1.8008,-1.8008,-1.8008,-1.8008,-1.8008,-1.8008,-1.8008,-1.7647,-1.6706,-1.6636,-1.579,-1.381,-1.3673,-1.3237,-1.2372,-1.2305,-1.2305,-1.2305,-1.2305,-1.2305,-1.2305,-1.2305,-1.2452,-1.2822,-1.2822,-1.306,-3.3545,0.0,0.0,0.0,0.0,0.0,0.0,0.0,0.0,0.0,0.0,0.0,0.0,0.0,0.0,0.0,0.0,0.0,0.0,0.0,0.0,0.0,0.0,0.0,0.0,0.0,0.0,0.0,0.0,0.0,0.0,-3.5493,-3.5493,-3.5493,-3.5493,-3.5493,-3.5493,-3.5223,-3.507,-3.4981,-3.4449,-3.4068,-3.3807,-3.3807,-3.3807,-3.3807,-3.3807,-3.3578,-3.3154,-3.2332,-3.1677,-3.119,-3.119,-3.119,-3.119,-3.119,-3.1095,-3.0797,-2.9761,-2.9271,-2.895,-2.7944,-2.7625,-2.7625,-2.7625,-2.7625,-2.7291,-2.5837,-2.5398,-2.5063,-2.3471,-2.3078,-2.3078,-2.3078,-2.3078,-2.3078,-2.3078,-2.2628,-2.1939,-2.0846,-2.0074,-1.9299,-1.8202,-1.8008,-1.8008,-1.8008,-1.8008,-1.8008,-1.8008,-1.8008,-1.8008,-1.8008,-1.8008,-1.7872,-1.7579,-1.6367,-1.5376,-1.4807,-1.3448,-1.2592,-1.2305,-1.2305,-1.2305,-1.2305,-1.2305,-1.2305,-1.2305,-1.2305,-1.2345,-1.2438,-1.2438,-1.2645,-3.5092,0.0,0.0,0.0,0.0,0.0,0.0,0.0,0.0,0.0,0.0,0.0,0.0,0.0,0.0,0.0,0.0,0.0,0.0,0.0,0.0,0.0,0.0,0.0,0.0,0.0,0.0,0.0,0.0,0.0,0.0,-3.5493,-3.5493,-3.5493,-3.5493,-3.5493,-3.5493,-3.5354,-3.5207,-3.5105,-3.4716,-3.4357,-3.3961,-3.3842,-3.3807,-3.3807,-3.3807,-3.3578,-3.3136,-3.24,-3.1842,-3.1411,-3.1252,-3.119,-3.119,-3.119,-3.119,-3.1015,-2.9805,-2.9406,-2.918,-2.7993,-2.7625,-2.7625,-2.7625,-2.7625,-2.7291,-2.5837,-2.5398,-2.5063,-2.3471,-2.3078,-2.3078,-2.3078,-2.3078,-2.3078,-2.3078,-2.2702,-2.2125,-2.1302,-2.0719,-1.9944,-1.8721,-1.8529,-1.8395,-1.8076,-1.8008,-1.8008,-1.8008,-1.8008,-1.8008,-1.8008,-1.8008,-1.8008,-1.8008,-1.6941,-1.6018,-1.5234,-1.4091,-1.3091,-1.2305,-1.2305,-1.2305,-1.2305,-1.2305,-1.2305,-1.2305,-1.2305,-1.2305,-1.2305,-1.2305,-1.2458,0.0,0.0,0.0,0.0,0.0,0.0,0.0,0.0,0.0,0.0,0.0,0.0,0.0,0.0,0.0,0.0,0.0,0.0,0.0,0.0,0.0,0.0,0.0,0.0,0.0,0.0,0.0,0.0,0.0,0.0,0.0,-3.5493,-3.5493,-3.5493,-3.5493,-3.5493,-3.5493,-3.5493,-3.5369,-3.5138,-3.5105,-3.4794,-3.4242,-3.3961,-3.3815,-3.3807,-3.3807,-3.3578,-3.3154,-3.2681,-3.223,-3.1752,-3.1351,-3.119,-3.119,-3.119,-3.119,-3.1015,-2.9805,-2.9406,-2.918,-2.7993,-2.7625,-2.7625,-2.7625,-2.7625,-2.7306,-2.5892,-2.5453,-2.5063,-2.359,-2.3125,-2.3078,-2.3078,-2.3078,-2.3078,-2.3078,-2.3078,-2.2884,-2.2063,-2.1877,-2.1365,-1.9694,-1.9365,-1.8977,-1.8144,-1.8008,-1.8008,-1.8008,-1.8008,-1.8008,-1.8008,-1.8008,-1.8008,-1.8008,-1.794,-1.7079,-1.5305,-1.5092,-1.4235,-1.2378,-1.2305,-1.2305,-1.2305,-1.2305,-1.2305,-1.2305,-1.2305,-1.2305,-1.2305,-1.2305,-1.2445,0.0,0.0,0.0,0.0,0.0,0.0,0.0,0.0,0.0,0.0,0.0,0.0,0.0,0.0,0.0,0.0,0.0,0.0,0.0,0.0,0.0,0.0,0.0,0.0,0.0,0.0,0.0,0.0,0.0,0.0,-3.5493,-3.5493,-3.5493,-3.5493,-3.5493,-3.5493,-3.5493,-3.5493,-3.546,0.0,-3.5207,-3.4907,-3.4572,-3.4265,-3.4012,-3.3807,-3.3807,-3.3578,-3.3154,-3.2681,-3.223,-3.1752,-3.1351,-3.119,-3.119,-3.119,-3.119,-3.1015,-2.9805,-2.9406,-2.918,-2.7993,-2.7625,-2.7625,-2.7625,-2.7625,-2.7408,-2.651,-2.5837,-2.5175,-2.4279,-2.3603,-2.3078,-2.3078,-2.3078,-2.3078,-2.3078,-2.3078,-2.2884,-2.2063,-2.1877,-2.1553,-2.0526,-1.9759,-1.8977,-1.8144,-1.8008,-1.8008,-1.8008,-1.8008,-1.8008,-1.8008,-1.8008,-1.8008,-1.8008,-1.7285,-1.6428,-1.5305,-1.4458,-1.3528,-1.2378,-1.2305,-1.2305,-1.2305,-1.2305,-1.2305,-1.2305,-1.2305,-1.2305,-1.2305,-1.2305,-1.2338,0.0,0.0,0.0,0.0,0.0,0.0,0.0,0.0,0.0,0.0,0.0,0.0,0.0,0.0,0.0,0.0,0.0,0.0,0.0,0.0,0.0,0.0,0.0,0.0,0.0,0.0,0.0,0.0,0.0,-3.5493,-3.5493,-3.5493,-3.5493,-3.5493,-3.5493,-3.5493,-3.5493,-3.5493,-3.5493,-3.5493,-3.5369,-3.5088,-3.4674,-3.4213,-3.3935,-3.3807,-3.3807,-3.368,-3.3437,-3.2777,-3.235,-3.2074,-3.1449,-3.119,-3.119,-3.119,-3.119,-3.1055,-3.0166,-2.9629,-2.9271,-2.8319,-2.786,-2.7625,-2.7625,-2.7625,-2.7458,-2.6721,-2.6229,-2.5673,-2.4567,-2.4002,-2.3603,-2.3198,-2.3078,-2.3078,-2.3078,-2.3078,-2.3005,-2.2567,-2.2445,-2.2187,-2.1365,-2.0139,-1.8977,-1.8144,-1.8008,-1.8008,-1.8008,-1.8008,-1.8008,-1.8008,-1.8008,-1.8008,-1.8008,-1.7569,-1.6655,-1.5305,-1.4736,-1.381,-1.2372,-1.2305,-1.2305,-1.2305,-1.2305,-1.2305,-1.2305,-1.2305,-1.2305,-1.2305,-1.2305,-1.2305,0.0,0.0,0.0,0.0,0.0,0.0,0.0,0.0,0.0,0.0,0.0,0.0,0.0,0.0,0.0,0.0,0.0,0.0,0.0,0.0,0.0,0.0,0.0,0.0,0.0,0.0,0.0,0.0,0.0,-3.5493,-3.5493,-3.5493,-3.5493,-3.5493,-3.5493,-3.5493,-3.5493,-3.5493,-3.5493,-3.5493,-3.5446,-3.5155,-3.4674,-3.4136,-3.3842,-3.3807,-3.3807,-3.3807,-3.3734,-3.2934,-3.2583,-3.2417,-3.162,-3.1252,-3.119,-3.119,-3.119,-3.1095,-3.0518,-2.9892,-2.9316,-2.8701,-2.8091,-2.7625,-2.7625,-2.7625,-2.7458,-2.6878,-2.6616,-2.6176,-2.4851,-2.4408,-2.4118,-2.3305,-2.3078,-2.3078,-2.3078,-2.3078,-2.3078,-2.3078,-2.3078,-2.2823,-2.1815,-2.0462,-1.9177,-1.8134,-1.8008,-1.8008,-1.8008,-1.8008,-1.8008,-1.8008,-1.8008,-1.8008,-1.8008,-1.7862,-1.701,-1.5305,-1.5021,-1.4163,-1.2372,-1.2305,-1.2305,-1.2305,-1.2305,-1.2305,-1.2305,-1.2305,-1.2305,-1.2305,-1.2305,-1.2305,0.0,0.0,0.0,0.0,0.0,0.0,0.0,0.0,0.0,0.0,0.0,0.0,0.0,0.0,0.0,0.0,0.0,0.0,0.0,0.0,0.0,0.0,0.0,0.0,0.0,0.0,0.0,0.0,-3.5493,-3.5493,-3.5493,-3.5493,-3.5493,-3.5493,-3.5493,-3.5493,-3.5493,-3.5493,-3.5493,-3.5493,-3.5254,-3.4999,-3.4674,-3.4311,-3.4018,-3.3807,-3.3807,-3.3807,-3.3762,-3.3302,-3.289,-3.2451,-3.1933,-3.1507,-3.119,-3.119,-3.119,-3.1095,-3.0518,-2.9892,-2.9316,-2.8701,-2.8091,-2.7625,-2.7625,-2.7625,-2.7575,-2.7458,-2.6982,-2.6283,-2.5453,-2.4794,-2.4118,-2.3305,-2.3078,-2.3078,-2.3078,-2.3078,-2.3078,-2.3078,-2.3078,-2.2628,-2.1037,-2.059,-1.9879,-1.8269,-1.8008,-1.8008,-1.8008,-1.8008,-1.8008,-1.8008,-1.8008,-1.8008,-1.8008,-1.7285,-1.6358,-1.5234,-1.4378,-1.3455,-1.2372,-1.2305,-1.2305,-1.2305,-1.2305,-1.2305,-1.2305,-1.2305,-1.2305,-1.2305,-1.2305,-1.2305,0.0,0.0,0.0,0.0,0.0,0.0,0.0,0.0,0.0,0.0,0.0,0.0,0.0,0.0,0.0,0.0,0.0,0.0,0.0,0.0,0.0,0.0,0.0,0.0,0.0,0.0,0.0,0.0,-3.5493,-3.5493,-3.5493,-3.5493,-3.5493,-3.5493,-3.5493,-3.5493,-3.5493,-3.5493,-3.5493,-3.5493,-3.5383,-3.5105,-3.4713,-3.4551,-3.4237,-3.3807,-3.3807,-3.3807,-3.3762,-3.3361,-3.2903,-3.2451,-3.1986,-3.1565,-3.119,-3.119,-3.119,-3.1151,-3.0878,-3.0208,-2.9361,-2.9088,-2.8367,-2.7625,-2.7625,-2.7625,-2.7625,-2.7625,-2.7357,-2.6864,-2.5728,-2.5175,-2.461,-2.3365,-2.3078,-2.3078,-2.3078,-2.3078,-2.3078,-2.3078,-2.3078,-2.2567,-2.091,-2.059,-2.0009,-1.8269,-1.8008,-1.8008,-1.8008,-1.8008,-1.8008,-1.8008,-1.8008,-1.8008,-1.8008,-1.7647,-1.6793,-1.5305,-1.4807,-1.3882,-1.2372,-1.2305,-1.2305,-1.2305,-1.2305,-1.2305,-1.2305,-1.2305,-1.2305,-1.2305,-1.2305,-1.2305,0.0,0.0,0.0,0.0,0.0,0.0,0.0,0.0,0.0,0.0,0.0,0.0,0.0,0.0,0.0,0.0,0.0,0.0,0.0,0.0,0.0,0.0,0.0,0.0,0.0,0.0,0.0,0.0,-3.5493,-3.5493,-3.5493,-3.5493,-3.5493,-3.5493,-3.5493,-3.5493,-3.5493,-3.5493,-3.5493,-3.5493,-3.5493,-3.5239,-3.4793,-3.4734,-3.4398,-3.3902,-3.3815,-3.3807,-3.378,-3.3494,-3.3075,-3.2648,-3.2161,-3.1733,-3.1351,-3.123,-3.119,-3.119,-3.119,-3.0435,-2.9406,-2.9406,-2.8575,-2.7625,-2.7625,-2.7625,-2.7625,-2.7625,-2.7625,-2.724,-2.5783,-2.5398,-2.5007,-2.3471,-2.3078,-2.3078,-2.3078,-2.3078,-2.3078,-2.3078,-2.3078,-2.2567,-2.091,-2.059,-2.0009,-1.8269,-1.8008,-1.8008,-1.8008,-1.8008,-1.8008,-1.8008,-1.8008,-1.8008,-1.8008,-1.7794,-1.7079,-1.5658,-1.5092,-1.4163,-1.2732,-1.2445,-1.2305,-1.2305,-1.2305,-1.2305,-1.2305,-1.2305,-1.2305,-1.2305,-1.2305,-1.2305,0.0,0.0,0.0,0.0,0.0,0.0,0.0,0.0,0.0,0.0,0.0,0.0,0.0,0.0,0.0,0.0,0.0,0.0,0.0,0.0,0.0,0.0,0.0,0.0,0.0,0.0,0.0,0.0,-3.5493,-3.5493,-3.5493,-3.5493,-3.5493,-3.5493,-3.5493,-3.5493,-3.5493,-3.5493,-3.5493,-3.5493,-3.5493,-3.5354,-3.507,-3.4832,-3.4508,-3.4171,-3.3902,-3.3807,-3.3807,-3.378,-3.3522,-3.3124,-3.2648,-3.2179,-3.1716,-3.1351,-3.119,-3.119,-3.119,-3.0435,-2.9406,-2.9406,-2.8575,-2.7625,-2.7625,-2.7625,-2.7625,-2.7625,-2.7625,-2.724,-2.5783,-2.5398,-2.5007,-2.3471,-2.3078,-2.3078,-2.3078,-2.3078,-2.3078,-2.3078,-2.3078,-2.2567,-2.091,-2.059,-2.0009,-1.8269,-1.8008,-1.8008,-1.8008,-1.8008,-1.8008,-1.8008,-1.8008,-1.8008,-1.8008,-1.7207,-1.6636,-1.6558,-1.4799,-1.3745,-1.36,-1.2732,-1.2305,-1.2305,-1.2305,-1.2305,-1.2305,-1.2305,-1.2305,-1.2305,-1.2305,-1.2305,0.0,0.0,0.0,0.0,0.0,0.0,0.0,0.0,0.0,0.0,0.0,0.0,0.0,0.0,0.0,0.0,0.0,0.0,0.0,0.0,0.0,0.0,0.0,0.0,0.0,0.0,0.0,0.0,0.0,-3.5493,-3.5493,-3.5493,-3.5493,-3.5493,-3.5493,-3.5493,-3.5493,-3.5493,-3.5493,-3.5493,-3.5493,-3.5369,-3.5088,-3.4813,-3.4529,-3.4195,-3.3928,-3.3807,-3.3807,-3.3807,-3.355,-3.3136,-3.2681,-3.2196,-3.1752,-3.1351,-3.119,-3.119,-3.119,-3.0658,-2.9892,-2.954,-2.8873,-2.8091,-2.771,-2.7625,-2.7625,-2.7625,-2.7625,-2.724,-2.5783,-2.5398,-2.5007,-2.3471,-2.3078,-2.3078,-2.3078,-2.3078,-2.3078,-2.3078,-2.2689,-2.1939,-2.0782,-2.0139,-1.9365,-1.8212,-1.8008,-1.8008,-1.8008,-1.8008,-1.8008,-1.8008,-1.8008,-1.8008,-1.8008,-1.7716,-1.7217,-1.6636,-1.5367,-1.4386,-1.3745,-1.2806,-1.2305,-1.2305,-1.2305,-1.2305,-1.2305,-1.2305,-1.2305,-1.2305,-1.2305,-1.2305,0.0,0.0,0.0,0.0,0.0,0.0,0.0,0.0,0.0,0.0,0.0,0.0,0.0,0.0,0.0,0.0,0.0,0.0,0.0,0.0,0.0,0.0,0.0,0.0,0.0,0.0,0.0,0.0,0.0,0.0,-3.5493,-3.5493,-3.5493,-3.5493,-3.5522,-3.5522,-3.5507,-3.5493,-3.5493,-3.5493,-3.5493,-3.5417,-3.5223,-3.4851,-3.4572,-3.4357,-3.3979,-3.3807,-3.3807,-3.3807,-3.3634,-3.3332,-3.2745,-3.2316,-3.1968,-3.1428,-3.119,-3.119,-3.119,-3.0781,-3.0208,-2.9585,-2.9012,-2.8367,-2.776,-2.7625,-2.7625,-2.7625,-2.7625,-2.724,-2.5783,-2.5007,-2.4381,-2.3365,-2.3078,-2.3078,-2.3078,-2.3078,-2.3078,-2.3078,-2.2445,-2.1616,-2.0719,-1.9879,-1.8977,-1.8144,-1.8008,-1.8008,-1.8008,-1.8008,-1.8008,-1.8008,-1.8008,-1.8008,-1.8008,-1.8008,-1.7579,-1.6636,-1.572,-1.4736,-1.3745,-1.2806,-1.2305,-1.2305,-1.2305,-1.2305,-1.2305,-1.2305,-1.2305,-1.2305,-1.2305,-1.2305,0.0,0.0,0.0,0.0,0.0,0.0,0.0,0.0,0.0,0.0,0.0,0.0,0.0,0.0,0.0,0.0,0.0,0.0,0.0,0.0,0.0,0.0,0.0,0.0,0.0,0.0,0.0,0.0,-3.5493,-3.5493,-3.5493,-3.5493,-3.5493,-3.5493,-3.5562,-3.5574,-3.5507,-3.5493,-3.5493,-3.5493,-3.5493,-3.5493,-3.5493,-3.4944,-3.4694,-3.4653,-3.4062,-3.3807,-3.3807,-3.3807,-3.3807,-3.3707,-3.284,-3.2484,-3.2384,-3.1524,-3.119,-3.119,-3.119,-3.0838,-3.0208,-2.9585,-2.8996,-2.8415,-2.781,-2.7625,-2.7625,-2.7625,-2.7625,-2.724,-2.5783,-2.4266,-2.3078,-2.3078,-2.3078,-2.3078,-2.3078,-2.3078,-2.3078,-2.3078,-2.2445,-2.1616,-2.0719,-1.9879,-1.8977,-1.8144,-1.8008,-1.8008,-1.8008,-1.8008,-1.8008,-1.8008,-1.8008,-1.8008,-1.8008,-1.794,-1.7569,-1.6636,-1.572,-1.4736,-1.3745,-1.2806,-1.2305,-1.2305,-1.2305,-1.2305,-1.2305,-1.2305,-1.2305,-1.2305,-1.2305,-1.2305,-3.3807,0.0,0.0,0.0,0.0,0.0,0.0,0.0,0.0,0.0,0.0,0.0,0.0,0.0,0.0,0.0,0.0,0.0,0.0,0.0,0.0,0.0,0.0,0.0,0.0,0.0,0.0,0.0,-3.5493,-3.5493,-3.5493,-3.5493,-3.5493,-3.5493,-3.5509,-3.5509,-3.5507,-3.5493,-3.5493,-3.5493,-3.5493,-3.5493,-3.5493,-3.4944,-3.4694,-3.4653,-3.4062,-3.3807,-3.3807,-3.3807,-3.3807,-3.3707,-3.284,-3.2484,-3.2384,-3.1524,-3.119,-3.119,-3.119,-3.1095,-3.0797,-2.9717,-2.9271,-2.895,-2.7894,-2.7625,-2.7625,-2.7625,-2.7625,-2.724,-2.5783,-2.4266,-2.3078,-2.3078,-2.3078,-2.3078,-2.3078,-2.3078,-2.3078,-2.3078,-2.2445,-2.1616,-2.0719,-1.9879,-1.8977,-1.8144,-1.8008,-1.8008,-1.8008,-1.8008,-1.8008,-1.8008,-1.8008,-1.8008,-1.8008,-1.7364,-1.6853,-1.6636,-1.5013,-1.3954,-1.3745,-1.2806,-1.2305,-1.2305,-1.2305,-1.2305,-1.2305,-1.2305,-1.2305,-1.2305,-1.2305,-1.2305,0.0,0.0,0.0,0.0,0.0,0.0,-3.5385,-3.6303,-3.7074,0.0,0.0,0.0,0.0,0.0,0.0,0.0,0.0,0.0,0.0,0.0,0.0,0.0,0.0,0.0,0.0,-3.532,-3.5383,-3.5493,-3.5493,-3.5493,-3.5493,-3.5534,-3.5534,-3.5507,-3.5534,-3.5534,-3.5507,-3.5493,-3.5493,-3.5493,-3.5493,-3.5493,-3.5493,-3.4944,-3.4694,-3.4653,-3.4062,-3.3807,-3.3807,-3.3807,-3.3807,-3.3707,-3.284,-3.2484,-3.2384,-3.1524,-3.119,-3.119,-3.119,-3.119,-3.1015,-2.9805,-2.9406,-2.918,-2.7993,-2.7625,-2.7625,-2.7625,-2.7137,-2.6481,-2.5618,-2.4266,-2.3078,-2.3078,-2.3078,-2.3078,-2.3078,-2.3078,-2.3078,-2.3078,-2.2445,-2.1616,-2.0719,-1.9879,-1.8977,-1.8144,-1.8008,-1.8008,-1.8008,-1.8008,-1.8008,-1.8008,-1.8008,-1.7862,-1.7432,-1.6922,-1.628,-1.5438,-1.4307,-1.3528,-1.3091,-1.2592,-1.2305,-1.2305,-1.2305,-1.2305,-1.2305,-1.2305,-1.2305,-1.2305,-1.2305,-1.2305,0.0,0.0,0.0,0.0,0.0,0.0,-3.5679,-3.6009,-3.6229,-3.6927,0.0,0.0,0.0,0.0,0.0,0.0,0.0,0.0,0.0,0.0,0.0,0.0,0.0,0.0,-3.5016,-3.507,-3.5138,-3.5383,-3.535,-3.5311,-3.5311,-3.5288,-3.5311,-3.5353,-3.5415,-3.5465,-3.5507,-3.5493,-3.5493,-3.5493,-3.5493,-3.5493,-3.5493,-3.4944,-3.4694,-3.4653,-3.4062,-3.3807,-3.3807,-3.3807,-3.3807,-3.3707,-3.284,-3.2484,-3.2384,-3.1524,-3.119,-3.119,-3.119,-3.119,-3.1015,-2.9805,-2.9406,-2.918,-2.7993,-2.7625,-2.7625,-2.7625,-2.6587,-2.5508,-2.5398,-2.4323,-2.3185,-2.3138,-2.3078,-2.3078,-2.3078,-2.3078,-2.3078,-2.3078,-2.2506,-2.1741,-2.0782,-1.9944,-1.911,-1.8144,-1.8008,-1.8008,-1.8008,-1.8008,-1.8008,-1.8008,-1.8008,-1.7647,-1.6853,-1.6567,-1.572,-1.3954,-1.3673,-1.3171,-1.2305,-1.2305,-1.2305,-1.2305,-1.2305,-1.2305,-1.2305,-1.2305,-1.2305,-1.2305,-1.2305,-1.2305,0.0,0.0,0.0,0.0,0.0,0.0,-3.4211,-3.4284,-3.4321,0.0,0.0,0.0,0.0,0.0,0.0,0.0,0.0,0.0,0.0,0.0,0.0,0.0,0.0,0.0,-3.4774,-3.4774,-3.4793,-3.4851,-3.4423,-3.414,-3.414,-3.3678,-3.3737,-3.443,-3.4469,-3.4796,-3.5488,-3.5493,-3.5493,-3.5493,-3.5493,-3.5493,-3.5493,-3.4944,-3.4694,-3.4653,-3.4062,-3.3807,-3.3807,-3.3807,-3.3807,-3.3707,-3.284,-3.2484,-3.2384,-3.1524,-3.119,-3.119,-3.119,-3.119,-3.1015,-2.9805,-2.9406,-2.918,-2.7993,-2.7625,-2.7625,-2.7625,-2.6982,-2.6176,-2.5563,-2.4724,-2.3884,-2.3245,-2.3078,-2.3078,-2.3078,-2.3078,-2.3078,-2.3078,-2.2944,-2.2372,-2.0846,-2.0462,-1.9824,-1.8269,-1.8008,-1.8008,-1.8008,-1.8008,-1.8008,-1.8008,-1.8008,-1.794,-1.7725,-1.6367,-1.5305,-1.495,-1.3448,-1.2519,-1.2305,-1.2305,-1.2305,-1.2305,-1.2305,-1.2305,-1.2305,-1.2305,-1.2305,-1.2305,-1.2305,-1.2305,0.0,0.0,0.0,-3.3807,0.0,0.0,0.0,-3.3807,-3.3697,-3.3293,0.0,0.0,0.0,0.0,0.0,0.0,0.0,0.0,0.0,0.0,0.0,0.0,0.0,0.0,-3.4442,-3.4445,-3.4529,-3.4674,-3.4017,-3.3669,-3.3789,-3.3134,-3.3004,-3.3526,-3.3968,-3.441,-3.4853,-3.5276,-3.5493,-3.5493,-3.5493,-3.5493,-3.5493,-3.4944,-3.4694,-3.4653,-3.4062,-3.3807,-3.3807,-3.3807,-3.3807,-3.3707,-3.284,-3.2484,-3.2384,-3.1524,-3.119,-3.119,-3.119,-3.119,-3.1015,-2.9805,-2.9406,-2.918,-2.7993,-2.7625,-2.7625,-2.7625,-2.6811,-2.5837,-2.5508,-2.4553,-2.359,-2.3198,-2.3078,-2.3078,-2.3078,-2.3078,-2.3078,-2.3078,-2.2763,-2.2125,-2.0846,-2.0268,-1.9497,-1.8202,-1.8008,-1.8008,-1.8008,-1.8008,-1.8008,-1.8008,-1.8008,-1.7794,-1.7354,-1.6009,-1.5021,-1.445,-1.3091,-1.2305,-1.2305,-1.2305,-1.2305,-1.2305,-1.2305,-1.2305,-1.2305,-1.2305,-1.2305,-1.2305,-1.2305,-1.2305,0.0,0.0,0.0,0.0,0.0,-3.333,0.0,0.0,0.0,0.0,0.0,0.0,0.0,0.0,0.0,0.0,0.0,0.0,0.0,0.0,0.0,0.0,0.0,0.0,0.0,-3.3881,-3.4074,-3.4486,-3.3501,-3.3015,-3.3406,-3.2575,-3.2335,-3.282,-3.3551,-3.4103,-3.4449,-3.5161,-3.5493,-3.5493,-3.5493,-3.546,-3.5417,-3.4926,-3.4674,-3.4572,-3.4037,-3.3807,-3.3807,-3.3807,-3.3807,-3.3707,-3.284,-3.2484,-3.2384,-3.1524,-3.119,-3.119,-3.119,-3.1112,-3.0838,-2.9761,-2.9225,-2.8857,-2.7894,-2.7625,-2.7625,-2.7625,-2.6654,-2.5563,-2.5453,-2.4381,-2.3305,-2.3138,-2.3078,-2.3078,-2.3078,-2.3078,-2.3078,-2.3078,-2.2445,-2.1616,-2.0719,-1.9879,-1.8977,-1.8144,-1.8008,-1.8008,-1.8008,-1.8008,-1.8008,-1.8008,-1.7862,-1.7432,-1.6636,-1.5579,-1.4522,-1.3745,-1.2806,-1.2305,-1.2305,-1.2305,-1.2305,-1.2305,-1.2305,-1.2305,-1.2305,-1.2305,-1.2305,-1.2305,-1.2077,-1.1996,0.0,0.0,0.0,0.0,-3.2192,0.0,0.0,0.0,-3.0577,-3.0485,0.0,0.0,0.0,0.0,0.0,0.0,0.0,0.0,0.0,0.0,0.0,0.0,0.0,0.0,0.0,-3.2776,-3.3096,-3.3839,-3.2057,-3.1246,-3.1995,-3.0932,-3.102,-3.2592,-3.2889,-3.3795,-3.5353,-3.5449,-3.5493,-3.5493,-3.5493,-3.5369,-3.5157,-3.4851,-3.4529,-3.4242,-3.391,-3.3807,-3.3807,-3.3807,-3.3807,-3.3707,-3.284,-3.2484,-3.2384,-3.1524,-3.119,-3.119,-3.119,-3.0838,-3.0293,-2.9629,-2.8685,-2.776,-2.761,-2.7625,-2.7625,-2.7625,-2.6982,-2.6229,-2.5563,-2.4781,-2.4002,-2.3245,-2.3078,-2.3078,-2.3078,-2.3078,-2.3078,-2.3078,-2.2445,-2.1616,-2.0719,-1.9879,-1.8977,-1.8144,-1.8008,-1.8008,-1.8008,-1.8008,-1.8008,-1.8008,-1.7285,-1.6706,-1.6636,-1.4942,-1.381,-1.3745,-1.2806,-1.2305,-1.2305,-1.2305,-1.2305,-1.2305,-1.2305,-1.2305,-1.2305,-1.2305,-1.2305,-1.2305,-1.1391,-1.0932,0.0,0.0,0.0,0.0,0.0,0.0,-3.0925,0.0,-3.0081,0.0,0.0,0.0,0.0,0.0,0.0,0.0,0.0,0.0,0.0,0.0,0.0,0.0,0.0,0.0,0.0,0.0,0.0,0.0,-3.2514,-3.1779,-3.1812,-3.1313,-3.1296,-3.184,-3.2871,-3.3858,-3.4737,-3.5257,-3.5493,-3.5493,-3.5493,-3.5369,-3.5088,-3.4813,-3.4529,-3.4195,-3.3928,-3.3807,-3.3807,-3.3807,-3.368,-3.339,-3.2745,-3.2484,-3.2384,-3.1524,-3.119,-3.119,-3.119,-3.0781,-3.0123,-2.918,-2.8319,-2.7625,-2.7625,-2.7625,-2.7524,-2.7086,-2.6443,-2.5673,-2.4951,-2.4163,-2.3543,-2.3198,-2.3078,-2.3078,-2.3078,-2.3078,-2.3078,-2.3078,-2.2051,-2.1037,-2.0655,-1.9879,-1.8977,-1.8144,-1.8008,-1.8008,-1.8008,-1.8008,-1.8008,-1.8008,-1.7139,-1.6636,-1.6636,-1.4799,-1.3673,-1.3673,-1.2806,-1.2305,-1.2305,-1.2305,-1.2305,-1.2305,-1.2305,-1.2305,-1.2305,-1.2305,-1.1996,-1.1391,-1.1013,-1.0484,-3.2173,0.0,0.0,0.0,0.0,0.0,0.0,0.0,0.0,0.0,0.0,0.0,0.0,0.0,0.0,0.0,0.0,0.0,0.0,0.0,0.0,0.0,0.0,0.0,0.0,0.0,0.0,-3.3458,-3.2724,-3.2201,-3.2029,-3.1879,-3.178,-3.1762,-3.3094,-3.3971,-3.4332,-3.5028,-3.5354,-3.5289,-3.5289,-3.5138,-3.4851,-3.4655,-3.4379,-3.4093,-3.3876,-3.3807,-3.3807,-3.3807,-3.355,-3.3136,-3.2681,-3.2417,-3.2213,-3.1449,-3.119,-3.119,-3.119,-3.0699,-2.9848,-2.8638,-2.7944,-2.7625,-2.7625,-2.7625,-2.7458,-2.6721,-2.596,-2.5231,-2.4509,-2.3708,-2.3078,-2.3078,-2.3078,-2.3078,-2.3078,-2.3078,-2.3078,-2.3078,-2.1928,-2.0846,-2.0655,-1.9694,-1.8721,-1.8076,-1.8008,-1.8008,-1.8008,-1.8008,-1.7862,-1.7647,-1.6784,-1.607,-1.586,-1.4307,-1.331,-1.331,-1.2666,-1.2305,-1.2305,-1.2305,-1.2305,-1.2305,-1.2305,-1.215,-1.1922,-1.1922,-1.1242,-0.9959,-1.026,-0.9814,0.0,0.0,0.0,-3.0448,0.0,0.0,0.0,0.0,-2.9012,0.0,0.0,0.0,0.0,0.0,0.0,0.0,0.0,0.0,0.0,0.0,0.0,0.0,0.0,0.0,0.0,0.0,0.0,-3.2596,-3.188,-3.177,-3.2522,-3.208,-3.2151,-3.2918,-3.3488,-3.4087,-3.4676,-3.4962,-3.4981,-3.4733,-3.4733,-3.4551,-3.4223,-3.4223,-3.4068,-3.3815,-3.3788,-3.3807,-3.3807,-3.3807,-3.355,-3.3136,-3.2681,-3.2196,-3.1789,-3.1351,-3.119,-3.119,-3.119,-3.0435,-2.9225,-2.8042,-2.7625,-2.7625,-2.7625,-2.7625,-2.7458,-2.6721,-2.596,-2.5231,-2.4509,-2.3708,-2.3078,-2.3078,-2.3078,-2.3078,-2.3078,-2.3078,-2.3078,-2.3078,-2.2445,-2.1616,-2.0719,-1.9177,-1.8008,-1.8008,-1.8008,-1.8008,-1.8008,-1.8008,-1.7647,-1.6706,-1.5799,-1.4879,-1.389,-1.2879,-1.2372,-1.2372,-1.2298,-1.2305,-1.2305,-1.2305,-1.2305,-1.2305,-1.2305,-1.1848,-1.0864,-1.0864,-0.9809,-0.7931,-0.8917,-0.8841,0.0,0.0,-3.188,-3.054,0.0,0.0,0.0,0.0,0.0,0.0,0.0,0.0,0.0,0.0,0.0,0.0,0.0,0.0,0.0,0.0,0.0,0.0,0.0,0.0,0.0,0.0,0.0,-3.257,-3.2602,-3.2593,-3.2606,-3.2937,-3.3087,-3.3007,-3.3693,-3.4271,-3.4694,-3.4774,-3.4774,-3.4694,-3.4694,-3.4529,-3.42,-3.42,-3.4068,-3.3807,-3.3807,-3.3807,-3.3807,-3.3807,-3.339,-3.2713,-3.255,-3.2056,-3.1389,-3.1252,-3.119,-3.1095,-3.0293,-2.9717,-2.918,-2.7993,-2.7625,-2.7625,-2.7625,-2.7625,-2.7357,-2.6108,-2.5563,-2.5119,-2.3826,-2.3305,-2.3078,-2.3078,-2.3078,-2.3078,-2.3078,-2.3078,-2.2944,-2.2384,-2.1616,-2.0782,-1.9879,-1.8787,-1.8008,-1.8008,-1.8008,-1.8008,-1.8008,-1.8008,-1.7647,-1.6706,-1.579,-1.4807,-1.3818,-1.2806,-1.2305,-1.2305,-1.2305,-1.2305,-1.2305,-1.2305,-1.2305,-1.2305,-1.2305,-1.1842,-1.0783,-1.0783,-0.9734,-0.7783,-0.8161,-0.7783,-3.2045,-3.221,0.0,-3.0962,-3.1017,0.0,-2.9732,0.0,0.0,0.0,0.0,0.0,0.0,0.0,0.0,0.0,0.0,0.0,0.0,-2.7908,0.0,0.0,0.0,0.0,0.0,0.0,-3.1294,-3.2099,-3.2403,-3.2613,0.0,0.0,-3.3486,-3.3284,-3.3868,-3.4265,-3.4394,-3.4464,-3.4464,-3.4394,-3.4394,-3.426,-3.4068,-3.4068,-3.3961,-3.3807,-3.3807,-3.3807,-3.3807,-3.3807,-3.3284,-3.2484,-3.2484,-3.1967,-3.119,-3.119,-3.119,-3.1015,-2.9805,-2.9406,-2.918,-2.7993,-2.7625,-2.7625,-2.7625,-2.7625,-2.7246,-2.5556,-2.5218,-2.5009,-2.3288,-2.2987,-2.3078,-2.3078,-2.3078,-2.3078,-2.3078,-2.2884,-2.2506,-2.2002,-2.0974,-1.9944,-1.9431,-1.8596,-1.8008,-1.8008,-1.8008,-1.8008,-1.8008,-1.8008,-1.751,-1.6219,-1.5587,-1.4665,-1.331,-1.2666,-1.2305,-1.2305,-1.2305,-1.2305,-1.2305,-1.2305,-1.2305,-1.2305,-1.2305,-1.162,-1.0265,-1.0265,-0.921,-0.7249,-0.7249,-0.6945]},{"header":{"parameterUnit":"m.s-1","parameterCategory":1,"la1":30.6,"la2":29.2853,"lo1":-89.7004,"lo2":-87.6739,"dy":0.0162,"dx":0.0183,"nx":112,"ny":82,"refTime":"2023-03-04T06:00:00:Z","depth":0,"parameterNumber":3,"parameterNumberName":"V-component_of_WINDS"},"data":[0.0,0.0,0.0,0.0,0.0,0.0,0.0,0.0,0.0,0.0,0.0,0.0,0.0,0.0,0.0,0.0,0.0,0.0,0.0,0.0,0.0,0.0,0.0,0.0,0.0,0.0,0.0,0.0,0.0,0.0,0.0,0.0,0.0,0.0,0.0,0.0,0.0,0.0,0.0,0.0,0.0,0.0,0.0,0.0,0.0,0.0,0.0,0.0,0.0,0.0,0.0,0.0,0.0,0.0,0.0,0.0,0.0,0.0,0.0,0.0,0.0,0.0,0.0,0.0,0.0,0.0,0.0,0.0,0.0,0.0,0.0,0.0,0.0,0.0,0.0,0.0,0.0,0.0,0.0,0.0,0.0,0.0,0.0,0.0,0.0,0.0,0.0,0.0,0.0,0.0,-2.8325,-2.7628,-2.6691,-2.6413,-2.7189,-2.8461,-2.9504,-3.0269,0.0,0.0,0.0,0.0,0.0,0.0,0.0,0.0,0.0,0.0,0.0,0.0,0.0,0.0,0.0,0.0,0.0,0.0,0.0,0.0,0.0,0.0,0.0,0.0,0.0,0.0,0.0,0.0,0.0,0.0,0.0,0.0,0.0,0.0,0.0,0.0,0.0,0.0,0.0,0.0,0.0,0.0,0.0,0.0,0.0,0.0,0.0,0.0,0.0,0.0,0.0,0.0,0.0,0.0,0.0,0.0,0.0,0.0,0.0,0.0,0.0,0.0,0.0,0.0,0.0,0.0,0.0,0.0,0.0,0.0,0.0,0.0,0.0,0.0,0.0,0.0,0.0,0.0,0.0,0.0,0.0,0.0,0.0,0.0,0.0,0.0,0.0,0.0,0.0,0.0,0.0,0.0,0.0,0.0,0.0,0.0,0.0,0.0,0.0,0.0,0.0,0.0,0.0,0.0,-2.9304,-2.9,-2.8677,-2.8548,-2.8675,-2.9572,-3.0147,-3.0269,0.0,0.0,0.0,0.0,0.0,0.0,0.0,0.0,0.0,0.0,0.0,0.0,0.0,0.0,0.0,0.0,0.0,0.0,0.0,0.0,0.0,0.0,0.0,0.0,0.0,0.0,0.0,0.0,0.0,0.0,0.0,0.0,0.0,0.0,0.0,0.0,0.0,0.0,0.0,0.0,0.0,0.0,0.0,0.0,0.0,0.0,0.0,0.0,0.0,0.0,0.0,0.0,0.0,0.0,0.0,0.0,0.0,0.0,0.0,0.0,0.0,0.0,0.0,0.0,0.0,0.0,0.0,0.0,0.0,0.0,0.0,0.0,0.0,0.0,0.0,0.0,0.0,0.0,0.0,0.0,0.0,0.0,0.0,0.0,0.0,0.0,0.0,0.0,0.0,0.0,0.0,0.0,0.0,0.0,0.0,0.0,0.0,0.0,0.0,0.0,0.0,0.0,0.0,-2.9842,-2.9387,-2.9808,-2.8899,-2.8684,-2.9628,-3.0072,-3.0524,-3.0896,-3.1278,0.0,0.0,0.0,0.0,0.0,0.0,0.0,0.0,0.0,0.0,0.0,0.0,0.0,0.0,0.0,0.0,0.0,0.0,0.0,0.0,0.0,0.0,0.0,0.0,0.0,0.0,0.0,0.0,0.0,0.0,0.0,0.0,0.0,0.0,0.0,0.0,0.0,0.0,0.0,0.0,0.0,0.0,0.0,0.0,0.0,0.0,0.0,0.0,0.0,0.0,0.0,0.0,0.0,0.0,0.0,0.0,0.0,0.0,0.0,0.0,0.0,0.0,0.0,0.0,0.0,0.0,0.0,0.0,0.0,0.0,0.0,0.0,0.0,0.0,0.0,0.0,0.0,0.0,0.0,0.0,0.0,0.0,0.0,0.0,0.0,0.0,0.0,0.0,0.0,0.0,0.0,0.0,0.0,0.0,0.0,0.0,0.0,0.0,0.0,0.0,0.0,0.0,-3.0389,-2.9827,-3.0524,-2.938,-2.9129,-3.0464,-3.0584,-3.0763,-3.1243,-3.1228,0.0,0.0,0.0,0.0,0.0,0.0,0.0,0.0,0.0,0.0,0.0,0.0,0.0,0.0,0.0,0.0,0.0,0.0,0.0,0.0,0.0,0.0,0.0,0.0,0.0,0.0,0.0,0.0,0.0,0.0,0.0,0.0,0.0,0.0,0.0,0.0,0.0,0.0,0.0,0.0,0.0,0.0,0.0,0.0,0.0,0.0,0.0,0.0,0.0,0.0,0.0,0.0,0.0,0.0,0.0,0.0,0.0,0.0,0.0,0.0,0.0,0.0,0.0,0.0,0.0,0.0,0.0,0.0,0.0,0.0,0.0,0.0,0.0,0.0,0.0,0.0,0.0,0.0,0.0,0.0,0.0,0.0,0.0,0.0,0.0,0.0,0.0,0.0,0.0,0.0,0.0,0.0,0.0,0.0,0.0,0.0,0.0,0.0,0.0,0.0,0.0,0.0,-3.1409,-3.1351,-3.1409,-3.1278,-3.1278,-3.1409,-3.1409,-3.1198,-3.0612,-3.0567,0.0,0.0,0.0,0.0,0.0,0.0,0.0,0.0,0.0,0.0,0.0,0.0,0.0,0.0,0.0,0.0,0.0,0.0,0.0,0.0,0.0,0.0,0.0,0.0,0.0,0.0,0.0,0.0,0.0,0.0,0.0,0.0,0.0,0.0,0.0,0.0,0.0,0.0,0.0,0.0,0.0,0.0,0.0,0.0,0.0,0.0,0.0,0.0,0.0,0.0,0.0,0.0,0.0,0.0,0.0,0.0,0.0,0.0,0.0,0.0,0.0,0.0,0.0,0.0,0.0,0.0,0.0,0.0,0.0,0.0,0.0,0.0,0.0,0.0,0.0,0.0,0.0,0.0,0.0,0.0,0.0,0.0,0.0,0.0,0.0,0.0,0.0,0.0,0.0,0.0,0.0,0.0,0.0,0.0,0.0,0.0,0.0,0.0,0.0,0.0,0.0,0.0,-3.1087,-3.097,0.0,-3.1029,-3.097,-3.1467,-3.1482,-3.124,-3.0552,0.0,0.0,0.0,0.0,0.0,0.0,0.0,0.0,0.0,0.0,0.0,0.0,0.0,0.0,0.0,0.0,0.0,0.0,0.0,0.0,0.0,0.0,0.0,0.0,0.0,0.0,0.0,0.0,0.0,0.0,0.0,0.0,0.0,0.0,0.0,0.0,0.0,0.0,0.0,0.0,0.0,0.0,0.0,0.0,0.0,0.0,0.0,0.0,0.0,0.0,0.0,0.0,0.0,0.0,0.0,0.0,0.0,0.0,0.0,0.0,0.0,0.0,0.0,0.0,0.0,0.0,0.0,0.0,0.0,0.0,0.0,0.0,0.0,0.0,0.0,0.0,0.0,0.0,0.0,0.0,0.0,0.0,0.0,0.0,0.0,0.0,0.0,0.0,0.0,0.0,0.0,0.0,0.0,0.0,0.0,0.0,0.0,0.0,0.0,0.0,0.0,0.0,-3.121,-3.0896,-3.0896,0.0,-3.1029,-3.0896,-3.1467,-3.1482,-3.115,-3.0268,0.0,0.0,0.0,0.0,0.0,0.0,0.0,0.0,0.0,0.0,0.0,0.0,0.0,0.0,0.0,0.0,0.0,0.0,0.0,0.0,0.0,0.0,0.0,0.0,0.0,0.0,0.0,0.0,0.0,0.0,0.0,0.0,0.0,0.0,0.0,0.0,0.0,0.0,0.0,0.0,0.0,0.0,0.0,0.0,0.0,0.0,0.0,0.0,0.0,0.0,0.0,0.0,0.0,0.0,0.0,0.0,0.0,0.0,0.0,0.0,0.0,0.0,0.0,0.0,0.0,0.0,0.0,0.0,0.0,0.0,0.0,0.0,0.0,0.0,0.0,0.0,0.0,0.0,0.0,0.0,0.0,0.0,0.0,0.0,0.0,0.0,0.0,0.0,0.0,0.0,0.0,0.0,0.0,0.0,0.0,0.0,0.0,0.0,0.0,0.0,0.0,0.0,-3.0507,-3.1106,-3.1482,-3.1482,-3.1482,-3.1482,-3.1482,-3.1482,-3.0971,0.0,0.0,0.0,0.0,0.0,0.0,0.0,0.0,0.0,0.0,0.0,0.0,0.0,0.0,0.0,0.0,0.0,0.0,0.0,0.0,0.0,0.0,0.0,0.0,0.0,0.0,0.0,0.0,0.0,0.0,0.0,0.0,0.0,0.0,0.0,0.0,0.0,0.0,0.0,0.0,0.0,0.0,0.0,0.0,0.0,0.0,0.0,0.0,0.0,0.0,0.0,0.0,0.0,0.0,0.0,0.0,0.0,0.0,0.0,0.0,0.0,0.0,0.0,0.0,0.0,0.0,0.0,0.0,0.0,0.0,0.0,0.0,0.0,0.0,0.0,0.0,0.0,0.0,0.0,0.0,0.0,0.0,0.0,0.0,0.0,0.0,0.0,0.0,0.0,0.0,0.0,0.0,0.0,0.0,0.0,0.0,0.0,0.0,0.0,0.0,0.0,0.0,0.0,-3.0507,-3.1106,-3.1482,-3.1482,-3.1482,-3.1482,-3.1482,-3.1482,-3.0971,-2.9669,0.0,0.0,0.0,0.0,0.0,0.0,0.0,0.0,0.0,0.0,0.0,0.0,0.0,0.0,0.0,0.0,0.0,0.0,0.0,0.0,0.0,0.0,0.0,0.0,0.0,0.0,0.0,0.0,0.0,0.0,0.0,0.0,0.0,0.0,0.0,0.0,0.0,0.0,0.0,0.0,0.0,0.0,0.0,0.0,0.0,0.0,0.0,0.0,0.0,0.0,0.0,0.0,0.0,0.0,0.0,0.0,0.0,0.0,0.0,0.0,0.0,0.0,0.0,0.0,0.0,0.0,0.0,0.0,0.0,0.0,0.0,0.0,0.0,0.0,0.0,0.0,0.0,0.0,0.0,0.0,0.0,0.0,0.0,0.0,0.0,0.0,0.0,0.0,0.0,0.0,0.0,0.0,0.0,0.0,0.0,0.0,0.0,0.0,0.0,0.0,0.0,0.0,-3.0133,-3.0956,-3.1482,-3.1482,-3.1482,-3.1482,-3.1482,-3.1482,-3.1189,-3.0433,0.0,0.0,0.0,0.0,0.0,0.0,0.0,0.0,0.0,0.0,0.0,0.0,0.0,0.0,0.0,0.0,0.0,0.0,0.0,0.0,0.0,0.0,0.0,0.0,0.0,0.0,0.0,0.0,0.0,0.0,0.0,0.0,0.0,0.0,0.0,0.0,0.0,0.0,0.0,0.0,0.0,0.0,0.0,0.0,0.0,0.0,0.0,0.0,0.0,0.0,0.0,0.0,0.0,0.0,0.0,0.0,0.0,0.0,0.0,0.0,0.0,0.0,0.0,0.0,0.0,0.0,0.0,0.0,0.0,0.0,0.0,0.0,0.0,0.0,0.0,0.0,0.0,0.0,0.0,0.0,0.0,0.0,0.0,0.0,0.0,0.0,0.0,0.0,0.0,0.0,0.0,0.0,0.0,0.0,0.0,0.0,0.0,0.0,0.0,0.0,0.0,0.0,-2.9579,-3.0731,-3.1482,-3.1482,-3.1482,-3.1482,-3.1482,-3.1482,-3.1509,-3.1626,0.0,0.0,0.0,0.0,0.0,0.0,0.0,0.0,0.0,0.0,0.0,0.0,0.0,0.0,0.0,0.0,0.0,0.0,0.0,0.0,0.0,0.0,0.0,0.0,0.0,0.0,0.0,0.0,0.0,0.0,0.0,0.0,0.0,0.0,0.0,0.0,0.0,0.0,0.0,0.0,0.0,0.0,0.0,0.0,0.0,0.0,0.0,0.0,0.0,0.0,0.0,0.0,0.0,0.0,0.0,0.0,0.0,0.0,0.0,0.0,-2.0566,0.0,0.0,0.0,0.0,0.0,0.0,0.0,0.0,0.0,0.0,0.0,0.0,0.0,0.0,0.0,0.0,0.0,0.0,0.0,0.0,0.0,0.0,0.0,0.0,0.0,0.0,0.0,0.0,0.0,0.0,0.0,0.0,0.0,0.0,0.0,0.0,0.0,0.0,0.0,0.0,0.0,-2.9579,-3.0731,-3.1482,-3.1482,-3.1482,-3.1482,-3.1482,-3.1482,-3.1509,-3.1626,-3.2029,0.0,0.0,0.0,0.0,0.0,0.0,0.0,0.0,0.0,0.0,0.0,0.0,0.0,0.0,0.0,0.0,0.0,0.0,0.0,0.0,0.0,0.0,0.0,0.0,0.0,0.0,0.0,0.0,0.0,0.0,0.0,0.0,0.0,0.0,0.0,0.0,0.0,0.0,0.0,0.0,0.0,0.0,0.0,0.0,0.0,0.0,0.0,0.0,0.0,0.0,0.0,0.0,0.0,0.0,0.0,0.0,0.0,0.0,0.0,0.0,-2.0566,0.0,0.0,0.0,0.0,0.0,0.0,0.0,0.0,0.0,0.0,0.0,0.0,0.0,0.0,0.0,0.0,0.0,0.0,0.0,0.0,0.0,0.0,0.0,0.0,0.0,0.0,0.0,0.0,0.0,0.0,0.0,0.0,0.0,0.0,0.0,0.0,0.0,0.0,0.0,0.0,-2.9579,-3.0731,-3.1482,-3.1482,-3.1482,-3.1482,-3.1482,-3.1796,-3.2173,-3.2521,-3.2834,0.0,0.0,0.0,0.0,0.0,0.0,0.0,0.0,0.0,0.0,0.0,0.0,0.0,0.0,0.0,0.0,0.0,0.0,0.0,0.0,0.0,0.0,0.0,0.0,0.0,0.0,0.0,0.0,0.0,0.0,0.0,0.0,0.0,0.0,0.0,0.0,0.0,0.0,0.0,0.0,0.0,0.0,0.0,0.0,0.0,0.0,0.0,0.0,0.0,0.0,0.0,0.0,0.0,-1.7029,-1.8234,-1.8315,-1.9917,-2.0566,-2.0566,-2.0566,-2.0566,-2.0566,-2.0566,0.0,0.0,0.0,0.0,0.0,0.0,0.0,0.0,0.0,0.0,0.0,0.0,0.0,0.0,0.0,0.0,0.0,0.0,0.0,0.0,0.0,0.0,0.0,0.0,-3.1482,-3.1482,0.0,0.0,0.0,0.0,0.0,0.0,0.0,0.0,0.0,0.0,0.0,0.0,-2.9729,-3.0791,-3.1482,-3.1482,-3.1482,-3.1482,-3.1482,-3.2176,-3.2895,-3.3531,-3.3649,-3.423,0.0,0.0,0.0,0.0,0.0,0.0,0.0,0.0,0.0,0.0,0.0,0.0,0.0,0.0,0.0,0.0,0.0,0.0,0.0,0.0,0.0,0.0,0.0,0.0,0.0,0.0,0.0,0.0,0.0,0.0,0.0,0.0,-1.2305,-1.2305,0.0,0.0,0.0,0.0,0.0,0.0,0.0,0.0,0.0,0.0,0.0,0.0,0.0,-1.2899,-1.3206,-1.3365,-1.3566,-1.3818,-1.6055,-1.7262,-1.751,-1.965,-2.0566,-2.0566,-2.0566,0.0,-2.0566,-2.0566,0.0,0.0,0.0,0.0,0.0,0.0,0.0,0.0,0.0,0.0,0.0,0.0,0.0,0.0,0.0,0.0,0.0,0.0,0.0,0.0,0.0,0.0,-3.1482,-3.1482,-3.1482,-3.1482,0.0,-3.1482,-3.1302,-3.0746,-3.0507,0.0,0.0,0.0,0.0,0.0,0.0,0.0,-3.0313,-3.1061,-3.1482,-3.1482,-3.1482,-3.1482,-3.1482,-3.2176,-3.2895,-3.3531,-3.4154,-3.4496,-3.4614,-3.5081,0.0,0.0,0.0,0.0,0.0,0.0,0.0,0.0,0.0,0.0,0.0,0.0,0.0,0.0,0.0,0.0,0.0,0.0,0.0,0.0,0.0,0.0,0.0,0.0,0.0,0.0,0.0,0.0,0.0,-1.2164,-1.1893,-1.152,-1.1465,-1.1242,0.0,0.0,0.0,0.0,0.0,0.0,0.0,0.0,0.0,-1.2492,-1.2735,-1.2889,-1.2946,-1.3126,-1.3273,-1.34,-1.5128,-1.6389,-1.7108,-1.8928,-2.0001,-2.0566,-2.0566,-2.0566,-2.0566,-2.0566,-2.0566,-2.0644,0.0,0.0,0.0,0.0,-2.5134,-2.6533,-2.6533,-2.6319,0.0,-2.5975,0.0,0.0,0.0,0.0,0.0,0.0,0.0,0.0,0.0,0.0,-3.1482,-3.1482,-3.1482,-3.1482,-3.1482,-3.1482,-3.1377,0.0,-3.0776,-3.0223,-2.931,0.0,0.0,0.0,0.0,-3.0193,-3.0477,-3.1106,-3.1482,-3.1482,-3.1482,-3.1697,-3.2064,-3.2788,-3.3443,-3.4137,-3.48,-3.5165,-3.5131,-3.503,-3.4878,0.0,0.0,0.0,0.0,0.0,0.0,0.0,0.0,0.0,0.0,0.0,0.0,0.0,0.0,0.0,0.0,0.0,0.0,0.0,0.0,0.0,0.0,0.0,0.0,0.0,0.0,0.0,0.0,-1.1741,-1.1319,-1.0542,-1.0864,-1.0789,0.0,0.0,0.0,0.0,0.0,0.0,-1.2298,-1.2378,-1.2418,-1.2418,-1.2705,-1.2866,-1.2866,-1.3166,-1.332,-1.3327,-1.4714,-1.5973,-1.7088,-1.8417,-1.9599,-2.0566,-2.0566,-2.0566,-2.0566,-2.0566,-2.0566,-2.0644,-2.0857,-2.1973,-2.3514,-2.3818,-2.4981,-2.6533,-2.6533,-2.6176,-2.5824,-2.5824,0.0,-2.5807,-2.7022,0.0,0.0,0.0,0.0,-3.1482,-3.1482,-3.1482,-3.1482,-3.1482,-3.1482,-3.1482,-3.1482,-3.1482,-3.1482,0.0,-3.112,-3.0567,-2.9924,0.0,0.0,0.0,0.0,-3.0567,-3.0746,-3.121,-3.1482,-3.1482,-3.1697,-3.2007,-3.2532,-3.3391,-3.4087,-3.4576,-3.5207,-3.5622,-3.5622,-3.5081,-3.4962,-3.5318,0.0,0.0,0.0,0.0,0.0,0.0,0.0,0.0,0.0,0.0,0.0,0.0,0.0,0.0,0.0,0.0,0.0,0.0,0.0,0.0,0.0,0.0,0.0,0.0,0.0,0.0,0.0,0.0,0.0,-0.9518,-1.1025,0.0,0.0,0.0,0.0,-1.215,-1.1391,-1.1316,-1.2224,-1.2565,-1.2802,-1.2802,-1.3026,-1.3186,-1.3186,-1.348,-1.3539,-1.3621,-1.5039,-1.625,-1.7309,-1.8461,-1.9599,-2.0566,-2.0566,-2.0566,-2.0566,-2.0566,-2.0566,-2.0722,-2.1593,-2.2553,-2.3599,-2.4564,-2.5581,-2.6533,-2.6533,-2.6508,-2.6483,-2.6483,-2.6976,-2.7709,-2.863,-2.9538,0.0,0.0,-3.1467,-3.1482,-3.1482,-3.1482,-3.1482,-3.1482,-3.1482,-3.1482,-3.1482,-3.1482,-3.1482,0.0,-3.1452,-3.127,-3.0567,0.0,-3.0447,-3.0417,-3.0462,-3.0746,-3.1405,-3.1452,-3.1482,-3.1482,-3.212,-3.2532,-3.2586,-3.3786,-3.4576,-3.4576,-3.5207,-3.5622,-3.5622,-3.5588,-3.525,-3.4556,-3.4506,0.0,0.0,0.0,0.0,0.0,0.0,0.0,0.0,0.0,0.0,0.0,0.0,0.0,0.0,0.0,0.0,0.0,0.0,0.0,0.0,0.0,0.0,0.0,0.0,0.0,0.0,0.0,0.0,-0.9432,-0.9367,0.0,-0.8003,-0.8456,-0.9291,-1.0271,-1.0802,-1.1511,-1.2585,-1.2879,-1.3046,-1.3046,-1.3333,-1.3487,-1.3487,-1.3781,-1.3928,-1.3928,-1.4441,-1.5545,-1.7334,-1.7738,-1.8868,-2.0566,-2.0566,-2.0566,-2.0566,-2.0566,-2.0566,-2.0644,-2.0934,-2.2113,-2.3514,-2.3891,-2.5063,-2.6533,-2.6533,-2.6214,-2.585,-2.5511,-2.5823,-2.6528,-2.7349,-2.851,-2.9628,-3.0524,-3.1087,-3.1482,-3.1482,-3.1482,-3.1482,-3.1482,-3.1482,-3.1482,-3.1482,-3.1482,-3.1482,-3.1482,-3.1482,-3.1315,-3.0627,-3.0866,-3.1016,-3.0567,-3.0881,-3.1255,-3.1437,-3.1482,-3.1682,-3.2176,-3.2437,-3.2949,-3.3836,-3.4333,-3.4783,-3.5207,-3.547,-3.5622,-3.5622,-3.5622,-3.5504,-3.5216,-3.5216,-3.4742,0.0,0.0,0.0,0.0,0.0,0.0,0.0,0.0,0.0,0.0,0.0,0.0,0.0,0.0,0.0,0.0,0.0,0.0,0.0,0.0,0.0,0.0,0.0,0.0,0.0,0.0,-0.9199,-0.8371,-0.8313,-0.7957,-0.6943,-0.7488,-0.8285,-0.9359,-1.0277,-1.1233,-1.2337,-1.2942,-1.3353,-1.3353,-1.3641,-1.3794,-1.3794,-1.3988,-1.4088,-1.4088,-1.4088,-1.5285,-1.7524,-1.7524,-1.8744,-2.0791,-2.0791,-2.0703,-2.0566,-2.0566,-2.0566,-2.0566,-2.0566,-2.1821,-2.3514,-2.3514,-2.4767,-2.6533,-2.6533,-2.6214,-2.5837,-2.5485,-2.5598,-2.6143,-2.7285,-2.8243,-2.9254,-3.0389,-3.1087,-3.1482,-3.1482,-3.1482,-3.1482,-3.1482,-3.1482,-3.1482,-3.1482,-3.1482,-3.1482,-3.1482,-3.1482,-3.139,-3.0926,-3.124,-3.1342,-3.086,-3.1399,-3.1875,-3.1855,-3.2063,-3.2422,-3.2895,-3.3145,-3.3633,-3.4528,-3.4551,-3.4877,-3.556,-3.5385,-3.5351,-3.5605,-3.5368,-3.5233,-3.5233,-3.5233,-3.483,-3.4038,0.0,0.0,0.0,0.0,0.0,0.0,0.0,0.0,0.0,0.0,0.0,0.0,0.0,0.0,0.0,0.0,0.0,0.0,0.0,0.0,0.0,0.0,0.0,-0.7931,-0.7783,-0.7407,-0.6497,-0.8016,-0.8856,-0.8036,-0.7974,-0.8444,-0.9528,-0.9786,-1.0358,-1.1416,-1.2826,-1.3572,-1.3572,-1.3935,-1.4088,-1.4088,-1.4088,-1.4088,-1.4088,-1.4088,-1.5478,-1.7954,-1.7946,-1.9115,-2.1131,-2.1131,-2.0967,-2.0566,-2.0566,-2.0566,-2.0566,-2.0566,-2.1821,-2.3514,-2.3514,-2.4767,-2.6533,-2.6533,-2.6533,-2.6533,-2.6533,-2.6521,-2.685,-2.8492,-2.9002,-2.938,-3.1029,-3.1482,-3.1482,-3.1482,-3.1482,-3.1482,-3.1482,-3.1482,-3.1482,-3.1482,-3.1482,-3.1482,-3.1482,-3.1482,-3.1482,-3.1482,-3.1482,-3.1513,-3.1428,-3.2083,0.0,-3.2536,-3.3182,-3.3582,-3.3617,-3.4203,-3.4591,-3.4607,-3.4549,-3.481,-3.5571,-3.4928,-3.4861,-3.5588,-3.4912,-3.4523,-3.4523,-3.4523,-3.4806,-3.5347,0.0,0.0,0.0,0.0,0.0,0.0,0.0,0.0,0.0,0.0,0.0,0.0,0.0,0.0,0.0,0.0,0.0,0.0,0.0,0.0,0.0,0.0,-0.7249,-0.7706,-0.7783,-0.7752,-0.7568,-0.7352,-0.7179,-0.7108,-0.704,-0.7464,-0.8569,-0.8861,-0.9854,-1.1676,-1.2338,-1.309,-1.3961,-1.4041,-1.4088,-1.4088,-1.4088,-1.4088,-1.4088,-1.4088,-1.486,-1.6329,-1.7163,-1.8305,-1.9617,-2.0428,-2.0674,-2.0566,-2.0566,-2.0566,-2.0566,-2.0566,-2.1821,-2.3514,-2.3514,-2.4767,-2.6533,-2.6533,-2.6533,-2.6533,-2.6533,-2.6905,-2.7537,-2.8684,-2.9442,-3.0147,-3.1219,-3.1482,-3.1482,-3.1482,-3.1482,-3.1482,-3.1482,-3.1482,-3.1482,-3.1482,-3.1482,-3.1482,-3.1482,-3.1482,-3.1482,-3.1482,-3.1482,-3.1679,-3.2214,-3.2462,0.0,-3.324,-3.347,-3.3593,-3.3534,-3.3676,-3.4005,-3.4494,-3.4503,-3.481,-3.5571,-3.5419,-3.5402,-3.5605,-3.5419,-3.5318,-3.5318,-3.5318,-3.5574,0.0,0.0,0.0,0.0,0.0,0.0,0.0,0.0,0.0,0.0,0.0,0.0,0.0,0.0,0.0,0.0,0.0,0.0,0.0,0.0,0.0,0.0,-0.6101,-0.6511,-0.7188,-0.7278,-0.7313,-0.7327,-0.6929,-0.6627,-0.678,-0.6797,-0.707,-0.7716,-0.8406,-0.9572,-1.1264,-1.1991,-1.2851,-1.4088,-1.4088,-1.4088,-1.4088,-1.4088,-1.4088,-1.4088,-1.4088,-1.4719,-1.5981,-1.7062,-1.822,-1.9281,-2.0356,-2.0742,-2.0566,-2.0566,-2.0566,0.0,0.0,0.0,0.0,0.0,-2.5499,-2.6533,-2.6533,-2.6533,-2.6533,-2.6533,-2.704,-2.7855,-2.8748,-2.9628,-3.0464,-3.1278,-3.1482,-3.1482,-3.1482,-3.1482,-3.1482,-3.1482,-3.1482,-3.1392,-3.1165,-3.1106,-3.1031,-3.0761,-3.0926,0.0,-3.1485,-3.1501,-3.1747,-3.2451,-3.2814,-3.3244,-3.3876,-3.4267,-3.4444,-3.4376,-3.4372,-3.4526,-3.4918,-3.4675,0.0,0.0,0.0,-3.5148,-3.5148,-3.5148,0.0,0.0,0.0,-3.6051,-3.6908,0.0,0.0,0.0,-4.0247,-4.0769,0.0,0.0,0.0,0.0,0.0,0.0,0.0,0.0,0.0,0.0,0.0,0.0,0.0,0.0,0.0,0.0,-0.6173,-0.6329,-0.6454,-0.6502,-0.6522,-0.6522,-0.6644,-0.6787,-0.6939,-0.6953,-0.7004,-0.7132,-0.8105,-0.9231,-1.0351,0.0,0.0,0.0,0.0,-1.4088,-1.4088,-1.4088,-1.4088,-1.4088,-1.4088,-1.4796,-1.6129,-1.7311,-1.8402,-1.9389,-2.0571,-2.0937,-2.0566,-2.0566,-2.0566,-2.0644,-2.0867,-2.1973,-2.3734,-2.5791,-2.6533,-2.6533,-2.6533,0.0,0.0,-2.6533,-2.7095,-2.7986,-2.8748,-2.969,-3.0584,-3.1278,-3.1482,-3.1482,-3.1482,-3.1482,-3.1452,-3.1435,-3.1362,-3.124,-3.0552,-3.0402,-3.0238,-2.9684,-3.0028,-3.0609,-3.135,-3.1576,-3.185,-3.2615,-3.3299,-3.3909,-3.456,-3.5199,-3.5588,-3.5504,0.0,0.0,-3.5504,-3.4878,-3.481,-3.5571,-3.4996,-3.4624,-3.4624,-3.4624,-3.4624,-3.4624,-3.5453,-3.6433,-3.762,-3.9188,-4.0184,-4.0581,-3.9305,-3.9474,0.0,0.0,0.0,0.0,0.0,0.0,0.0,0.0,0.0,0.0,0.0,0.0,0.0,0.0,0.0,-0.6169,-0.6257,-0.6441,-0.6468,-0.6685,-0.6841,-0.6841,-0.6868,-0.6943,-0.7085,-0.7099,-0.7109,-0.7139,-0.7316,-0.7925,-0.9148,-1.0269,-1.1472,-1.2589,-1.3555,-1.4088,-1.4088,-1.4088,-1.4088,-1.4088,0.0,0.0,-1.4578,-1.6547,-1.7523,-1.7848,-1.9878,-2.0644,-2.0566,-2.0566,-2.0566,-2.0789,-2.2339,-2.3147,-2.3734,-2.5791,-2.6533,-2.6533,-2.6533,-2.6533,-2.6533,-2.6533,-2.755,-2.8812,-2.8939,-3.0072,0.0,-3.1467,-3.1482,-3.1482,-3.1482,-3.1482,-3.1332,-3.0836,-3.0702,-3.0522,-2.9894,-2.9759,-2.9729,-2.9609,-2.9669,-2.9946,-3.0603,-3.162,-3.2795,-3.4007,-3.43,-3.4638,-3.5313,-3.552,-3.5385,-3.4776,-3.4709,-3.4709,-3.4709,-3.4573,-3.481,-3.5571,-3.5487,-3.5402,-3.5402,-3.5402,-3.5402,-3.5402,-3.6755,-3.7809,-3.8469,-3.995,-4.0741,-4.0815,-4.0565,-4.111,0.0,0.0,0.0,0.0,0.0,0.0,0.0,0.0,0.0,0.0,0.0,-0.8231,0.0,0.0,-0.6592,-0.63,-0.6376,-0.6525,-0.6678,-0.6831,-0.6929,-0.6929,-0.6993,-0.7061,-0.7132,-0.7139,-0.7139,-0.7139,-0.7139,-0.7665,-0.8803,-1.0009,-1.1128,-1.2242,-1.347,-1.4088,-1.4088,-1.4088,-1.4088,-1.4088,-1.4088,-1.4088,-1.4173,-1.6281,-1.7342,-1.7415,-1.9678,-2.0566,-2.0566,-2.0566,-2.0566,-2.0789,-2.2702,-2.3514,-2.3734,-2.5791,-2.6533,-2.6533,-2.6533,-2.6533,-2.6533,-2.6533,-2.7604,-2.9002,-2.9002,-3.0147,-3.1482,-3.1482,-3.1482,-3.1482,-3.1482,-3.1285,-3.0926,-3.0582,-3.0268,-2.9864,-2.9235,-2.9086,-2.8981,-2.8637,-2.9078,-2.9756,-3.0396,-3.1609,-3.2819,-3.3904,-3.4345,-3.483,-3.5515,-3.5622,-3.547,-3.5098,-3.5064,-3.5064,-3.5064,-3.5064,-3.5216,-3.5605,-3.5622,-3.5622,-3.5622,-3.5622,-3.5622,-3.5622,-3.7382,-3.8418,-3.8677,-4.0472,-4.1223,-4.0903,-4.1223,-4.1664,0.0,0.0,0.0,0.0,0.0,0.0,0.0,0.0,-0.8038,-0.9265,-0.8322,-0.7227,-0.715,-0.6514,-0.6162,-0.643,-0.6498,-0.6614,-0.6892,-0.6953,-0.697,-0.697,-0.7071,-0.7139,-0.7139,-0.7139,-0.7139,-0.7139,-0.7139,-0.7492,-0.854,-0.9836,-1.1042,-1.1901,-1.3379,-1.4088,-1.4088,-1.4088,-1.4088,-1.4088,-1.4088,-1.4088,-1.4173,-1.6281,-1.7342,-1.7415,-1.9678,-2.0566,-2.0566,-2.0566,-2.0566,-2.0789,-2.2702,-2.3514,-2.3734,-2.5791,-2.6533,-2.6533,-2.6533,-2.6533,-2.6533,-2.6533,-2.755,-2.8812,-2.8939,-3.0072,-3.1278,-3.1467,-3.1482,-3.1482,-3.1482,-3.1016,-3.0477,-3.0357,-2.9849,-2.9205,-2.8547,-2.8501,-2.8423,-2.7866,-2.8716,-2.9689,-3.0376,-3.143,-3.25,-3.3346,-3.4121,-3.4788,-3.5296,-3.552,-3.5622,-3.5622,-3.5622,-3.5622,-3.5622,-3.5622,-3.5622,-3.5622,-3.5622,-3.5622,-3.5622,-3.5622,-3.5667,-3.5739,-3.7671,-3.8764,-3.885,-4.082,-4.1534,-4.1087,-4.1707,-4.1895,-1.2243,-1.1823,-1.1528,-1.1028,-0.8541,-0.6305,0.0,0.0,-0.8495,-0.8125,-0.7871,-0.7423,-0.6612,-0.6311,-0.6288,-0.6444,-0.6586,-0.6732,-0.6905,-0.7037,-0.7115,-0.7115,-0.7132,-0.7139,-0.7139,-0.7139,-0.7139,-0.7139,-0.7139,-0.7139,-0.7316,-0.9396,-1.0697,-1.0783,-1.2954,-1.4088,-1.4088,-1.4088,-1.4088,-1.4088,-1.4088,-1.4088,-1.4173,-1.6281,-1.7342,-1.7415,-1.9678,-2.0566,-2.0566,-2.0566,-2.0566,-2.0789,-2.2702,-2.3514,-2.3734,-2.5791,-2.6533,-2.6533,-2.6533,-2.6533,-2.6533,-2.6533,-2.7095,-2.7986,-2.8748,-2.969,-3.0584,-3.1278,-3.1482,-3.1482,-3.1482,-3.1016,-3.0357,-2.9819,-2.919,-2.8532,-2.7844,-2.8115,-2.846,-2.8383,-2.8936,-2.9608,-3.0238,-3.1001,-3.1945,-3.322,-3.4047,-3.452,-3.4607,-3.5199,-3.5622,-3.5622,-3.5622,-3.5622,-3.5622,-3.5622,-3.5622,-3.5622,-3.5622,-3.5622,-3.5622,-3.5622,-3.581,-3.6308,-3.7888,-3.8936,-3.9411,-4.1007,-4.1768,-4.1707,-4.2302,-4.2302,-1.1882,-1.135,-1.0735,0.0,-0.796,-0.6299,-0.7072,-0.7232,-0.7323,-0.774,-0.7326,-0.6795,-0.6416,-0.6329,-0.643,0.0,-0.6732,-0.6885,-0.7031,-0.7102,-0.7139,-0.7139,-0.7139,-0.7139,-0.7139,-0.7139,-0.7139,-0.7139,-0.7139,-0.7139,-0.7139,-0.8707,-0.9923,-1.0611,-1.2169,-1.3379,-1.4088,-1.4088,-1.4088,-1.4088,-1.4088,-1.4088,-1.4173,-1.6281,-1.798,-1.9265,-2.0235,-2.0566,-2.0566,-2.0566,-2.0566,-2.0789,-2.2702,-2.3514,-2.3734,-2.5791,-2.6533,-2.6533,-2.6533,-2.6533,-2.6533,-2.6533,-2.7417,-2.8492,-2.8876,-2.995,-3.1087,-3.1409,-3.1482,-3.1482,-3.1482,-3.0746,-2.9909,-2.9639,-2.8771,-2.7919,-2.7685,-2.781,-2.8091,-2.8415,-2.9012,-2.9585,-3.0208,-3.0867,-3.1472,-3.2029,-3.3119,-3.3863,-3.3863,-3.4506,-3.5131,-3.5571,-3.5622,-3.5622,-3.5622,-3.5622,-3.5622,-3.5622,-3.5622,-3.5622,-3.5622,-3.5622,-3.5854,-3.6374,-3.779,-3.8992,-3.996,-4.1412,-4.2168,-4.2342,-4.2884,-4.2884,-1.1209,0.0,0.0,-0.8887,-0.7347,-0.6566,-0.7513,-0.6847,-0.6349,-0.7226,-0.6795,-0.6338,-0.6338,-0.6376,-0.6522,-0.6675,-0.6827,-0.6976,-0.7122,-0.7139,-0.7139,-0.7139,-0.7139,-0.7139,-0.7139,-0.7139,-0.7139,-0.7139,-0.7139,-0.7139,-0.7139,-0.8281,-0.9235,-1.0096,-1.1552,-1.2681,-1.3561,-1.3913,-1.4088,-1.4088,-1.4088,-1.4088,-1.4173,-1.6281,-1.8541,-2.0566,-2.0566,-2.0566,-2.0566,-2.0566,-2.0566,-2.0789,-2.2702,-2.3514,-2.3734,-2.5791,-2.6533,-2.6533,-2.6533,-2.6533,-2.6533,-2.6533,-2.7484,-2.8684,-2.8939,-3.0011,-3.1219,-3.1409,-3.1482,-3.1482,-3.1482,-3.0552,-2.9579,-2.9579,-2.8562,-2.7625,-2.7625,-2.7845,-2.8222,-2.8638,-2.9361,-3.0038,-3.0477,-3.0918,-3.119,-3.119,-3.2104,-3.2865,-3.3068,-3.3914,-3.4692,-3.525,-3.5504,-3.5622,-3.5622,-3.5622,-3.5622,-3.5622,-3.5622,-3.5667,-3.581,-3.581,-3.6122,-3.6786,-3.7972,-3.9227,-4.0526,-4.1729,-4.2518,-4.2939,-4.3339,-4.3286,0.0,0.0,-1.0579,-0.7231,-0.6382,-0.6273,-0.6321,-0.6331,-0.6331,-0.6335,-0.6338,-0.6338,-0.6338,-0.6376,-0.6522,-0.6675,-0.6827,-0.6976,-0.7122,-0.7139,-0.7139,-0.7139,-0.7139,-0.7139,0.0,-0.7139,-0.7139,-0.7139,-0.7139,-0.7139,-0.7139,-0.8281,-0.889,-0.8978,-1.1123,-1.2328,-1.2328,-1.3555,-1.4088,-1.4088,-1.4088,-1.4088,-1.4173,-1.6281,-1.8541,-2.0566,-2.0566,-2.0566,-2.0566,-2.0566,-2.0566,-2.0789,-2.2702,-2.3514,-2.3734,-2.5791,-2.6533,-2.6533,-2.6533,-2.6533,-2.6533,-2.6533,-2.704,-2.792,-2.8748,-2.9628,-3.0524,-3.1278,-3.1482,-3.1482,-3.1482,-3.0552,-2.9579,-2.9579,-2.8562,-2.7625,-2.7625,-2.8543,-2.9361,-2.9361,-3.0335,-3.1151,-3.119,-3.119,-3.119,-3.119,-3.1241,-3.1512,-3.2222,-3.3592,-3.4506,-3.4523,-3.5182,-3.5622,-3.5622,-3.5622,-3.5622,-3.5622,-3.5622,-3.581,-3.6333,-3.6392,-3.6825,-3.7825,-3.8669,-3.9745,-4.1079,-4.1919,-4.2708,-4.3497,-4.3479,-4.3479,0.0,0.0,-0.8877,-0.6832,-0.6332,-0.6318,-0.6335,-0.6338,-0.6338,-0.6338,-0.6179,-0.6108,-0.6108,-0.6308,-0.6488,-0.6539,-0.6841,-0.6819,-0.6065,-0.5983,-0.5711,-0.4905,-0.5445,0.0,0.0,0.0,0.0,-0.7139,-0.7139,-0.7139,-0.7139,-0.7489,-0.8101,-0.889,-1.0351,-1.1552,-1.2322,-1.347,-1.4088,-1.4088,-1.4817,-1.5545,-1.6281,-1.7747,-1.9195,-2.0566,-2.0566,-2.0566,-2.0566,-2.0566,-2.0934,-2.1669,-2.2999,-2.3891,-2.4636,-2.6013,-2.6533,-2.6533,-2.6533,-2.6533,-2.6589,-2.7095,-2.7855,-2.8748,-2.9566,-3.045,-3.1161,-3.1409,-3.1482,-3.1482,-3.1482,-3.0552,-2.9579,-2.9579,-2.8562,-2.771,-2.8091,-2.8511,-2.9042,-2.9848,-3.0351,-3.074,-3.1151,-3.119,-3.119,-3.119,-3.119,-3.1461,-3.2188,-3.2713,-3.3406,-3.4387,-3.4726,-3.5081,-3.5571,-3.5622,-3.5622,-3.5622,-3.5941,-3.6224,-3.6374,-3.6724,-3.7248,-3.7911,-3.8164,-3.8964,-4.0304,-4.1111,-4.1919,-4.2708,-4.324,-4.3497,0.0,-0.7115,-0.7175,-0.6478,-0.6314,-0.6338,-0.6338,-0.6338,-0.6338,-0.6338,-0.6139,-0.603,-0.603,-0.6271,-0.6371,-0.5921,-0.6176,-0.6089,-0.4946,-0.4798,-0.4476,-0.3697,-0.4242,-0.4784,0.0,0.0,0.0,-0.7051,-0.7139,-0.7139,-0.7139,-0.7139,-0.7489,-0.8189,-0.9744,-1.0956,-1.1724,-1.3294,-1.4088,-1.4088,-1.522,-1.6273,-1.7334,-1.847,-1.9599,-2.0566,-2.0566,-2.0566,-2.0566,-2.0566,-2.1155,-2.2103,-2.3147,-2.4108,-2.5158,-2.6094,-2.6533,-2.6533,-2.6533,-2.6533,-2.6589,-2.7095,-2.8051,-2.9129,-2.969,-3.0584,-3.1482,-3.1482,-3.1482,-3.1482,-3.1482,-3.0552,-2.9579,-2.9579,-2.8562,-2.771,-2.8091,-2.8511,-2.9042,-2.9805,-3.0351,-3.074,-3.1151,-3.119,-3.119,-3.119,-3.119,-3.136,-3.1833,-3.2121,-3.2645,-3.3592,-3.4184,-3.4692,-3.5182,-3.547,-3.5622,-3.5622,-3.5941,-3.6308,-3.6684,-3.7038,-3.7524,-3.8183,-3.8183,-3.8765,-3.99,-4.0414,-4.124,-4.2304,-4.2818,-4.3222,-0.5567,-0.5612,-0.5574,-0.6173,-0.6247,-0.6251,-0.6335,-0.6338,-0.6257,-0.6251,-0.6125,-0.6017,0.0,0.0,-0.6093,-0.494,-0.5141,-0.494,-0.373,-0.353,-0.3512,0.0,0.0,0.0,0.0,0.0,0.0,-0.6962,0.0,-0.7139,-0.7139,-0.7139,-0.7139,-0.7139,-0.9309,-1.0524,-1.0611,-1.2954,-1.4088,-1.4088,-1.522,-1.6273,-1.7334,-1.847,-1.9599,-2.0566,-2.0566,-2.0566,-2.0566,-2.0566,-2.1145,-2.2178,-2.3147,-2.412,-2.5229,-2.6164,-2.6533,-2.6533,-2.6533,-2.6533,-2.6533,-2.6589,-2.767,-2.9002,-2.9129,-3.0269,-3.1482,-3.1482,-3.1482,-3.1482,-3.1482,-3.0552,-2.9579,-2.9579,-2.8562,-2.7625,-2.766,-2.8575,-2.9406,-2.9496,-3.0435,-3.119,-3.119,-3.119,-3.119,-3.119,-3.119,-3.119,-3.119,-3.1799,-3.2239,-3.2313,-3.3541,-3.4404,-3.4489,-3.5148,-3.5616,-3.5667,-3.5694,-3.6165,-3.7173,-3.7266,-3.7721,-3.8676,-3.8707,-3.9074,-3.9827,-3.9863,-4.0708,-4.2249,-4.2286,-4.2727,-0.4742,-0.5399,-0.5785,-0.604,-0.6088,-0.6118,-0.6234,-0.6338,-0.623,-0.6112,-0.5966,-0.5827,0.0,0.0,0.0,-0.5951,-0.563,0.0,-0.3809,-0.28,0.0,-0.1015,0.0,-0.2252,-0.2217,-0.4127,0.0,0.0,-0.6605,-0.7139,-0.7139,-0.7139,-0.7139,-0.7139,-0.8536,-0.9749,-1.0611,-1.2954,-1.4088,-1.4088,-1.522,-1.6273,-1.7334,-1.847,-1.9599,-2.0566,-2.0566,-2.0566,-2.0566,-2.0566,-2.1603,-2.3147,-2.3368,-2.4541,-2.6164,-2.6383,-2.6533,-2.6533,-2.6533,-2.6533,-2.6714,-2.7986,-2.862,-2.9254,-3.0464,-3.1161,-3.1482,-3.1482,-3.1482,-3.1482,-3.1482,-3.0552,-2.9579,-2.9579,-2.8562,-2.786,-2.8764,-2.918,-2.9673,-3.0576,-3.1015,-3.119,-3.119,-3.119,-3.119,-3.119,-3.119,-3.119,-3.119,-3.136,-3.1681,-3.2222,-3.2628,-3.3288,-3.4404,-3.5027,-3.5604,-3.6147,-3.6886,-3.7452,-3.772,-3.8117,-3.8433,-3.8707,-3.8707,-3.8799,-3.9019,-3.9606,-4.0414,-4.1423,-4.2029,-4.2727,-0.2617,-0.4163,-0.5541,-0.5167,-0.5529,-0.6034,-0.6054,-0.6112,-0.6115,-0.5962,-0.5813,0.0,-0.5603,0.0,0.0,0.0,0.0,0.0,-0.2996,-0.1811,-0.0742,0.0,-0.0572,0.0,-0.1032,-0.3151,-0.4565,0.0,-0.6157,-0.7139,-0.7139,-0.7139,-0.7139,-0.7139,-0.8277,-0.9666,-1.13,-1.3209,-1.4088,-1.4088,-1.522,-1.6273,-1.7334,-1.847,-1.9599,-2.0566,0.0,-2.0566,-2.0566,-2.0566,-2.1756,-2.3514,-2.3514,-2.4767,-2.6533,-2.6533,-2.6533,-2.6533,-2.6533,-2.6533,-2.6714,-2.7986,-2.8684,-2.9254,-3.0584,-3.1219,-3.1482,-3.1482,-3.1482,-3.1407,-3.1165,-3.0328,-2.9505,-2.922,-2.858,-2.8189,-2.8873,-2.9406,-3.0081,-3.1015,-3.119,-3.119,-3.119,-3.119,-3.119,-3.119,-3.119,-3.119,-3.119,-3.119,-3.136,-3.1749,-3.2127,-3.2747,-3.3914,-3.4816,-3.5602,-3.6364,-3.7173,-3.7685,-3.7893,-3.8183,-3.8465,-3.8707,-3.8707,-3.8707,-3.8707,-3.9148,-3.979,-4.0598,-4.1405,-4.2194,-0.0361,-0.2452,-0.4888,-0.4101,-0.4997,-0.5966,-0.583,-0.5918,-0.5979,-0.581,0.0,-0.5583,-0.5562,-0.5835,-0.5781,-0.4855,0.0,-0.3025,-0.2173,-0.0902,0.0,0.0,0.0,0.0,0.0,-0.2142,-0.356,-0.3576,-0.5797,-0.7139,-0.7139,-0.7139,-0.7139,-0.7139,-0.8452,-1.0091,-1.2066,-1.3385,-1.4088,-1.4088,-1.5054,-1.6034,-1.7098,-1.823,-1.9353,-2.0401,-2.0566,0.0,-2.0566,-2.0566,-2.168,-2.3294,-2.3441,-2.4624,-2.6314,-2.6465,-2.6533,-2.6533,-2.6533,-2.6533,-2.6658,-2.7537,-2.8363,-2.9192,-3.0147,-3.097,-3.1482,-3.1482,-3.1482,-3.1375,-3.0687,-3.0043,-2.9415,-2.8757,-2.851,-2.8415,-2.8463,-2.9451,-3.0477,-3.1095,-3.119,-3.119,-3.119,-3.119,-3.119,-3.119,-3.119,-3.119,-3.119,-3.119,-3.119,-3.119,-3.1749,-3.2483,-3.327,-3.4525,-3.5588,-3.6411,-3.7044,-3.7596,-3.798,-3.8032,-3.8216,-3.8707,-3.8707,-3.8707,-3.8707,-3.8707,-3.9111,-3.9918,-4.0616,-4.1442,-0.0073,-0.1546,-0.3345,-0.398,-0.5012,-0.5833,-0.5806,-0.5918,0.0,0.0,-0.5606,-0.5552,-0.5423,-0.5093,-0.5058,-0.587,0.0,0.0,0.0,0.0,0.0,0.0,0.0,0.0,0.0,0.0,0.0,0.0,0.0,-0.7139,-0.7139,-0.7139,-0.7139,-0.7139,-0.9226,-1.0524,-1.0864,-1.3039,-1.4088,-1.4088,-1.425,-1.4977,-1.6026,-1.709,-1.823,-1.9362,-2.0245,0.0,-2.0566,-2.0566,-2.1231,-2.2328,-2.3147,-2.4181,-2.537,-2.6164,-2.6533,-2.6533,-2.6533,-2.6533,-2.6782,-2.8298,-2.8876,-2.9317,-3.0837,-3.1409,-3.1482,-3.1482,-3.1482,-3.1375,-3.0687,-3.0043,-2.9415,-2.8757,-2.8171,-2.7894,-2.8367,-2.9451,-3.0477,-3.1095,-3.119,-3.119,-3.119,-3.119,-3.119,-3.119,-3.119,-3.119,-3.119,-3.119,-3.119,-3.119,-3.1309,-3.1862,-3.2969,-3.4228,-3.5457,-3.6558,-3.7772,-3.8483,-3.8546,-3.8546,-3.8578,-3.8707,-3.8707,-3.8707,-3.8707,-3.8707,-3.9111,-3.99,-4.0029,-4.0891,0.0,-0.1328,-0.2804,-0.3279,-0.4644,-0.5762,-0.5606,0.0,0.0,0.0,-0.5471,-0.545,-0.5442,-0.525,0.0,-0.5336,0.0,0.0,0.0,0.0,0.0,0.0,0.0,0.0,0.0,0.0,0.0,0.0,0.0,-0.6514,-0.7051,-0.7139,-0.7139,-0.7139,-0.9396,-1.0611,-1.0611,-1.2954,-1.4088,-1.4088,-1.4088,-1.465,-1.5779,-1.6846,-1.7908,-1.9036,-2.0157,0.0,-2.0566,-2.0566,-2.1155,-2.2103,-2.3147,-2.4108,-2.5158,-2.6094,-2.6533,-2.6533,-2.6533,-2.6533,-2.6782,-2.8427,-2.9002,-2.9317,-3.097,-3.1482,-3.1482,-3.1482,-3.1482,-3.1243,-3.0283,-2.9804,-2.9325,-2.8308,-2.8052,-2.8319,-2.9225,-2.9892,-3.0477,-3.1095,-3.119,-3.119,-3.119,-3.119,-3.119,-3.119,-3.119,-3.119,-3.119,-3.119,-3.119,-3.119,-3.1389,-3.1929,-3.2913,-3.4376,-3.569,-3.6651,-3.7945,-3.8707,-3.8707,-3.8707,-3.8707,-3.8707,-3.8707,-3.8707,-3.8707,-3.8707,-3.8909,-3.9294,-3.9698,-4.0543,0.0,-0.1412,-0.2847,-0.2717,-0.4271,-0.5725,-0.543,-0.5589,0.0,0.0,-0.5428,-0.5428,-0.5428,0.0,-0.5197,0.0,-0.4268,0.0,0.0,0.0,0.0,0.0,0.0,0.0,0.0,0.0,0.0,0.0,0.0,0.0,-0.7051,-0.7139,-0.7139,-0.7139,-0.9396,-1.0611,-1.0611,-1.2954,-1.4088,-1.4088,-1.4088,-1.4573,-1.5379,-1.669,-1.7827,-1.8718,-2.0001,0.0,0.0,-2.0566,-2.1001,-2.1811,-2.2999,-2.3963,-2.4862,-2.6025,-2.6533,-2.6533,-2.6533,-2.6533,-2.6782,-2.8427,-2.9002,-2.9317,-3.097,-3.1482,-3.1437,-3.136,-3.1315,-3.1016,-2.9714,-2.937,-2.9071,-2.791,-2.8042,-2.8779,-2.9892,-3.0208,-3.0477,-3.1095,-3.119,-3.119,-3.119,-3.119,-3.119,-3.119,-3.119,-3.119,-3.119,-3.119,-3.119,-3.119,-3.147,-3.2012,-3.2802,-3.4317,-3.5588,-3.6548,-3.7752,-3.8524,-3.8689,-3.8707,-3.8707,-3.8707,-3.8707,-3.8707,-3.8707,-3.8707,-3.8707,-3.8726,-3.935,-4.0065,0.0,-0.1741,-0.342,-0.2853,-0.4257,-0.5725,-0.543,0.0,0.0,-0.5423,-0.5428,-0.5428,-0.5428,-0.4706,-0.4219,-0.4464,0.0,-0.2046,0.0,0.0,0.0,0.0,0.0,0.0,0.0,0.0,0.0,0.0,0.0,0.0,-0.7051,-0.7139,-0.7139,-0.7139,-0.9396,-1.0611,-1.0611,-1.2954,-1.4088,-1.4088,-1.4088,-1.4166,-1.4328,-1.637,-1.7334,-1.7577,-1.9668,0.0,0.0,-2.0566,-2.0634,-2.0934,-2.2776,-2.3588,-2.3879,-2.5791,-2.6533,-2.6533,-2.6533,-2.6533,-2.6782,-2.8427,-2.9002,-2.9317,-3.097,-3.1482,-3.1347,-3.0776,-3.0597,-3.0298,-2.9026,-2.8682,-2.8502,-2.7754,-2.8042,-2.8701,-2.9316,-2.9892,-3.0477,-3.1095,-3.119,-3.119,-3.119,-3.119,-3.119,-3.119,-3.119,-3.119,-3.119,-3.119,-3.119,-3.119,-3.123,-3.1634,-3.2489,-3.3365,-3.4598,-3.6234,-3.7147,-3.7936,-3.867,-3.8707,-3.8707,-3.8707,-3.8707,-3.8707,-3.8707,-3.8707,-3.8707,-3.8707,-3.8781,-3.9239,0.0,-0.1861,-0.3651,-0.3015,-0.4316,-0.5749,-0.5545,0.0,-0.5613,-0.5473,-0.5428,-0.5428,-0.5428,-0.509,-0.4515,-0.3572,0.0,0.0,0.0,0.0,0.0,0.0,0.0,0.0,0.0,0.0,0.0,0.0,0.0,0.0,-0.7139,-0.7139,-0.7139,-0.7139,-0.9396,-1.0611,-1.0611,-1.2954,-1.4088,-1.4088,-1.4088,-1.4088,-1.4173,-1.6281,-1.7342,-1.7415,-1.9678,0.0,0.0,-2.0566,-2.0566,-2.0789,-2.2702,-2.3514,-2.3734,-2.5791,-2.6239,-2.5937,-2.5937,-2.5737,-2.5724,-2.7371,-2.7925,-2.8284,-3.0306,-3.0657,-3.0298,-3.0028,-2.9953,-2.9744,-2.8831,-2.8293,-2.8006,-2.8118,-2.8334,-2.8779,-2.9717,-3.0123,-3.0477,-3.1095,-3.119,-3.119,-3.119,-3.119,-3.119,-3.119,-3.119,-3.119,-3.119,-3.119,-3.119,-3.119,-3.1411,-3.1806,-3.2451,-3.3508,-3.4749,-3.6219,-3.7055,-3.7845,-3.867,-3.8707,-3.8707,-3.8707,-3.8707,-3.8707,-3.8707,-3.8707,-3.8707,-3.8707,-3.8707,-3.9129,0.0,-0.1738,-0.346,-0.3025,-0.4375,-0.5766,0.0,0.0,-0.5545,-0.5459,-0.5428,-0.5428,-0.5428,-0.5428,-0.4775,0.0,0.0,-0.3192,-0.0886,0.0,0.0,0.0,0.0,0.0,0.0,0.0,0.0,0.0,0.0,0.0,-0.7139,-0.7139,-0.7139,-0.7139,-0.9396,-1.0611,-1.0611,-1.2954,-1.4088,-1.4088,-1.4088,-1.4041,-1.4038,-1.6126,-1.7031,-1.7083,-1.9235,0.0,0.0,-2.0185,-2.0185,-2.0404,-2.228,-2.3077,-2.3293,-2.5245,-2.5724,-2.536,-2.536,-2.5134,-2.5065,-2.6425,-2.6905,-2.7234,-2.908,-2.9595,-2.9549,-2.934,-2.9146,-2.8876,-2.8412,-2.7934,-2.776,-2.8383,-2.8654,-2.9058,-3.0081,-3.0435,-3.0699,-3.1112,-3.119,-3.119,-3.119,-3.119,-3.119,-3.119,-3.119,-3.119,-3.119,-3.119,-3.119,-3.119,-3.1565,-3.1986,-3.2451,-3.3454,-3.4685,-3.6201,-3.6817,-3.7606,-3.867,-3.8707,-3.8707,-3.8707,-3.8707,-3.8707,-3.8707,-3.8707,-3.8707,-3.8707,-3.8707,-3.9001,0.0,-0.1435,-0.2943,-0.2866,-0.436,-0.5766,0.0,0.0,-0.5545,-0.5459,-0.5428,-0.5428,-0.5428,-0.5428,-0.4775,-0.3022,-0.2687,0.0,-0.1846,0.0,0.0,0.0,0.0,0.0,0.0,0.0,0.0,0.0,0.0,0.0,-0.7139,-0.7139,-0.7139,-0.7139,-0.9396,-1.0611,-1.0611,-1.2954,-1.4088,-1.4088,-1.4088,-1.3935,-1.3647,-1.5761,-1.6505,0.0,0.0,0.0,0.0,-1.9297,-1.9297,-1.9515,-2.1296,-2.2058,-2.2264,-2.4132,-2.4833,-2.4833,-2.4833,-2.4833,-2.4936,-2.5834,-2.6155,-2.6367,-2.724,-2.8488,-2.9445,-2.8801,-2.8113,-2.764,-2.7625,-2.7625,-2.776,-2.8383,-2.8966,-2.954,-3.0166,-3.0781,-3.119,-3.119,-3.119,-3.119,-3.119,-3.119,-3.119,-3.119,-3.119,-3.119,-3.119,-3.119,-3.119,-3.119,-3.1565,-3.1986,-3.2451,-3.2952,-3.4116,-3.6164,-3.6303,-3.7019,-3.8634,-3.8707,-3.8707,-3.8707,-3.8707,-3.8707,-3.8707,-3.8707,-3.8707,-3.8707,-3.8707,-3.8707,-0.1972,-0.2793,-0.3821,-0.3821,-0.4756,-0.5644,-0.5599,0.0,-0.542,-0.5439,-0.5428,-0.5428,-0.5428,-0.5428,-0.4775,-0.3022,-0.2685,0.0,0.0,0.0,0.0,0.0,0.0,0.0,0.0,0.0,0.0,0.0,0.0,0.0,-0.7139,-0.7139,-0.7139,-0.7139,-0.8623,-0.9836,-1.0611,-1.1911,-1.301,-1.3781,-1.3581,-1.344,-1.3347,-1.4803,-1.5729,0.0,0.0,0.0,0.0,-1.9287,-1.9287,-1.9495,-2.1285,-2.1967,-2.2252,-2.412,-2.4582,-2.4255,-2.4255,-2.4004,-2.3775,-2.4596,-2.5226,-2.58,-2.6583,-2.7489,-2.821,-2.7964,-2.7739,-2.7625,-2.7625,-2.7625,-2.786,-2.8857,-2.9271,-2.9673,-3.0699,-3.1055,-3.119,-3.119,-3.119,-3.119,-3.119,-3.119,-3.119,-3.119,-3.119,-3.119,-3.119,-3.119,-3.119,-3.119,-3.186,-3.235,-3.2484,-3.2921,-3.3833,-3.532,-3.5973,-3.678,-3.7826,-3.8414,-3.8707,-3.8707,-3.8707,-3.8707,-3.8707,-3.8707,-3.8707,-3.8707,-3.8707,-3.8707,0.0,-0.3458,-0.421,-0.421,-0.4912,0.0,0.0,0.0,-0.5428,-0.5428,-0.5428,-0.5428,-0.5428,-0.5428,-0.4913,-0.3526,-0.2976,0.0,0.0,0.0,0.0,0.0,0.0,0.0,0.0,0.0,0.0,0.0,0.0,0.0,-0.7139,-0.7139,-0.7115,-0.7061,-0.8245,-0.9369,-1.0404,-1.1439,-1.2404,-1.348,-1.33,-1.3153,-1.3111,-1.4091,-1.5062,0.0,0.0,0.0,0.0,-1.8809,-1.8809,-1.8941,-2.0424,-2.1151,-2.162,-2.3176,-2.3716,-2.3665,-2.3665,-2.3439,-2.3185,-2.3708,-2.4553,-2.5563,-2.6602,-2.7255,-2.7625,-2.7625,-2.7625,-2.7625,-2.7625,-2.7625,-2.786,-2.8826,-2.9225,-2.9673,-3.0658,-3.1055,-3.119,-3.119,-3.119,-3.119,-3.119,-3.119,-3.119,-3.119,-3.119,-3.119,-3.119,-3.119,-3.119,-3.119,-3.1823,-3.2316,-3.2484,-3.3075,-3.3868,-3.4935,-3.5514,-3.6321,-3.747,-3.7973,-3.8395,-3.8689,-3.8707,-3.8707,-3.8707,-3.8707,-3.8707,-3.8707,-3.8707,-3.8707,0.0,0.0,0.0,0.0,0.0,0.0,0.0,0.0,0.0,0.0,0.0,-0.5428,-0.5428,-0.5435,-0.5129,-0.4321,-0.3344,0.0,0.0,0.0,0.0,0.0,0.0,0.0,0.0,0.0,0.0,0.0,0.0,0.0,-0.7126,-0.7126,-0.7058,-0.6915,-0.8076,-0.9194,-1.0178,-1.1239,-1.2195,-1.318,-1.316,-1.2993,-1.2788,-1.3683,-1.4471,0.0,0.0,0.0,0.0,-1.8008,-1.8008,-1.8076,-1.8977,-1.9814,-2.0719,-2.1553,-2.2384,-2.3078,-2.3078,-2.3078,-2.3138,-2.3198,-2.4208,-2.5673,-2.7086,-2.7575,-2.7625,-2.7625,-2.7625,-2.7625,-2.7625,-2.7625,-2.776,-2.8383,-2.895,-2.9585,-3.0166,-3.0781,-3.119,-3.119,-3.119,-3.119,-3.119,-3.119,-3.119,-3.119,-3.119,-3.119,-3.119,-3.119,-3.119,-3.119,-3.1565,-3.1986,-3.2451,-3.3284,-3.4092,-3.4862,-3.4954,-3.5716,-3.7239,-3.7452,-3.7845,-3.8597,-3.867,-3.8707,-3.8707,-3.8707,-3.8707,-3.8707,-3.8707,-3.8707,-0.4861,0.0,-0.5122,-0.5122,-0.5305,-0.5416,0.0,0.0,0.0,0.0,0.0,0.0,0.0,0.0,-0.5246,-0.4334,-0.3469,-0.2973,-0.3376,0.0,0.0,0.0,0.0,0.0,0.0,0.0,0.0,0.0,0.0,-0.7092,-0.6983,-0.6976,-0.6909,-0.6759,-0.7035,-0.8105,-0.9938,-1.0013,-1.101,-1.2852,-1.2625,-1.2478,-1.2405,-1.2621,-1.3667,0.0,0.0,0.0,-1.8008,-1.8008,-1.8008,-1.8076,-1.8977,-1.9814,-2.0719,-2.1553,-2.2384,-2.3078,-2.3078,-2.3078,-2.3198,-2.3826,-2.461,-2.5563,-2.6496,-2.7152,-2.7625,-2.7625,-2.7625,-2.7625,-2.7625,-2.7625,-2.776,-2.8383,-2.895,-2.9585,-3.0166,-3.0781,-3.119,-3.119,-3.119,-3.119,-3.119,-3.119,-3.119,-3.119,-3.119,-3.119,-3.119,-3.119,-3.119,-3.119,-3.1565,-3.1986,-3.2451,-3.3014,-3.3538,-3.4037,-3.4642,-3.5174,-3.5587,-3.6817,-3.7569,-3.7771,-3.8395,-3.8707,-3.8707,-3.8707,-3.8707,-3.8707,-3.8707,-3.8707,-0.5428,-0.5428,-0.5428,-0.5428,-0.5428,-0.5428,0.0,0.0,0.0,0.0,0.0,0.0,0.0,0.0,0.0,0.0,-0.4009,0.0,0.0,0.0,0.0,0.0,0.0,0.0,0.0,0.0,0.0,0.0,0.0,-0.698,-0.6831,-0.6824,-0.6753,-0.66,-0.6597,-0.7639,-0.9712,-0.9592,-1.049,-1.2538,-1.2378,-1.2305,-1.2305,-1.2305,-1.3091,0.0,0.0,0.0,-1.7354,-1.7794,-1.8008,-1.8076,-1.8529,-1.9233,-2.0139,-2.0974,-2.1803,-2.2628,-2.2944,-2.3078,-2.3245,-2.406,-2.4794,-2.5563,-2.6283,-2.7049,-2.7625,-2.7625,-2.7625,-2.7625,-2.7625,-2.7625,-2.766,-2.7993,-2.8543,-2.9134,-2.9761,-3.0335,-3.0878,-3.1151,-3.119,-3.119,-3.119,-3.119,-3.119,-3.119,-3.119,-3.119,-3.119,-3.119,-3.119,-3.119,-3.1372,-3.1696,-3.2127,-3.2616,-3.3136,-3.3762,-3.4211,-3.4605,-3.4972,-3.5881,-3.6707,-3.7459,-3.8285,-3.8707,-3.8707,-3.8707,-3.8707,-3.8707,-3.8707,-3.8707,-0.5428,-0.5446,-0.5459,-0.5432,-0.5428,-0.5428,0.0,0.0,0.0,0.0,0.0,0.0,0.0,0.0,0.0,0.0,0.0,0.0,0.0,0.0,0.0,0.0,0.0,0.0,0.0,0.0,0.0,0.0,0.0,-0.6827,-0.6675,-0.6664,-0.6597,-0.6444,-0.6441,-0.7379,-0.9252,-0.9408,-1.0313,-1.207,-1.2224,-1.2305,-1.2305,-1.2305,-1.2806,-1.3745,0.0,0.0,-1.6636,-1.7579,-1.8008,-1.8008,-1.8008,-1.8529,-1.9431,-2.0268,-2.1175,-2.2002,-2.2823,-2.3078,-2.3185,-2.3884,-2.4624,-2.5342,-2.6122,-2.6878,-2.7473,-2.7575,-2.7625,-2.7625,-2.7625,-2.7625,-2.7625,-2.7625,-2.8042,-2.8654,-2.9134,-2.9805,-3.0435,-3.0958,-3.1151,-3.119,-3.119,-3.119,-3.119,-3.119,-3.119,-3.119,-3.119,-3.119,-3.119,-3.119,-3.119,-3.1351,-3.1752,-3.223,-3.284,-3.3652,-3.378,-3.4174,-3.4954,-3.499,-3.5734,-3.7276,-3.8102,-3.8524,-3.8524,-3.8652,-3.8707,-3.8707,-3.8707,-3.8707,-0.5428,-0.5457,-0.5521,-0.5459,-0.5428,-0.5428,-0.5428,0.0,0.0,0.0,0.0,0.0,0.0,0.0,0.0,0.0,0.0,0.0,0.0,0.0,0.0,0.0,0.0,0.0,0.0,0.0,0.0,0.0,0.0,-0.6668,-0.6515,-0.6508,-0.6441,-0.6298,-0.6291,-0.6909,-0.8051,-0.8889,-0.9927,-1.1013,-1.1922,-1.2305,-1.2305,-1.2305,-1.2806,-1.3745,0.0,-1.572,-1.6636,-1.7579,-1.8008,-1.8008,-1.8008,-1.8529,-1.9431,-2.0268,-2.1175,-2.2002,-2.2823,-2.3078,-2.3138,-2.3245,-2.3826,-2.4624,-2.5342,-2.6054,-2.6826,-2.7408,-2.7625,-2.7625,-2.7625,-2.7625,-2.7625,-2.7625,-2.8042,-2.8511,-2.8606,-2.9496,-3.0351,-3.0435,-3.0838,-3.119,-3.119,-3.119,-3.119,-3.119,-3.119,-3.119,-3.119,-3.119,-3.119,-3.119,-3.119,-3.1351,-3.1752,-3.223,-3.2713,-3.3273,-3.3606,-3.4174,-3.4954,-3.499,-3.5477,-3.645,-3.7257,-3.7661,-3.7679,-3.8377,-3.8707,-3.8707,-3.8707,-3.8707,-0.5428,-0.5413,-0.5467,-0.5481,-0.5542,-0.5599,-0.5599,0.0,0.0,0.0,0.0,0.0,0.0,0.0,0.0,0.0,0.0,0.0,0.0,0.0,0.0,0.0,0.0,0.0,0.0,0.0,0.0,0.0,0.0,0.0,-0.6366,-0.6359,-0.6329,-0.6342,-0.6338,-0.649,-0.6945,-0.8542,-0.982,-1.0783,-1.1242,-1.1768,-1.2305,-1.2305,-1.2519,-1.3025,0.0,-1.5446,-1.5939,-1.7432,-1.8008,-1.8008,-1.8008,-1.8269,-1.8787,-2.0074,-2.1175,-2.2002,-2.2823,-2.3078,-2.3078,-2.3078,-2.3649,-2.435,-2.4681,-2.5618,-2.6563,-2.693,-2.7306,-2.7625,-2.7625,-2.7625,-2.7625,-2.7625,-2.781,-2.8091,-2.8415,-2.8919,-2.954,-3.0166,-3.0518,-3.0838,-3.1151,-3.119,-3.119,-3.119,-3.119,-3.119,-3.119,-3.119,-3.119,-3.119,-3.119,-3.1252,-3.147,-3.1861,-3.2533,-3.3447,-3.3707,-3.3972,-3.4339,-3.4752,-3.5174,-3.5605,-3.6413,-3.7055,-3.7507,-3.7863,-3.8267,-3.8707,-3.8707,-3.8707,-0.5752,-0.5715,-0.5716,-0.5669,0.0,-0.5769,-0.5837,0.0,0.0,0.0,0.0,0.0,0.0,0.0,0.0,0.0,0.0,0.0,0.0,0.0,0.0,0.0,0.0,0.0,0.0,0.0,0.0,0.0,0.0,0.0,-0.6345,-0.6338,-0.6338,-0.6338,-0.6338,-0.6338,-0.6338,-0.8084,-0.9442,-1.0415,-1.0938,-1.1545,-1.2305,-1.2305,-1.2305,-1.2372,-1.4091,-1.495,-1.5305,-1.701,-1.7794,-1.8008,-1.8008,-1.8134,-1.8462,-1.9814,-2.0974,-2.2002,-2.2628,-2.2944,-2.3078,-2.3078,-2.3543,-2.406,-2.4234,-2.5063,-2.6068,-2.6404,-2.693,-2.7357,-2.7575,-2.7625,-2.7625,-2.7625,-2.7625,-2.771,-2.8189,-2.8415,-2.8826,-2.9892,-3.0208,-3.0477,-3.1112,-3.119,-3.119,-3.119,-3.119,-3.119,-3.119,-3.119,-3.119,-3.119,-3.119,-3.1291,-3.1504,-3.177,-3.2482,-3.3734,-3.3807,-3.3807,-3.3807,-3.4394,-3.4715,-3.4715,-3.5569,-3.6303,-3.6909,-3.711,-3.7624,-3.8414,-3.8414,-3.8524,-0.685,-0.6718,-0.6623,-0.5958,0.0,0.0,-0.5949,-0.6013,0.0,0.0,0.0,0.0,0.0,0.0,0.0,0.0,0.0,0.0,0.0,0.0,0.0,0.0,0.0,0.0,0.0,0.0,0.0,0.0,0.0,0.0,-0.6338,-0.6338,-0.6338,-0.6338,-0.6338,-0.6338,-0.6338,-0.7403,-0.8389,-0.9448,-1.1323,-1.2224,-1.2305,-1.2305,-1.2305,-1.2378,-1.3382,-1.4314,-1.5305,-1.6289,-1.7217,-1.8008,-1.8008,-1.8462,-1.9233,-1.9365,-2.0462,-2.1877,-2.1939,-2.2506,-2.3078,-2.3078,-2.3125,-2.3305,-2.406,-2.435,-2.4738,-2.6122,-2.6563,-2.6721,-2.7408,-2.7625,-2.7625,-2.7625,-2.7625,-2.761,-2.7675,-2.8091,-2.8685,-2.9316,-2.9935,-3.0477,-3.1112,-3.119,-3.119,-3.119,-3.119,-3.119,-3.119,-3.119,-3.119,-3.119,-3.119,-3.1524,-3.235,-3.2417,-3.284,-3.3734,-3.3807,-3.3807,-3.3807,-3.3862,-3.3899,-3.3899,-3.4688,-3.5119,-3.5174,-3.5991,-3.6798,-3.7569,-3.7569,-3.7973,-0.8093,-0.7626,-0.7229,-0.6937,0.0,0.0,0.0,0.0,0.0,0.0,0.0,0.0,0.0,0.0,0.0,0.0,0.0,0.0,0.0,0.0,0.0,0.0,0.0,0.0,0.0,0.0,0.0,0.0,0.0,0.0,-0.6338,-0.6338,-0.6338,-0.6338,-0.6338,-0.6338,-0.6338,-0.7936,-0.8917,-0.9296,-1.072,-1.1694,-1.2305,-1.2305,-1.2305,-1.2378,-1.331,-1.4243,-1.5305,-1.621,-1.7139,-1.8008,-1.8008,-1.8202,-1.8596,-1.911,-1.9694,-2.0462,-2.1491,-2.2125,-2.2445,-2.2944,-2.3078,-2.3138,-2.3484,-2.3884,-2.4509,-2.5508,-2.6176,-2.6669,-2.7408,-2.7625,-2.7625,-2.7625,-2.7625,-2.7625,-2.7625,-2.8091,-2.8701,-2.9271,-2.9908,-3.0477,-3.1112,-3.119,-3.119,-3.119,-3.119,-3.119,-3.119,-3.119,-3.119,-3.119,-3.119,-3.1329,-3.1657,-3.2196,-3.2648,-3.2965,-3.3504,-3.3807,-3.3807,-3.3807,-3.3807,-3.3807,-3.41,-3.4504,-3.499,-3.5349,-3.5936,-3.6743,-3.6743,-3.7165,-0.9433,-0.8692,-0.8038,0.0,0.0,0.0,0.0,0.0,0.0,0.0,0.0,0.0,0.0,0.0,0.0,0.0,0.0,0.0,0.0,0.0,0.0,0.0,0.0,0.0,0.0,0.0,0.0,0.0,0.0,0.0,0.0,-0.6338,-0.6338,-0.6338,-0.6338,-0.6338,-0.6338,-0.8008,-0.8993,-0.9301,-1.034,-1.1316,-1.2305,-1.2305,-1.2305,-1.2372,-1.2952,-1.381,-1.4807,-1.579,-1.6862,-1.8008,-1.8008,-1.8008,-1.8076,-1.8654,-1.9044,-1.9497,-2.0974,-2.169,-2.2002,-2.2823,-2.3078,-2.3078,-2.3078,-2.3484,-2.4105,-2.5119,-2.5728,-2.639,-2.7357,-2.7625,-2.7625,-2.7625,-2.7625,-2.7625,-2.7625,-2.7894,-2.8463,-2.9225,-2.9717,-3.0251,-3.1055,-3.119,-3.119,-3.119,-3.119,-3.119,-3.119,-3.119,-3.119,-3.119,-3.119,-3.1252,-3.1389,-3.195,-3.2417,-3.2713,-3.3284,-3.368,-3.3788,-3.3807,-3.3807,-3.3807,-3.3807,-3.4082,-3.4633,-3.4633,-3.5073,-3.5899,-3.5899,-3.6468,-1.0863,-0.9919,0.0,0.0,0.0,0.0,0.0,0.0,0.0,0.0,0.0,0.0,0.0,0.0,0.0,0.0,0.0,0.0,0.0,0.0,0.0,0.0,0.0,0.0,0.0,0.0,0.0,0.0,0.0,0.0,0.0,-0.6338,-0.6338,-0.6338,-0.6338,-0.6338,-0.6338,-0.7326,-0.8313,-0.9296,-1.034,-1.1316,-1.2305,-1.2305,-1.2305,-1.2305,-1.2305,-1.2806,-1.3818,-1.4807,-1.6298,-1.8008,-1.8008,-1.8008,-1.8008,-1.8008,-1.8529,-1.9431,-2.0268,-2.1175,-2.2002,-2.2823,-2.3078,-2.3078,-2.3078,-2.3078,-2.3412,-2.4951,-2.5398,-2.5728,-2.724,-2.7625,-2.7625,-2.7625,-2.7625,-2.7625,-2.7625,-2.761,-2.7944,-2.918,-2.9406,-2.9805,-3.1015,-3.119,-3.119,-3.119,-3.119,-3.119,-3.119,-3.119,-3.119,-3.119,-3.119,-3.1351,-3.1752,-3.1789,-3.2196,-3.3136,-3.3214,-3.339,-3.3762,-3.3807,-3.3807,-3.3807,-3.3807,-3.3807,-3.3807,-3.3807,-3.4211,-3.499,-3.499,-3.5881,-1.1879,0.0,0.0,0.0,0.0,0.0,0.0,0.0,0.0,0.0,0.0,0.0,0.0,0.0,0.0,0.0,0.0,0.0,0.0,0.0,0.0,0.0,0.0,0.0,0.0,0.0,0.0,0.0,0.0,0.0,0.0,-0.6338,-0.6338,-0.6338,-0.6338,-0.6338,-0.6338,-0.7326,-0.7936,-0.8237,-0.9959,-1.1316,-1.2305,-1.2305,-1.2305,-1.2305,-1.2305,-1.2806,-1.3818,-1.5508,-1.6932,-1.8008,-1.8008,-1.8008,-1.8008,-1.8008,-1.8134,-1.8596,-2.0074,-2.0782,-2.1227,-2.2628,-2.3078,-2.3078,-2.3078,-2.3078,-2.3412,-2.4951,-2.5398,-2.5728,-2.724,-2.7625,-2.7625,-2.7625,-2.7625,-2.7625,-2.7625,-2.7944,-2.8463,-2.9225,-2.9761,-3.0293,-3.1055,-3.119,-3.119,-3.119,-3.119,-3.119,-3.119,-3.119,-3.119,-3.119,-3.119,-3.1269,-3.1389,-3.195,-3.2417,-3.2681,-3.3284,-3.368,-3.3807,-3.3807,-3.3807,-3.3807,-3.3807,-3.3807,-3.3807,-3.3807,-3.3917,-3.4174,-3.4174,-3.4743,-1.2772,0.0,0.0,0.0,0.0,0.0,0.0,0.0,0.0,0.0,0.0,0.0,0.0,0.0,0.0,0.0,0.0,0.0,0.0,0.0,0.0,0.0,0.0,0.0,0.0,0.0,0.0,0.0,0.0,0.0,0.0,-0.6338,-0.6338,-0.6338,-0.6338,-0.6338,-0.6338,-0.6872,-0.7403,-0.7783,-0.9059,-1.034,-1.1694,-1.215,-1.2305,-1.2305,-1.2305,-1.2806,-1.381,-1.5367,-1.6576,-1.7501,-1.7862,-1.8008,-1.8008,-1.8008,-1.8008,-1.8269,-2.0009,-2.059,-2.091,-2.2567,-2.3078,-2.3078,-2.3078,-2.3078,-2.3412,-2.4951,-2.5398,-2.5728,-2.724,-2.7625,-2.7625,-2.7625,-2.7625,-2.7625,-2.7625,-2.791,-2.8319,-2.8919,-2.9316,-2.9848,-3.0699,-3.0838,-3.0918,-3.1151,-3.119,-3.119,-3.119,-3.119,-3.119,-3.119,-3.119,-3.119,-3.119,-3.1694,-3.2127,-3.2484,-3.2996,-3.3447,-3.3807,-3.3807,-3.3807,-3.3807,-3.3807,-3.3807,-3.3807,-3.3807,-3.3807,-3.3807,-3.3807,-3.4229,0.0,0.0,0.0,0.0,0.0,0.0,0.0,0.0,0.0,0.0,0.0,0.0,0.0,0.0,0.0,0.0,0.0,0.0,0.0,0.0,0.0,0.0,0.0,0.0,0.0,0.0,0.0,0.0,0.0,0.0,0.0,-0.6338,-0.6338,-0.6338,-0.6338,-0.6338,-0.6338,-0.6338,-0.6795,-0.7629,-0.7783,-0.8836,-1.0714,-1.1694,-1.2224,-1.2305,-1.2305,-1.2806,-1.3818,-1.4807,-1.572,-1.6706,-1.7647,-1.8008,-1.8008,-1.8008,-1.8008,-1.8269,-2.0009,-2.059,-2.091,-2.2567,-2.3078,-2.3078,-2.3078,-2.3078,-2.3424,-2.4894,-2.5342,-2.5728,-2.7137,-2.756,-2.7625,-2.7625,-2.7625,-2.7625,-2.7625,-2.7625,-2.776,-2.8367,-2.8511,-2.8873,-3.0038,-3.0251,-3.0518,-3.1112,-3.119,-3.119,-3.119,-3.119,-3.119,-3.119,-3.119,-3.119,-3.119,-3.123,-3.162,-3.2451,-3.255,-3.2934,-3.378,-3.3807,-3.3807,-3.3807,-3.3807,-3.3807,-3.3807,-3.3807,-3.3807,-3.3807,-3.3807,-3.4192,0.0,0.0,0.0,0.0,0.0,0.0,0.0,0.0,0.0,0.0,0.0,0.0,0.0,0.0,0.0,0.0,0.0,0.0,0.0,0.0,0.0,0.0,0.0,0.0,0.0,0.0,0.0,0.0,0.0,0.0,-0.6338,-0.6338,-0.6338,-0.6338,-0.6338,-0.6338,-0.6338,-0.6338,-0.6412,0.0,-0.7403,-0.8461,-0.9669,-1.064,-1.1545,-1.2305,-1.2305,-1.2806,-1.3818,-1.4807,-1.572,-1.6706,-1.7647,-1.8008,-1.8008,-1.8008,-1.8008,-1.8269,-2.0009,-2.059,-2.091,-2.2567,-2.3078,-2.3078,-2.3078,-2.3078,-2.3305,-2.4292,-2.4951,-2.5618,-2.6496,-2.7152,-2.7625,-2.7625,-2.7625,-2.7625,-2.7625,-2.7625,-2.776,-2.8367,-2.8511,-2.8732,-2.9451,-2.9995,-3.0518,-3.1112,-3.119,-3.119,-3.119,-3.119,-3.119,-3.119,-3.119,-3.119,-3.119,-3.1507,-3.1897,-3.2451,-3.2858,-3.3273,-3.378,-3.3807,-3.3807,-3.3807,-3.3807,-3.3807,-3.3807,-3.3807,-3.3807,-3.3807,-3.3807,-3.3899,0.0,0.0,0.0,0.0,0.0,0.0,0.0,0.0,0.0,0.0,0.0,0.0,0.0,0.0,0.0,0.0,0.0,0.0,0.0,0.0,0.0,0.0,0.0,0.0,0.0,0.0,0.0,0.0,0.0,-0.6338,-0.6338,-0.6338,-0.6338,-0.6338,-0.6338,-0.6338,-0.6338,-0.6338,-0.6338,-0.6338,-0.6795,-0.7859,-0.9372,-1.087,-1.1768,-1.2305,-1.2305,-1.2592,-1.3171,-1.4593,-1.5517,-1.6079,-1.7432,-1.8008,-1.8008,-1.8008,-1.8008,-1.8202,-1.9497,-2.0268,-2.0782,-2.2125,-2.2763,-2.3078,-2.3078,-2.3078,-2.3245,-2.406,-2.4567,-2.5119,-2.6229,-2.6774,-2.7152,-2.7524,-2.7625,-2.7625,-2.7625,-2.7625,-2.766,-2.7993,-2.8091,-2.8271,-2.8873,-2.9717,-3.0518,-3.1112,-3.119,-3.119,-3.119,-3.119,-3.119,-3.119,-3.119,-3.119,-3.119,-3.1372,-3.1823,-3.2451,-3.2713,-3.3136,-3.3762,-3.3807,-3.3807,-3.3807,-3.3807,-3.3807,-3.3807,-3.3807,-3.3807,-3.3807,-3.3807,-3.3807,0.0,0.0,0.0,0.0,0.0,0.0,0.0,0.0,0.0,0.0,0.0,0.0,0.0,0.0,0.0,0.0,0.0,0.0,0.0,0.0,0.0,0.0,0.0,0.0,0.0,0.0,0.0,0.0,0.0,-0.6338,-0.6338,-0.6338,-0.6338,-0.6338,-0.6338,-0.6338,-0.6338,-0.6338,-0.6338,-0.6338,-0.649,-0.7553,-0.9372,-1.1174,-1.215,-1.2305,-1.2305,-1.2305,-1.2445,-1.4235,-1.5021,-1.5376,-1.7079,-1.7862,-1.8008,-1.8008,-1.8008,-1.8134,-1.8977,-1.9879,-2.0719,-2.1628,-2.2445,-2.3078,-2.3078,-2.3078,-2.3245,-2.3884,-2.4176,-2.4624,-2.596,-2.6404,-2.6669,-2.7408,-2.7625,-2.7625,-2.7625,-2.7625,-2.7625,-2.7625,-2.7625,-2.781,-2.8559,-2.9496,-3.0393,-3.1095,-3.119,-3.119,-3.119,-3.119,-3.119,-3.119,-3.119,-3.119,-3.119,-3.1252,-3.1657,-3.2451,-3.2583,-3.2965,-3.3762,-3.3807,-3.3807,-3.3807,-3.3807,-3.3807,-3.3807,-3.3807,-3.3807,-3.3807,-3.3807,-3.3807,0.0,0.0,0.0,0.0,0.0,0.0,0.0,0.0,0.0,0.0,0.0,0.0,0.0,0.0,0.0,0.0,0.0,0.0,0.0,0.0,0.0,0.0,0.0,0.0,0.0,0.0,0.0,0.0,-0.6338,-0.6338,-0.6338,-0.6338,-0.6338,-0.6338,-0.6338,-0.6338,-0.6338,-0.6338,-0.6338,-0.6338,-0.7173,-0.8161,-0.9372,-1.049,-1.1465,-1.2305,-1.2305,-1.2305,-1.2372,-1.3455,-1.4386,-1.5305,-1.6358,-1.7285,-1.8008,-1.8008,-1.8008,-1.8134,-1.8977,-1.9879,-2.0719,-2.1628,-2.2445,-2.3078,-2.3078,-2.3078,-2.3138,-2.3245,-2.3767,-2.4509,-2.5342,-2.6014,-2.6669,-2.7408,-2.7625,-2.7625,-2.7625,-2.7625,-2.7625,-2.7625,-2.7625,-2.7944,-2.9088,-2.9406,-2.9892,-3.1015,-3.119,-3.119,-3.119,-3.119,-3.119,-3.119,-3.119,-3.119,-3.119,-3.1507,-3.1933,-3.2484,-3.2872,-3.3302,-3.3762,-3.3807,-3.3807,-3.3807,-3.3807,-3.3807,-3.3807,-3.3807,-3.3807,-3.3807,-3.3807,-3.3807,0.0,0.0,0.0,0.0,0.0,0.0,0.0,0.0,0.0,0.0,0.0,0.0,0.0,0.0,0.0,0.0,0.0,0.0,0.0,0.0,0.0,0.0,0.0,0.0,0.0,0.0,0.0,0.0,-0.6338,-0.6338,-0.6338,-0.6338,-0.6338,-0.6338,-0.6338,-0.6338,-0.6338,-0.6338,-0.6338,-0.6338,-0.6718,-0.7783,-0.9301,-0.9744,-1.0795,-1.2305,-1.2305,-1.2305,-1.2372,-1.331,-1.4307,-1.5305,-1.621,-1.7139,-1.8008,-1.8008,-1.8008,-1.8076,-1.8462,-1.9431,-2.0655,-2.1037,-2.2063,-2.3078,-2.3078,-2.3078,-2.3078,-2.3078,-2.3365,-2.3872,-2.5063,-2.5618,-2.6162,-2.7357,-2.7625,-2.7625,-2.7625,-2.7625,-2.7625,-2.7625,-2.7625,-2.7993,-2.918,-2.9406,-2.9805,-3.1015,-3.119,-3.119,-3.119,-3.119,-3.119,-3.119,-3.119,-3.119,-3.119,-3.1351,-3.175,-3.2451,-3.2681,-3.3105,-3.3762,-3.3807,-3.3807,-3.3807,-3.3807,-3.3807,-3.3807,-3.3807,-3.3807,-3.3807,-3.3807,-3.3807,0.0,0.0,0.0,0.0,0.0,0.0,0.0,0.0,0.0,0.0,0.0,0.0,0.0,0.0,0.0,0.0,0.0,0.0,0.0,0.0,0.0,0.0,0.0,0.0,0.0,0.0,0.0,0.0,-0.6338,-0.6338,-0.6338,-0.6338,-0.6338,-0.6338,-0.6338,-0.6338,-0.6338,-0.6338,-0.6338,-0.6338,-0.6338,-0.7249,-0.8917,-0.9145,-1.0271,-1.1922,-1.2224,-1.2305,-1.2378,-1.3025,-1.3954,-1.4879,-1.586,-1.6784,-1.7647,-1.794,-1.8008,-1.8008,-1.8008,-1.911,-2.059,-2.059,-2.1729,-2.3078,-2.3078,-2.3078,-2.3078,-2.3078,-2.3078,-2.3471,-2.5007,-2.5398,-2.5783,-2.724,-2.7625,-2.7625,-2.7625,-2.7625,-2.7625,-2.7625,-2.7625,-2.7993,-2.918,-2.9406,-2.9805,-3.1015,-3.119,-3.119,-3.119,-3.119,-3.119,-3.119,-3.119,-3.119,-3.119,-3.1291,-3.162,-3.2282,-3.255,-3.2965,-3.3606,-3.3734,-3.3807,-3.3807,-3.3807,-3.3807,-3.3807,-3.3807,-3.3807,-3.3807,-3.3807,-3.3807,0.0,0.0,0.0,0.0,0.0,0.0,0.0,0.0,0.0,0.0,0.0,0.0,0.0,0.0,0.0,0.0,0.0,0.0,0.0,0.0,0.0,0.0,0.0,0.0,0.0,0.0,0.0,0.0,-0.6338,-0.6338,-0.6338,-0.6338,-0.6338,-0.6338,-0.6338,-0.6338,-0.6338,-0.6338,-0.6338,-0.6338,-0.6338,-0.6872,-0.7936,-0.8846,-0.9895,-1.0938,-1.1922,-1.2305,-1.2305,-1.2378,-1.2952,-1.389,-1.4879,-1.5869,-1.6775,-1.7647,-1.8008,-1.8008,-1.8008,-1.911,-2.059,-2.059,-2.1729,-2.3078,-2.3078,-2.3078,-2.3078,-2.3078,-2.3078,-2.3471,-2.5007,-2.5398,-2.5783,-2.724,-2.7625,-2.7625,-2.7625,-2.7625,-2.7625,-2.7625,-2.7625,-2.7993,-2.918,-2.9406,-2.9805,-3.1015,-3.119,-3.119,-3.119,-3.119,-3.119,-3.119,-3.119,-3.119,-3.119,-3.1528,-3.1789,-3.1808,-3.2663,-3.3184,-3.3243,-3.3606,-3.3807,-3.3807,-3.3807,-3.3807,-3.3807,-3.3807,-3.3807,-3.3807,-3.3807,-3.3807,0.0,0.0,0.0,0.0,0.0,0.0,0.0,0.0,0.0,0.0,0.0,0.0,0.0,0.0,0.0,0.0,0.0,0.0,0.0,0.0,0.0,0.0,0.0,0.0,0.0,0.0,0.0,0.0,0.0,-0.6338,-0.6338,-0.6338,-0.6338,-0.6338,-0.6338,-0.6338,-0.6338,-0.6338,-0.6338,-0.6338,-0.6338,-0.6795,-0.7859,-0.8841,-0.982,-1.0864,-1.1848,-1.2305,-1.2305,-1.2305,-1.2879,-1.381,-1.4807,-1.579,-1.6706,-1.7647,-1.8008,-1.8008,-1.8008,-1.8787,-1.9879,-2.0398,-2.1365,-2.2445,-2.2944,-2.3078,-2.3078,-2.3078,-2.3078,-2.3471,-2.5007,-2.5398,-2.5783,-2.724,-2.7625,-2.7625,-2.7625,-2.7625,-2.7625,-2.7625,-2.7894,-2.8463,-2.9271,-2.9717,-3.0251,-3.1072,-3.119,-3.119,-3.119,-3.119,-3.119,-3.119,-3.119,-3.119,-3.119,-3.1312,-3.1545,-3.1789,-3.24,-3.289,-3.3184,-3.3578,-3.3807,-3.3807,-3.3807,-3.3807,-3.3807,-3.3807,-3.3807,-3.3807,-3.3807,-3.3807,0.0,0.0,0.0,0.0,0.0,0.0,0.0,0.0,0.0,0.0,0.0,0.0,0.0,0.0,0.0,0.0,0.0,0.0,0.0,0.0,0.0,0.0,0.0,0.0,0.0,0.0,0.0,0.0,0.0,0.0,-0.6338,-0.6338,-0.6338,-0.6338,-0.5944,-0.5944,-0.6261,-0.6338,-0.6338,-0.6338,-0.6338,-0.6644,-0.7326,-0.8689,-0.9669,-1.034,-1.17,-1.2305,-1.2305,-1.2305,-1.2659,-1.3382,-1.4665,-1.5587,-1.6289,-1.751,-1.8008,-1.8008,-1.8008,-1.8586,-1.9431,-2.0333,-2.1175,-2.2063,-2.2884,-2.3078,-2.3078,-2.3078,-2.3078,-2.3471,-2.5007,-2.5783,-2.6375,-2.7357,-2.7625,-2.7625,-2.7625,-2.7625,-2.7625,-2.7625,-2.8091,-2.8685,-2.9316,-2.9892,-3.0518,-3.1112,-3.119,-3.119,-3.119,-3.119,-3.119,-3.119,-3.119,-3.119,-3.119,-3.119,-3.1389,-3.1789,-3.223,-3.2713,-3.3184,-3.3578,-3.3807,-3.3807,-3.3807,-3.3807,-3.3807,-3.3807,-3.3807,-3.3807,-3.3807,-3.3807,0.0,0.0,0.0,0.0,0.0,0.0,0.0,0.0,0.0,0.0,0.0,0.0,0.0,0.0,0.0,0.0,0.0,0.0,0.0,0.0,0.0,0.0,0.0,0.0,0.0,0.0,0.0,0.0,-0.6338,-0.6338,-0.6338,-0.6338,-0.6338,-0.6338,-0.5315,-0.5237,-0.6261,-0.6338,-0.6338,-0.6338,-0.6338,-0.6338,-0.6338,-0.8389,-0.9296,-0.9448,-1.1397,-1.2305,-1.2305,-1.2305,-1.2305,-1.2519,-1.445,-1.5234,-1.5446,-1.7295,-1.8008,-1.8008,-1.8008,-1.8529,-1.9431,-2.0333,-2.1164,-2.2002,-2.2823,-2.3078,-2.3078,-2.3078,-2.3078,-2.3471,-2.5007,-2.6481,-2.7625,-2.7625,-2.7625,-2.7625,-2.7625,-2.7625,-2.7625,-2.7625,-2.8091,-2.8685,-2.9316,-2.9892,-3.0518,-3.1112,-3.119,-3.119,-3.119,-3.119,-3.119,-3.119,-3.119,-3.119,-3.119,-3.123,-3.1372,-3.1789,-3.223,-3.2713,-3.3184,-3.3578,-3.3807,-3.3807,-3.3807,-3.3807,-3.3807,-3.3807,-3.3807,-3.3807,-3.3807,-3.3807,-1.2305,0.0,0.0,0.0,0.0,0.0,0.0,0.0,0.0,0.0,0.0,0.0,0.0,0.0,0.0,0.0,0.0,0.0,0.0,0.0,0.0,0.0,0.0,0.0,0.0,0.0,0.0,0.0,-0.6338,-0.6338,-0.6338,-0.6338,-0.6338,-0.6338,-0.6022,-0.6022,-0.6261,-0.6338,-0.6338,-0.6338,-0.6338,-0.6338,-0.6338,-0.8389,-0.9296,-0.9448,-1.1397,-1.2305,-1.2305,-1.2305,-1.2305,-1.2519,-1.445,-1.5234,-1.5446,-1.7295,-1.8008,-1.8008,-1.8008,-1.8134,-1.8596,-2.0139,-2.0782,-2.1227,-2.2689,-2.3078,-2.3078,-2.3078,-2.3078,-2.3471,-2.5007,-2.6481,-2.7625,-2.7625,-2.7625,-2.7625,-2.7625,-2.7625,-2.7625,-2.7625,-2.8091,-2.8685,-2.9316,-2.9892,-3.0518,-3.1112,-3.119,-3.119,-3.119,-3.119,-3.119,-3.119,-3.119,-3.119,-3.119,-3.1487,-3.1696,-3.1789,-3.2565,-3.3075,-3.3184,-3.3578,-3.3807,-3.3807,-3.3807,-3.3807,-3.3807,-3.3807,-3.3807,-3.3807,-3.3807,-3.3807,0.0,0.0,0.0,0.0,0.0,0.0,-1.2879,-1.3213,-1.3494,0.0,0.0,0.0,0.0,0.0,0.0,0.0,0.0,0.0,0.0,0.0,0.0,0.0,0.0,0.0,0.0,-0.6945,-0.6718,-0.6338,-0.6338,-0.6338,-0.6338,-0.5867,-0.5867,-0.6261,-0.5867,-0.5867,-0.6261,-0.6338,-0.6338,-0.6338,-0.6338,-0.6338,-0.6338,-0.8389,-0.9296,-0.9448,-1.1397,-1.2305,-1.2305,-1.2305,-1.2305,-1.2519,-1.445,-1.5234,-1.5446,-1.7295,-1.8008,-1.8008,-1.8008,-1.8008,-1.8269,-2.0009,-2.059,-2.091,-2.2567,-2.3078,-2.3078,-2.3078,-2.359,-2.4266,-2.5175,-2.6481,-2.7625,-2.7625,-2.7625,-2.7625,-2.7625,-2.7625,-2.7625,-2.7625,-2.8091,-2.8685,-2.9316,-2.9892,-3.0518,-3.1112,-3.119,-3.119,-3.119,-3.119,-3.119,-3.119,-3.119,-3.1252,-3.1449,-3.166,-3.1951,-3.2366,-3.2903,-3.3273,-3.3447,-3.368,-3.3807,-3.3807,-3.3807,-3.3807,-3.3807,-3.3807,-3.3807,-3.3807,-3.3807,-3.3807,0.0,0.0,0.0,0.0,0.0,0.0,-1.2986,-1.3106,-1.3186,-1.344,0.0,0.0,0.0,0.0,0.0,0.0,0.0,0.0,0.0,0.0,0.0,0.0,0.0,0.0,-0.8084,-0.7936,-0.7629,-0.6718,-0.6472,-0.6465,-0.6465,-0.5431,-0.5277,-0.6234,-0.5372,-0.53,-0.6261,-0.6338,-0.6338,-0.6338,-0.6338,-0.6338,-0.6338,-0.8389,-0.9296,-0.9448,-1.1397,-1.2305,-1.2305,-1.2305,-1.2305,-1.2519,-1.445,-1.5234,-1.5446,-1.7295,-1.8008,-1.8008,-1.8008,-1.8008,-1.8269,-2.0009,-2.059,-2.091,-2.2567,-2.3078,-2.3078,-2.3078,-2.415,-2.5287,-2.5398,-2.6428,-2.7509,-2.7575,-2.7625,-2.7625,-2.7625,-2.7625,-2.7625,-2.7625,-2.8042,-2.8591,-2.9271,-2.9848,-3.0435,-3.1112,-3.119,-3.119,-3.119,-3.119,-3.119,-3.119,-3.119,-3.1351,-3.1696,-3.1825,-3.223,-3.3075,-3.3214,-3.3437,-3.3807,-3.3807,-3.3807,-3.3807,-3.3807,-3.3807,-3.3807,-3.3807,-3.3807,-3.3807,-3.3807,-3.3807,0.0,0.0,0.0,0.0,0.0,0.0,-1.2452,-1.2478,-1.2492,0.0,0.0,0.0,0.0,0.0,0.0,0.0,0.0,0.0,0.0,0.0,0.0,0.0,0.0,0.0,-0.8993,-0.8993,-0.8917,-0.8689,-0.7789,-0.7257,-0.7257,-0.6166,-0.5721,-0.6071,-0.5845,-0.5901,-0.6257,-0.6338,-0.6338,-0.6338,-0.6338,-0.6338,-0.6338,-0.8389,-0.9296,-0.9448,-1.1397,-1.2305,-1.2305,-1.2305,-1.2305,-1.2519,-1.445,-1.5234,-1.5446,-1.7295,-1.8008,-1.8008,-1.8008,-1.8008,-1.8269,-2.0009,-2.059,-2.091,-2.2567,-2.3078,-2.3078,-2.3078,-2.3767,-2.4624,-2.5231,-2.6054,-2.6878,-2.7458,-2.7625,-2.7625,-2.7625,-2.7625,-2.7625,-2.7625,-2.771,-2.8125,-2.9225,-2.9496,-2.9951,-3.1015,-3.119,-3.119,-3.119,-3.119,-3.119,-3.119,-3.119,-3.123,-3.1329,-3.195,-3.2451,-3.2616,-3.3284,-3.3707,-3.3807,-3.3807,-3.3807,-3.3807,-3.3807,-3.3807,-3.3807,-3.3807,-3.3807,-3.3807,-3.3807,-3.3807,0.0,0.0,0.0,-1.2305,0.0,0.0,0.0,-1.2305,-1.2265,-1.2118,0.0,0.0,0.0,0.0,0.0,0.0,0.0,0.0,0.0,0.0,0.0,0.0,0.0,0.0,-1.0121,-1.004,-0.982,-0.9372,-0.856,-0.7928,-0.7491,-0.6817,-0.6266,-0.5911,-0.5989,-0.6067,-0.6146,-0.622,-0.6338,-0.6338,-0.6338,-0.6338,-0.6338,-0.8389,-0.9296,-0.9448,-1.1397,-1.2305,-1.2305,-1.2305,-1.2305,-1.2519,-1.445,-1.5234,-1.5446,-1.7295,-1.8008,-1.8008,-1.8008,-1.8008,-1.8269,-2.0009,-2.059,-2.091,-2.2567,-2.3078,-2.3078,-2.3078,-2.393,-2.4951,-2.5287,-2.6215,-2.7137,-2.7524,-2.7625,-2.7625,-2.7625,-2.7625,-2.7625,-2.7625,-2.786,-2.8319,-2.9225,-2.9629,-3.0166,-3.1055,-3.119,-3.119,-3.119,-3.119,-3.119,-3.119,-3.119,-3.1291,-3.147,-3.2109,-3.2583,-3.284,-3.3447,-3.3807,-3.3807,-3.3807,-3.3807,-3.3807,-3.3807,-3.3807,-3.3807,-3.3807,-3.3807,-3.3807,-3.3807,-3.3807,0.0,0.0,0.0,0.0,0.0,-1.2131,0.0,0.0,0.0,0.0,0.0,0.0,0.0,0.0,0.0,0.0,0.0,0.0,0.0,0.0,0.0,0.0,0.0,0.0,0.0,-1.1009,-1.0662,-0.997,-0.9291,-0.8692,-0.802,-0.7371,-0.6726,-0.6083,-0.5991,-0.6013,-0.6074,-0.62,-0.6338,-0.6338,-0.6338,-0.6412,-0.6644,-0.8466,-0.9372,-0.9669,-1.1471,-1.2305,-1.2305,-1.2305,-1.2305,-1.2519,-1.445,-1.5234,-1.5446,-1.7295,-1.8008,-1.8008,-1.8008,-1.8144,-1.8529,-2.0074,-2.0846,-2.1353,-2.2689,-2.3078,-2.3078,-2.3078,-2.4105,-2.5231,-2.5342,-2.6375,-2.7408,-2.7575,-2.7625,-2.7625,-2.7625,-2.7625,-2.7625,-2.7625,-2.8091,-2.8685,-2.9316,-2.9892,-3.0518,-3.1112,-3.119,-3.119,-3.119,-3.119,-3.119,-3.119,-3.1252,-3.1449,-3.1789,-3.2298,-3.2809,-3.3184,-3.3578,-3.3807,-3.3807,-3.3807,-3.3807,-3.3807,-3.3807,-3.3807,-3.3807,-3.3807,-3.3807,-3.3807,-3.3868,-3.3876,0.0,0.0,0.0,0.0,-1.1717,0.0,0.0,0.0,-1.1129,-1.1096,0.0,0.0,0.0,0.0,0.0,0.0,0.0,0.0,0.0,0.0,0.0,0.0,0.0,0.0,0.0,-1.1768,-1.1801,-1.1983,-1.0493,-0.9627,-0.9782,-0.7856,-0.6806,-0.6928,-0.6244,-0.5959,-0.6234,-0.6251,-0.6338,-0.6338,-0.6338,-0.6795,-0.7633,-0.877,-0.982,-1.0714,-1.1842,-1.2305,-1.2305,-1.2305,-1.2305,-1.2519,-1.445,-1.5234,-1.5446,-1.7295,-1.8008,-1.8008,-1.8008,-1.8529,-1.9299,-2.0268,-2.1616,-2.2884,-2.3065,-2.3078,-2.3078,-2.3078,-2.3767,-2.4567,-2.5231,-2.6,-2.6774,-2.7458,-2.7625,-2.7625,-2.7625,-2.7625,-2.7625,-2.7625,-2.8091,-2.8685,-2.9316,-2.9892,-3.0518,-3.1112,-3.119,-3.119,-3.119,-3.119,-3.119,-3.119,-3.1507,-3.1752,-3.1789,-3.2598,-3.3136,-3.3184,-3.3578,-3.3807,-3.3807,-3.3807,-3.3807,-3.3807,-3.3807,-3.3807,-3.3807,-3.3807,-3.3807,-3.3807,-3.4043,-3.4152,0.0,0.0,0.0,0.0,0.0,0.0,-1.1256,0.0,-1.0949,0.0,0.0,0.0,0.0,0.0,0.0,0.0,0.0,0.0,0.0,0.0,0.0,0.0,0.0,0.0,0.0,0.0,0.0,0.0,-1.1514,-1.071,-1.0107,-0.9201,-0.8167,-0.6986,-0.6837,-0.6581,-0.6125,-0.6217,-0.6338,-0.6338,-0.6338,-0.6795,-0.7859,-0.8841,-0.982,-1.0864,-1.1848,-1.2305,-1.2305,-1.2305,-1.2592,-1.3237,-1.4665,-1.5234,-1.5446,-1.7295,-1.8008,-1.8008,-1.8008,-1.8586,-1.9562,-2.091,-2.2125,-2.3078,-2.3078,-2.3078,-2.3198,-2.3649,-2.4337,-2.5119,-2.5837,-2.6602,-2.7203,-2.7524,-2.7625,-2.7625,-2.7625,-2.7625,-2.7625,-2.7625,-2.8352,-2.9088,-2.9361,-2.9892,-3.0518,-3.1112,-3.119,-3.119,-3.119,-3.119,-3.119,-3.119,-3.1565,-3.1789,-3.1789,-3.2663,-3.3214,-3.3214,-3.3578,-3.3807,-3.3807,-3.3807,-3.3807,-3.3807,-3.3807,-3.3807,-3.3807,-3.3807,-3.3876,-3.4043,-3.4147,-3.4292,-1.171,0.0,0.0,0.0,0.0,0.0,0.0,0.0,0.0,0.0,0.0,0.0,0.0,0.0,0.0,0.0,0.0,0.0,0.0,0.0,0.0,0.0,0.0,0.0,0.0,0.0,0.0,-1.2178,-1.1911,-1.1403,-1.0639,-1.0281,-0.9414,-0.7919,-0.764,-0.7298,-0.6907,-0.6809,-0.6872,-0.7099,-0.7099,-0.7629,-0.8609,-0.9367,-1.0265,-1.1242,-1.1996,-1.2305,-1.2305,-1.2305,-1.2879,-1.381,-1.4807,-1.5376,-1.5799,-1.7432,-1.8008,-1.8008,-1.8008,-1.8721,-1.9944,-2.1678,-2.2628,-2.3078,-2.3078,-2.3078,-2.3245,-2.406,-2.4851,-2.5563,-2.6283,-2.7034,-2.7625,-2.7625,-2.7625,-2.7625,-2.7625,-2.7625,-2.7625,-2.7625,-2.8448,-2.9225,-2.9361,-3.0038,-3.0699,-3.1151,-3.119,-3.119,-3.119,-3.119,-3.1252,-3.1351,-3.1733,-3.2057,-3.2161,-3.2903,-3.3361,-3.3361,-3.3652,-3.3807,-3.3807,-3.3807,-3.3807,-3.3807,-3.3807,-3.3842,-3.3902,-3.3902,-3.4093,-3.4449,-3.436,-3.451,0.0,0.0,0.0,-1.1082,0.0,0.0,0.0,0.0,-1.0631,0.0,0.0,0.0,0.0,0.0,0.0,0.0,0.0,0.0,0.0,0.0,0.0,0.0,0.0,0.0,0.0,0.0,0.0,-1.1864,-1.1603,-1.1563,-1.1837,-1.0734,-1.0137,-1.03,-0.8505,-0.8026,-0.921,-0.8232,-0.8237,-0.9226,-0.9226,-0.9744,-1.0708,-1.0708,-1.1316,-1.2224,-1.2298,-1.2305,-1.2305,-1.2305,-1.2879,-1.381,-1.4807,-1.579,-1.6636,-1.7647,-1.8008,-1.8008,-1.8008,-1.911,-2.0846,-2.2506,-2.3078,-2.3078,-2.3078,-2.3078,-2.3245,-2.406,-2.4851,-2.5563,-2.6283,-2.7034,-2.7625,-2.7625,-2.7625,-2.7625,-2.7625,-2.7625,-2.7625,-2.7625,-2.8091,-2.8685,-2.9316,-3.0393,-3.119,-3.119,-3.119,-3.119,-3.119,-3.119,-3.1351,-3.1752,-3.2213,-3.2648,-3.3124,-3.355,-3.3762,-3.3762,-3.3788,-3.3807,-3.3807,-3.3807,-3.3807,-3.3807,-3.3807,-3.3928,-3.4195,-3.4195,-3.4492,-3.5051,-3.4793,-3.4813,0.0,0.0,-1.1603,-1.1116,0.0,0.0,0.0,0.0,0.0,0.0,0.0,0.0,0.0,0.0,0.0,0.0,0.0,0.0,0.0,0.0,0.0,0.0,0.0,0.0,0.0,0.0,0.0,-1.1935,-1.2515,-1.2593,-1.1948,-1.1664,-1.1232,-1.0407,-0.99,-0.9585,-0.9296,-0.8993,-0.8993,-0.9296,-0.9296,-0.982,-1.0783,-1.0783,-1.1316,-1.2305,-1.2305,-1.2305,-1.2305,-1.2305,-1.3237,-1.4736,-1.5092,-1.6158,-1.7579,-1.7862,-1.8008,-1.8134,-1.9299,-2.0139,-2.091,-2.2567,-2.3078,-2.3078,-2.3078,-2.3078,-2.3365,-2.4667,-2.5231,-2.5673,-2.693,-2.7408,-2.7625,-2.7625,-2.7625,-2.7625,-2.7625,-2.7625,-2.771,-2.814,-2.8685,-2.9271,-2.9892,-3.0658,-3.119,-3.119,-3.119,-3.119,-3.119,-3.119,-3.1351,-3.1752,-3.2196,-3.2681,-3.3154,-3.3578,-3.3807,-3.3807,-3.3807,-3.3807,-3.3807,-3.3807,-3.3807,-3.3807,-3.3807,-3.391,-3.42,-3.42,-3.4513,-3.5105,-3.4999,-3.5105,-1.1663,-1.1724,0.0,-1.1269,-1.1289,0.0,-1.0822,0.0,0.0,0.0,0.0,0.0,0.0,0.0,0.0,0.0,0.0,0.0,0.0,-1.294,0.0,0.0,0.0,0.0,0.0,0.0,-1.3203,-1.2888,-1.3588,-1.3592,0.0,0.0,-1.2271,-1.1137,-1.0923,-1.064,-1.0351,-1.0045,-1.0045,-1.0351,-1.0351,-1.072,-1.1316,-1.1316,-1.1694,-1.2305,-1.2305,-1.2305,-1.2305,-1.2305,-1.3448,-1.5234,-1.5234,-1.6376,-1.8008,-1.8008,-1.8008,-1.8269,-2.0009,-2.059,-2.091,-2.2567,-2.3078,-2.3078,-2.3078,-2.3078,-2.3374,-2.4679,-2.5218,-2.5672,-2.6908,-2.7395,-2.7625,-2.7625,-2.7625,-2.7625,-2.7625,-2.776,-2.8042,-2.8415,-2.9134,-2.9848,-3.0208,-3.0797,-3.119,-3.119,-3.119,-3.119,-3.119,-3.119,-3.1428,-3.2004,-3.2316,-3.2745,-3.3361,-3.3652,-3.3807,-3.3807,-3.3807,-3.3807,-3.3807,-3.3807,-3.3807,-3.3807,-3.3807,-3.3986,-3.4379,-3.4379,-3.4676,-3.5239,-3.5239,-3.532]}]]